[[{"header":{"parameterUnit":"m.s-1","parameterCategory":1,"la1":30.6,"la2":29.2853,"lo1":-89.7004,"lo2":-87.6739,"dy":0.0162,"dx":0.0183,"nx":112,"ny":82,"refTime":"2023-04-25T00:00:00:Z","depth":0,"parameterNumber":2,"parameterNumberName":"U-component_of_WINDS"},"data":[0.0,0.0,0.0,0.0,0.0,0.0,0.0,0.0,0.0,0.0,0.0,0.0,0.0,0.0,0.0,0.0,0.0,0.0,0.0,0.0,0.0,0.0,0.0,0.0,0.0,0.0,0.0,0.0,0.0,0.0,0.0,0.0,0.0,0.0,0.0,0.0,0.0,0.0,0.0,0.0,0.0,0.0,0.0,0.0,0.0,0.0,0.0,0.0,0.0,0.0,0.0,0.0,0.0,0.0,0.0,0.0,0.0,0.0,0.0,0.0,0.0,0.0,0.0,0.0,0.0,0.0,0.0,0.0,0.0,0.0,0.0,0.0,0.0,0.0,0.0,0.0,0.0,0.0,0.0,0.0,0.0,0.0,0.0,0.0,0.0,0.0,0.0,0.0,0.0,0.0,2.536,2.7621,2.8734,2.8774,2.7302,2.7035,2.5085,2.078,0.0,0.0,0.0,0.0,0.0,0.0,0.0,0.0,0.0,0.0,0.0,0.0,0.0,0.0,0.0,0.0,0.0,0.0,0.0,0.0,0.0,0.0,0.0,0.0,0.0,0.0,0.0,0.0,0.0,0.0,0.0,0.0,0.0,0.0,0.0,0.0,0.0,0.0,0.0,0.0,0.0,0.0,0.0,0.0,0.0,0.0,0.0,0.0,0.0,0.0,0.0,0.0,0.0,0.0,0.0,0.0,0.0,0.0,0.0,0.0,0.0,0.0,0.0,0.0,0.0,0.0,0.0,0.0,0.0,0.0,0.0,0.0,0.0,0.0,0.0,0.0,0.0,0.0,0.0,0.0,0.0,0.0,0.0,0.0,0.0,0.0,0.0,0.0,0.0,0.0,0.0,0.0,0.0,0.0,0.0,0.0,0.0,0.0,0.0,0.0,0.0,0.0,0.0,0.0,2.6779,2.8802,2.9213,2.8774,2.7302,2.6084,2.4043,2.1036,0.0,0.0,0.0,0.0,0.0,0.0,0.0,0.0,0.0,0.0,0.0,0.0,0.0,0.0,0.0,0.0,0.0,0.0,0.0,0.0,0.0,0.0,0.0,0.0,0.0,0.0,0.0,0.0,0.0,0.0,0.0,0.0,0.0,0.0,0.0,0.0,0.0,0.0,0.0,0.0,0.0,0.0,0.0,0.0,0.0,0.0,0.0,0.0,0.0,0.0,0.0,0.0,0.0,0.0,0.0,0.0,0.0,0.0,0.0,0.0,0.0,0.0,0.0,0.0,0.0,0.0,0.0,0.0,0.0,0.0,0.0,0.0,0.0,0.0,0.0,0.0,0.0,0.0,0.0,0.0,0.0,0.0,0.0,0.0,0.0,0.0,0.0,0.0,0.0,0.0,0.0,0.0,0.0,0.0,0.0,0.0,0.0,0.0,0.0,0.0,0.0,0.0,0.0,2.6368,2.8295,2.9196,2.9316,2.9036,2.8378,2.77,2.5732,2.2108,2.2016,0.0,0.0,0.0,0.0,0.0,0.0,0.0,0.0,0.0,0.0,0.0,0.0,0.0,0.0,0.0,0.0,0.0,0.0,0.0,0.0,0.0,0.0,0.0,0.0,0.0,0.0,0.0,0.0,0.0,0.0,0.0,0.0,0.0,0.0,0.0,0.0,0.0,0.0,0.0,0.0,0.0,0.0,0.0,0.0,0.0,0.0,0.0,0.0,0.0,0.0,0.0,0.0,0.0,0.0,0.0,0.0,0.0,0.0,0.0,0.0,0.0,0.0,0.0,0.0,0.0,0.0,0.0,0.0,0.0,0.0,0.0,0.0,0.0,0.0,0.0,0.0,0.0,0.0,0.0,0.0,0.0,0.0,0.0,0.0,0.0,0.0,0.0,0.0,0.0,0.0,0.0,0.0,0.0,0.0,0.0,0.0,0.0,0.0,0.0,0.0,0.0,0.0,2.7604,2.8922,2.9265,2.9316,2.9185,2.8774,2.8774,2.6905,2.2467,2.2468,0.0,0.0,0.0,0.0,0.0,0.0,0.0,0.0,0.0,0.0,0.0,0.0,0.0,0.0,0.0,0.0,0.0,0.0,0.0,0.0,0.0,0.0,0.0,0.0,0.0,0.0,0.0,0.0,0.0,0.0,0.0,0.0,0.0,0.0,0.0,0.0,0.0,0.0,0.0,0.0,0.0,0.0,0.0,0.0,0.0,0.0,0.0,0.0,0.0,0.0,0.0,0.0,0.0,0.0,0.0,0.0,0.0,0.0,0.0,0.0,0.0,0.0,0.0,0.0,0.0,0.0,0.0,0.0,0.0,0.0,0.0,0.0,0.0,0.0,0.0,0.0,0.0,0.0,0.0,0.0,0.0,0.0,0.0,0.0,0.0,0.0,0.0,0.0,0.0,0.0,0.0,0.0,0.0,0.0,0.0,0.0,0.0,0.0,0.0,0.0,0.0,0.0,2.6696,2.7758,2.9162,2.9316,2.8774,2.7435,2.7302,2.5473,2.1264,2.1286,0.0,0.0,0.0,0.0,0.0,0.0,0.0,0.0,0.0,0.0,0.0,0.0,0.0,0.0,0.0,0.0,0.0,0.0,0.0,0.0,0.0,0.0,0.0,0.0,0.0,0.0,0.0,0.0,0.0,0.0,0.0,0.0,0.0,0.0,0.0,0.0,0.0,0.0,0.0,0.0,0.0,0.0,0.0,0.0,0.0,0.0,0.0,0.0,0.0,0.0,0.0,0.0,0.0,0.0,0.0,0.0,0.0,0.0,0.0,0.0,0.0,0.0,0.0,0.0,0.0,0.0,0.0,0.0,0.0,0.0,0.0,0.0,0.0,0.0,0.0,0.0,0.0,0.0,0.0,0.0,0.0,0.0,0.0,0.0,0.0,0.0,0.0,0.0,0.0,0.0,0.0,0.0,0.0,0.0,0.0,0.0,0.0,0.0,0.0,0.0,0.0,0.0,2.7538,2.8297,0.0,2.7965,2.7435,2.595,2.5816,2.4304,2.0794,0.0,0.0,0.0,0.0,0.0,0.0,0.0,0.0,0.0,0.0,0.0,0.0,0.0,0.0,0.0,0.0,0.0,0.0,0.0,0.0,0.0,0.0,0.0,0.0,0.0,0.0,0.0,0.0,0.0,0.0,0.0,0.0,0.0,0.0,0.0,0.0,0.0,0.0,0.0,0.0,0.0,0.0,0.0,0.0,0.0,0.0,0.0,0.0,0.0,0.0,0.0,0.0,0.0,0.0,0.0,0.0,0.0,0.0,0.0,0.0,0.0,0.0,0.0,0.0,0.0,0.0,0.0,0.0,0.0,0.0,0.0,0.0,0.0,0.0,0.0,0.0,0.0,0.0,0.0,0.0,0.0,0.0,0.0,0.0,0.0,0.0,0.0,0.0,0.0,0.0,0.0,0.0,0.0,0.0,0.0,0.0,0.0,0.0,0.0,0.0,0.0,0.0,2.6174,2.7645,2.823,0.0,2.6753,2.6084,2.5143,2.5008,2.3782,2.078,0.0,0.0,0.0,0.0,0.0,0.0,0.0,0.0,0.0,0.0,0.0,0.0,0.0,0.0,0.0,0.0,0.0,0.0,0.0,0.0,0.0,0.0,0.0,0.0,0.0,0.0,0.0,0.0,0.0,0.0,0.0,0.0,0.0,0.0,0.0,0.0,0.0,0.0,0.0,0.0,0.0,0.0,0.0,0.0,0.0,0.0,0.0,0.0,0.0,0.0,0.0,0.0,0.0,0.0,0.0,0.0,0.0,0.0,0.0,0.0,0.0,0.0,0.0,0.0,0.0,0.0,0.0,0.0,0.0,0.0,0.0,0.0,0.0,0.0,0.0,0.0,0.0,0.0,0.0,0.0,0.0,0.0,0.0,0.0,0.0,0.0,0.0,0.0,0.0,0.0,0.0,0.0,0.0,0.0,0.0,0.0,0.0,0.0,0.0,0.0,0.0,0.0,2.571,2.664,2.7169,2.7169,2.5816,2.5008,2.5008,2.5008,2.3782,0.0,0.0,0.0,0.0,0.0,0.0,0.0,0.0,0.0,0.0,0.0,0.0,0.0,0.0,0.0,0.0,0.0,0.0,0.0,0.0,0.0,0.0,0.0,0.0,0.0,0.0,0.0,0.0,0.0,0.0,0.0,0.0,0.0,0.0,0.0,0.0,0.0,0.0,0.0,0.0,0.0,0.0,0.0,0.0,0.0,0.0,0.0,0.0,0.0,0.0,0.0,0.0,0.0,0.0,0.0,0.0,0.0,0.0,0.0,0.0,0.0,0.0,0.0,0.0,0.0,0.0,0.0,0.0,0.0,0.0,0.0,0.0,0.0,0.0,0.0,0.0,0.0,0.0,0.0,0.0,0.0,0.0,0.0,0.0,0.0,0.0,0.0,0.0,0.0,0.0,0.0,0.0,0.0,0.0,0.0,0.0,0.0,0.0,0.0,0.0,0.0,0.0,0.0,2.3787,2.4833,2.5278,2.4181,2.3774,2.3106,2.2022,2.2022,2.1168,1.9233,0.0,0.0,0.0,0.0,0.0,0.0,0.0,0.0,0.0,0.0,0.0,0.0,0.0,0.0,0.0,0.0,0.0,0.0,0.0,0.0,0.0,0.0,0.0,0.0,0.0,0.0,0.0,0.0,0.0,0.0,0.0,0.0,0.0,0.0,0.0,0.0,0.0,0.0,0.0,0.0,0.0,0.0,0.0,0.0,0.0,0.0,0.0,0.0,0.0,0.0,0.0,0.0,0.0,0.0,0.0,0.0,0.0,0.0,0.0,0.0,0.0,0.0,0.0,0.0,0.0,0.0,0.0,0.0,0.0,0.0,0.0,0.0,0.0,0.0,0.0,0.0,0.0,0.0,0.0,0.0,0.0,0.0,0.0,0.0,0.0,0.0,0.0,0.0,0.0,0.0,0.0,0.0,0.0,0.0,0.0,0.0,0.0,0.0,0.0,0.0,0.0,0.0,2.2408,2.3464,2.3774,2.2956,2.2284,2.1609,2.0804,2.0804,2.0392,1.9222,0.0,0.0,0.0,0.0,0.0,0.0,0.0,0.0,0.0,0.0,0.0,0.0,0.0,0.0,0.0,0.0,0.0,0.0,0.0,0.0,0.0,0.0,0.0,0.0,0.0,0.0,0.0,0.0,0.0,0.0,0.0,0.0,0.0,0.0,0.0,0.0,0.0,0.0,0.0,0.0,0.0,0.0,0.0,0.0,0.0,0.0,0.0,0.0,0.0,0.0,0.0,0.0,0.0,0.0,0.0,0.0,0.0,0.0,0.0,0.0,0.0,0.0,0.0,0.0,0.0,0.0,0.0,0.0,0.0,0.0,0.0,0.0,0.0,0.0,0.0,0.0,0.0,0.0,0.0,0.0,0.0,0.0,0.0,0.0,0.0,0.0,0.0,0.0,0.0,0.0,0.0,0.0,0.0,0.0,0.0,0.0,0.0,0.0,0.0,0.0,0.0,0.0,2.1363,2.2079,2.2545,2.2545,2.1471,2.0665,2.0665,2.0943,2.0996,2.0434,0.0,0.0,0.0,0.0,0.0,0.0,0.0,0.0,0.0,0.0,0.0,0.0,0.0,0.0,0.0,0.0,0.0,0.0,0.0,0.0,0.0,0.0,0.0,0.0,0.0,0.0,0.0,0.0,0.0,0.0,0.0,0.0,0.0,0.0,0.0,0.0,0.0,0.0,0.0,0.0,0.0,0.0,0.0,0.0,0.0,0.0,0.0,0.0,0.0,0.0,0.0,0.0,0.0,0.0,0.0,0.0,0.0,0.0,0.0,0.0,2.8058,0.0,0.0,0.0,0.0,0.0,0.0,0.0,0.0,0.0,0.0,0.0,0.0,0.0,0.0,0.0,0.0,0.0,0.0,0.0,0.0,0.0,0.0,0.0,0.0,0.0,0.0,0.0,0.0,0.0,0.0,0.0,0.0,0.0,0.0,0.0,0.0,0.0,0.0,0.0,0.0,0.0,1.9274,2.0416,2.1207,2.1207,2.0943,2.0665,2.0665,2.0804,2.06,2.016,2.0156,0.0,0.0,0.0,0.0,0.0,0.0,0.0,0.0,0.0,0.0,0.0,0.0,0.0,0.0,0.0,0.0,0.0,0.0,0.0,0.0,0.0,0.0,0.0,0.0,0.0,0.0,0.0,0.0,0.0,0.0,0.0,0.0,0.0,0.0,0.0,0.0,0.0,0.0,0.0,0.0,0.0,0.0,0.0,0.0,0.0,0.0,0.0,0.0,0.0,0.0,0.0,0.0,0.0,0.0,0.0,0.0,0.0,0.0,0.0,0.0,2.6788,0.0,0.0,0.0,0.0,0.0,0.0,0.0,0.0,0.0,0.0,0.0,0.0,0.0,0.0,0.0,0.0,0.0,0.0,0.0,0.0,0.0,0.0,0.0,0.0,0.0,0.0,0.0,0.0,0.0,0.0,0.0,0.0,0.0,0.0,0.0,0.0,0.0,0.0,0.0,0.0,1.8154,1.9781,2.0943,2.0665,2.0665,2.0665,2.0665,2.0804,2.0946,2.1057,2.0806,0.0,0.0,0.0,0.0,0.0,0.0,0.0,0.0,0.0,0.0,0.0,0.0,0.0,0.0,0.0,0.0,0.0,0.0,0.0,0.0,0.0,0.0,0.0,0.0,0.0,0.0,0.0,0.0,0.0,0.0,0.0,0.0,0.0,0.0,0.0,0.0,0.0,0.0,0.0,0.0,0.0,0.0,0.0,0.0,0.0,0.0,0.0,0.0,0.0,0.0,0.0,0.0,0.0,2.3941,2.3765,2.4245,2.2549,2.2284,2.3181,2.4229,2.4911,2.4991,2.3023,0.0,0.0,0.0,0.0,0.0,0.0,0.0,0.0,0.0,0.0,0.0,0.0,0.0,0.0,0.0,0.0,0.0,0.0,0.0,0.0,0.0,0.0,0.0,0.0,2.0405,2.1002,0.0,0.0,0.0,0.0,0.0,0.0,0.0,0.0,0.0,0.0,0.0,0.0,1.7589,1.9638,2.1077,2.0798,2.095,2.0938,2.1077,2.1217,2.1722,2.2384,2.1797,2.1582,0.0,0.0,0.0,0.0,0.0,0.0,0.0,0.0,0.0,0.0,0.0,0.0,0.0,0.0,0.0,0.0,0.0,0.0,0.0,0.0,0.0,0.0,0.0,0.0,0.0,0.0,0.0,0.0,0.0,0.0,0.0,0.0,2.9094,2.9487,0.0,0.0,0.0,0.0,0.0,0.0,0.0,0.0,0.0,0.0,0.0,0.0,0.0,2.8079,2.6701,2.8227,2.8276,2.6676,2.7043,2.7296,2.7342,2.5152,2.4155,2.4142,2.2266,0.0,2.4839,2.3639,0.0,0.0,0.0,0.0,0.0,0.0,0.0,0.0,0.0,0.0,0.0,0.0,0.0,0.0,0.0,0.0,0.0,0.0,0.0,0.0,0.0,0.0,1.9845,1.9828,1.9949,2.0083,0.0,1.9733,1.884,1.9261,1.8605,0.0,0.0,0.0,0.0,0.0,0.0,0.0,1.7497,1.9492,2.1055,2.1341,2.1771,2.2057,2.2342,2.2342,2.264,2.2989,2.2988,2.2723,2.2392,2.3394,0.0,0.0,0.0,0.0,0.0,0.0,0.0,0.0,0.0,0.0,0.0,0.0,0.0,0.0,0.0,0.0,0.0,0.0,0.0,0.0,0.0,0.0,0.0,0.0,0.0,0.0,0.0,0.0,0.0,2.8663,2.936,2.9368,2.9265,2.8628,0.0,0.0,0.0,0.0,0.0,0.0,0.0,0.0,0.0,2.7816,2.7899,2.7344,2.5901,2.7323,2.7004,2.5027,2.5271,2.4997,2.4088,2.293,2.2347,2.1888,2.0831,2.0962,2.2054,2.2036,2.172,2.1236,0.0,0.0,0.0,0.0,1.7731,1.772,1.799,1.8316,0.0,1.8809,0.0,0.0,0.0,0.0,0.0,0.0,0.0,0.0,0.0,0.0,1.9187,1.9725,1.9905,1.9911,2.0369,1.9312,1.8661,0.0,1.8759,1.7584,1.7019,0.0,0.0,0.0,0.0,1.817,1.8154,1.9739,2.0873,2.0873,2.1018,2.1306,2.1882,2.2013,2.2231,2.2683,2.2683,2.2595,2.2237,2.2847,2.2468,0.0,0.0,0.0,0.0,0.0,0.0,0.0,0.0,0.0,0.0,0.0,0.0,0.0,0.0,0.0,0.0,0.0,0.0,0.0,0.0,0.0,0.0,0.0,0.0,0.0,0.0,0.0,0.0,2.8718,2.9397,2.9305,2.9349,2.8893,0.0,0.0,0.0,0.0,0.0,0.0,2.8505,2.8095,2.8077,2.8324,2.8459,2.7492,2.5268,2.6128,2.5478,2.3141,2.2843,2.2085,2.1026,2.0737,2.0436,1.9844,1.9844,1.9844,1.9951,2.0432,2.0347,1.9915,1.9915,1.9182,1.7992,1.7992,1.7884,1.7787,1.8132,1.8487,1.8853,1.9208,1.8918,1.8401,1.8218,0.0,0.0,0.0,0.0,1.755,1.8326,1.8659,1.8972,1.9682,1.9844,1.9844,1.9844,1.9101,1.879,0.0,1.9118,1.7803,1.7315,0.0,0.0,0.0,0.0,1.8778,1.8575,1.9861,2.0623,2.0489,2.0635,2.0927,2.1655,2.1655,2.1886,2.2362,2.2374,2.2325,2.2247,2.2247,2.1726,2.0934,0.0,0.0,0.0,0.0,0.0,0.0,0.0,0.0,0.0,0.0,0.0,0.0,0.0,0.0,0.0,0.0,0.0,0.0,0.0,0.0,0.0,0.0,0.0,0.0,0.0,0.0,0.0,0.0,0.0,3.0039,3.0556,0.0,0.0,0.0,0.0,2.7849,2.7867,2.8853,3.1121,3.09,3.0946,3.1268,3.123,2.955,2.5646,2.5702,2.4569,2.2247,2.1487,2.1037,2.1037,2.0296,1.9995,1.9844,1.9844,1.9844,1.9844,1.9962,1.994,1.9875,1.9203,1.8767,1.8649,1.7981,1.8153,1.8713,1.8745,1.9198,1.9779,1.9801,1.9187,1.8304,1.7636,1.7227,0.0,0.0,1.7841,1.8422,1.8692,1.9273,1.979,1.9833,1.9844,1.9844,1.9844,1.9101,1.8702,0.0,1.9159,1.8347,1.8304,0.0,1.7495,1.7023,1.7438,1.7877,1.8369,1.9657,2.0703,2.0991,2.1302,2.1763,2.2061,2.2211,2.2223,2.2235,2.2235,2.2235,2.2247,2.2247,2.2223,2.2174,2.0472,0.0,0.0,0.0,0.0,0.0,0.0,0.0,0.0,0.0,0.0,0.0,0.0,0.0,0.0,0.0,0.0,0.0,0.0,0.0,0.0,0.0,0.0,0.0,0.0,0.0,0.0,0.0,0.0,3.0112,3.0336,0.0,2.9532,2.9686,2.9635,2.9094,3.0248,3.0996,3.0715,3.0155,2.9412,2.8644,2.7055,2.5597,2.4301,2.3709,2.2819,2.1487,2.1187,2.0737,2.0296,1.9995,1.9844,1.9844,1.9844,1.9844,1.9844,1.9844,1.9844,1.9822,1.9564,1.9467,1.9435,1.9187,1.9252,1.9467,1.9467,1.9639,1.9844,1.9844,1.9618,1.9295,1.9047,1.8907,1.8853,1.8939,1.9144,1.9359,1.9445,1.9661,1.9844,1.9844,1.9844,1.9844,1.9844,1.9585,1.9445,1.9779,1.9079,1.8433,1.8433,1.8731,1.8784,1.8056,1.8517,1.9252,1.9338,1.9788,2.0145,2.0296,2.0447,2.0748,2.1337,2.1487,2.1487,2.1487,2.1487,2.1187,2.0748,2.0748,2.0748,2.0748,2.0103,1.9206,0.0,0.0,0.0,0.0,0.0,0.0,0.0,0.0,0.0,0.0,0.0,0.0,0.0,0.0,0.0,0.0,0.0,0.0,0.0,0.0,0.0,0.0,0.0,0.0,0.0,0.0,2.9599,3.013,3.0442,3.0552,3.0281,3.0629,3.0828,3.0681,3.1622,3.1996,3.1566,3.0086,2.8788,2.765,2.5465,2.387,2.2992,2.2247,2.1337,2.0586,2.0586,2.0447,1.9844,1.9844,1.9714,1.9499,1.9747,1.9714,1.951,1.9747,1.9844,1.9844,1.9844,1.9844,1.9844,1.9844,1.9844,1.9844,1.9844,1.9844,1.9844,1.9844,1.9844,1.9844,1.9844,1.9844,1.9844,1.9844,1.9844,1.9844,1.9844,1.9844,1.9844,1.9844,1.9844,1.9844,1.9844,1.9596,1.9467,1.9779,1.9338,1.8832,1.8595,1.9068,1.9165,1.8218,1.8616,1.8982,1.8896,1.9176,1.937,1.937,1.9661,2.0145,2.0586,2.0284,2.0229,2.0564,2.0273,2.0103,1.9833,1.9542,1.937,1.937,1.9058,1.8466,1.7604,0.0,0.0,0.0,0.0,0.0,0.0,0.0,0.0,0.0,0.0,0.0,0.0,0.0,0.0,0.0,0.0,0.0,0.0,0.0,0.0,0.0,0.0,0.0,2.727,2.8957,3.0222,3.0259,3.0937,3.1431,3.1475,3.1774,3.2235,3.2729,3.153,3.1704,3.3502,3.0751,2.9012,2.8996,2.6692,2.4516,2.2198,2.1325,2.0586,1.9844,1.9844,1.9844,1.9844,1.9844,1.9467,1.8853,1.9553,1.9456,1.8875,1.9564,1.9844,1.9844,1.9844,1.9844,1.9844,1.9844,1.9844,1.9844,1.9822,1.9833,1.9844,1.9844,1.9844,1.9844,1.9844,1.9844,1.9844,1.9844,1.9844,1.9844,1.9844,1.9844,1.9844,1.9844,1.9844,1.9844,1.9844,1.9122,1.8745,1.9671,1.9844,1.9628,1.8939,1.8821,1.8509,1.7593,1.7453,0.0,1.712,1.7906,1.8476,1.8476,1.9273,1.9811,1.9844,1.8982,1.8842,1.979,1.8982,1.8885,1.9811,1.8961,1.8476,1.8476,1.754,1.7615,1.8767,0.0,0.0,0.0,0.0,0.0,0.0,0.0,0.0,0.0,0.0,0.0,0.0,0.0,0.0,0.0,0.0,0.0,0.0,0.0,0.0,0.0,0.0,2.7917,2.9203,2.9855,3.0516,3.1414,3.1708,3.2001,3.2271,3.2582,3.2973,3.3057,3.1913,3.1107,3.0501,2.8068,2.5754,2.4011,2.2808,2.1554,2.039,2.024,2.0145,1.9844,1.9844,1.9844,1.9844,1.9844,1.9736,1.9564,1.9758,1.9736,1.9575,1.9768,1.9844,1.9844,1.9844,1.9844,1.9844,1.9844,1.9844,1.9768,1.9252,1.9413,1.9844,1.9844,1.9844,1.9844,1.9844,1.9844,1.9844,1.9844,1.9844,1.9844,1.9844,1.9844,1.9844,1.9844,1.9844,1.9844,1.9844,1.9639,1.9531,1.9801,1.9844,1.9779,1.9585,1.9553,1.9467,1.9208,1.9165,0.0,1.9079,1.9295,1.9456,1.9456,1.9079,1.9101,1.979,1.8982,1.8842,1.979,1.9607,1.9575,1.9833,1.9596,1.9456,1.9456,1.853,1.8207,0.0,0.0,0.0,0.0,0.0,0.0,0.0,0.0,0.0,0.0,0.0,0.0,0.0,0.0,0.0,0.0,0.0,0.0,0.0,0.0,0.0,0.0,2.6287,2.7361,2.9648,3.0556,3.0956,3.0971,3.1733,3.2138,3.198,3.2657,3.3011,3.2467,3.1248,3.0058,2.8757,2.6526,2.4371,2.2572,2.179,2.0828,1.9552,1.9812,1.9844,1.9844,1.9844,1.9844,1.9844,1.9844,1.9682,1.9424,1.9714,1.9682,1.9424,1.9725,1.9844,0.0,0.0,0.0,0.0,0.0,1.9844,1.979,1.937,1.9499,1.9844,1.9844,1.9844,1.9844,1.9844,1.9575,1.9252,1.9252,1.8972,1.8745,1.9155,1.9252,1.9359,1.9747,1.9844,1.9844,1.9844,1.9531,1.937,1.9768,1.9531,0.0,1.9779,1.9596,1.9262,1.8875,1.881,1.8778,1.867,1.9004,1.9252,1.9252,1.9122,1.9252,1.9801,1.8982,0.0,0.0,0.0,1.9252,1.9252,1.9252,0.0,0.0,0.0,1.8078,1.8584,0.0,0.0,0.0,1.8304,1.7949,0.0,0.0,0.0,0.0,0.0,0.0,0.0,0.0,0.0,0.0,0.0,0.0,0.0,0.0,0.0,0.0,2.5349,2.5974,2.886,3.0449,3.0901,2.9681,3.1067,3.1572,3.07,3.172,3.1999,3.1034,2.9488,2.8326,2.7575,0.0,0.0,0.0,0.0,2.1061,1.9413,1.9812,1.9844,1.9844,1.9844,1.9844,1.9844,1.9844,1.9499,1.8939,1.9575,1.9488,1.895,1.9585,1.9844,1.9844,1.9844,1.9844,1.9844,1.9758,1.9779,1.9833,1.9758,0.0,0.0,1.9844,1.9844,1.9844,1.9844,1.9262,1.8595,1.8595,1.7981,1.7518,1.8369,1.8595,1.881,1.965,1.9844,1.9844,1.9844,1.9187,1.8842,1.9682,1.9165,1.8864,1.9704,1.9316,1.8616,1.7787,1.7658,1.7572,1.7356,1.8067,1.8595,1.8595,0.0,0.0,1.9844,1.8982,1.8842,1.979,1.9058,1.8595,1.8595,1.8595,1.8315,1.7712,1.7475,1.7895,1.8982,1.8982,1.9424,2.0221,1.8735,1.8379,0.0,0.0,0.0,0.0,0.0,0.0,0.0,0.0,0.0,0.0,0.0,0.0,0.0,0.0,0.0,2.3657,2.3762,2.4148,2.6126,2.6983,2.7741,2.8627,2.8535,2.8412,2.8616,2.8187,2.7916,2.7689,2.6271,2.5395,2.5263,2.2896,2.1217,2.0376,2.0202,1.9656,1.8573,1.9517,1.9844,1.9844,0.0,0.0,1.9844,1.9844,1.9768,1.965,1.979,1.9768,1.965,1.979,1.9844,1.9844,1.9844,1.9844,1.9779,1.9198,1.9348,1.9768,1.9187,1.937,1.9844,1.9844,1.9844,1.9844,1.9844,1.9714,0.0,1.9575,1.9445,1.9338,1.9521,1.9575,1.9618,1.9801,1.9844,1.9844,1.9844,1.9704,1.9628,1.9811,1.9704,1.9628,1.9811,1.9736,1.9585,1.9391,1.937,1.9348,1.9305,1.9456,1.9575,1.9575,1.9058,1.9015,1.9779,1.8982,1.8842,1.979,1.9671,1.9575,1.9575,1.9575,1.9607,1.9661,1.9618,1.9801,2.0221,2.0221,2.0317,2.049,2.0167,2.0091,0.0,0.0,0.0,0.0,0.0,0.0,0.0,0.0,0.0,0.0,0.0,1.9859,0.0,0.0,2.0362,2.2326,2.2136,2.2367,2.4465,2.4282,2.4535,2.6113,2.6801,2.682,2.6256,2.6547,2.6532,2.5674,2.4956,2.3953,2.2781,2.1995,2.0767,1.9005,1.9858,1.9748,1.8444,1.937,1.9844,1.9844,1.9844,1.9844,1.9844,1.9844,1.9844,1.9844,1.9844,1.9844,1.9844,1.9844,1.9844,1.9844,1.9844,1.9844,1.9801,1.9445,1.9542,1.9801,1.9435,1.9553,1.9844,1.9844,1.9844,1.9844,1.9844,1.9521,1.9144,1.9144,1.8799,1.853,1.9015,1.9144,1.9262,1.9736,1.9844,1.9844,1.9844,1.9844,1.9844,1.9844,1.9844,1.9844,1.9844,1.9844,1.9844,1.9844,1.9844,1.9844,1.9844,1.9844,1.9844,1.9844,1.9424,1.9338,1.9811,1.9413,1.9348,1.9822,1.9844,1.9908,2.0027,2.0027,2.0145,2.0382,2.0393,2.0447,2.0565,2.0673,2.0737,2.0737,2.0867,2.0856,0.0,0.0,0.0,0.0,0.0,0.0,0.0,0.0,1.9407,1.9499,1.9079,1.8617,1.8463,1.8477,1.9232,2.1002,2.0661,2.0859,2.2904,2.2178,2.1897,2.3031,2.4661,2.5235,2.394,2.481,2.4943,2.3645,2.3658,2.2781,2.0887,2.1349,2.0831,1.8735,2.0025,2.0059,1.8713,1.9467,1.9844,1.9844,1.9844,1.9844,1.9844,1.9844,1.9844,1.9854,1.9898,1.9919,1.9919,1.9962,1.9984,1.9984,1.9984,1.9984,1.9984,1.9941,1.9919,1.9919,1.9973,1.9984,1.9984,1.9984,1.9984,1.9984,1.9984,1.9456,1.8853,1.8853,1.8293,1.7873,1.8649,1.8853,1.9047,1.9801,1.9984,1.9984,1.9984,1.9984,1.9984,1.9984,1.9984,1.9984,1.9984,1.9984,1.9951,1.9865,1.9844,1.9844,1.9844,1.9844,1.9844,1.9844,1.9844,1.9865,1.9919,1.9919,1.9941,1.9984,1.9984,2.007,2.0274,2.0285,2.0393,2.063,2.063,2.0651,2.0705,2.0888,2.0974,2.0985,2.1179,2.1168,2.0496,1.9394,0.0,1.8622,1.9318,1.982,0.0,0.0,2.0638,1.9376,1.9259,1.9381,1.9598,1.9234,1.8987,1.9646,1.961,1.9741,2.0347,2.0252,2.0102,2.0402,2.1153,2.1613,2.1475,2.1026,2.0575,2.0436,2.0436,2.0285,1.9995,2.0145,2.0102,1.9693,1.994,1.994,1.9693,1.979,1.9844,1.9844,1.9844,1.9844,1.9844,1.9844,1.9844,1.9854,2.0081,2.0177,2.0188,2.0393,2.0479,2.0479,2.0479,2.0479,2.0457,2.0253,2.0177,2.0199,2.0414,2.0479,2.0479,2.0479,2.0479,2.0479,2.0479,2.0404,2.0328,2.0328,2.0242,2.0188,2.0296,2.0328,2.035,2.0457,2.0479,2.0479,2.0479,2.0479,2.0479,2.0479,2.0479,2.0479,2.0479,2.0479,2.0339,1.9908,1.9844,1.9844,1.9844,1.9844,1.9844,1.9844,1.9844,1.993,2.0156,2.0177,2.0264,2.0468,2.0479,2.049,2.0522,2.0522,2.063,2.0856,2.0867,2.0974,2.12,2.1222,2.1233,2.1243,2.1265,2.1265,2.13,0.0,0.0,0.0,2.0257,2.0724,2.036,2.0318,2.019,2.015,1.9529,1.9129,1.9382,1.891,1.8778,0.0,1.9262,1.9262,1.9779,1.9844,1.9844,1.9844,1.9654,1.9448,1.9448,1.9669,1.9618,1.9068,1.9531,1.9844,1.9844,1.9844,1.9844,1.9844,1.9844,1.9844,1.9844,1.9844,1.9844,1.9844,1.9844,1.9844,1.9854,1.9994,2.0134,2.0274,2.0371,2.0414,2.0425,2.0522,2.0565,2.0565,2.0565,2.0565,2.0554,2.0457,2.0414,2.0436,2.0533,2.0565,2.0565,2.0565,2.0565,2.0565,2.0565,2.0565,2.0565,2.0565,2.0565,2.0565,2.0565,2.0565,2.0565,2.0565,2.0565,2.0565,2.0565,2.0565,2.0565,2.0565,2.0565,2.0565,2.0565,2.0565,2.049,2.0296,2.0264,2.0264,2.0264,2.0264,2.0264,2.0264,2.0572,2.0615,2.0404,2.0725,2.0769,2.0554,2.0565,2.0619,2.0759,2.0759,2.0877,2.1114,2.1125,2.1179,2.1276,2.1276,2.1276,2.1276,2.1276,2.1276,2.1596,0.0,0.0,2.1227,2.0969,2.1295,2.1734,2.1131,2.0671,2.1285,2.039,1.9526,1.977,1.9249,1.8918,1.9499,1.9305,1.9262,1.9779,1.9844,1.9747,1.9488,1.8853,1.8229,1.7701,1.8745,1.9284,1.8853,1.9456,1.9844,1.9844,1.9844,1.9844,1.9844,1.9844,1.9844,1.9844,1.9844,1.9844,1.9844,1.9919,1.9951,1.9962,2.0199,2.0404,2.0565,2.063,2.0651,2.0662,2.0727,2.0759,2.0759,2.0759,2.0759,2.0759,2.0759,2.0716,2.0673,2.0737,2.0759,2.0759,2.0759,2.0759,2.0759,2.0759,2.0759,2.0759,2.0759,2.0759,2.0759,2.0759,2.0759,2.0759,2.0759,2.0759,2.0759,2.0759,2.0759,2.0759,2.0759,2.0759,2.0759,2.0759,2.0759,2.0759,2.0759,2.0759,2.0716,2.0576,2.0722,2.0722,2.0722,2.1023,2.1056,2.0965,2.0965,2.0998,2.0759,2.0759,2.0834,2.0996,2.1007,2.1093,2.1276,2.1276,2.1276,2.1276,2.1276,2.1276,2.1276,2.1276,2.1276,0.0,0.0,2.067,2.085,2.0946,2.1098,2.1645,2.2254,2.2728,2.2741,2.1969,2.1366,2.163,2.0501,1.9553,1.979,1.9822,1.9822,1.9844,1.9844,1.951,1.8584,1.8455,1.7712,0.0,1.7378,1.8842,1.9736,1.9833,1.9844,1.9844,1.9844,1.9844,1.9844,1.9844,1.9844,1.9844,1.9844,1.9844,1.9854,2.0091,2.0199,2.021,2.0447,2.0554,2.0576,2.0791,2.0888,2.091,2.1157,2.1254,2.1254,2.1254,2.1254,2.1254,2.1254,2.1103,2.0931,2.1168,2.1254,2.1254,2.1254,2.1254,2.1254,2.1254,2.1254,2.1254,2.1254,2.1254,2.1254,2.1254,2.1254,2.1254,2.1254,2.1254,2.1254,2.1254,2.1254,2.1254,2.1254,2.1254,2.1254,2.1254,2.1254,2.1254,2.1254,2.1254,2.1093,2.0619,2.0867,2.1179,2.1179,2.1179,2.1279,2.1512,2.1217,2.0996,2.1243,2.1254,2.1265,2.1265,2.1265,2.1265,2.1276,2.1276,2.1276,2.1276,2.1276,2.1276,2.1276,2.1276,2.1276,0.0,0.0,2.1847,2.1332,2.1347,2.1718,2.2367,2.2256,2.214,2.2075,2.0946,1.9912,1.9588,1.855,1.8078,1.8789,1.8379,1.8401,1.9671,1.8756,1.8315,1.9262,1.825,0.0,0.0,0.0,0.0,1.7981,1.9133,1.9844,1.9844,1.9844,1.9844,1.9844,1.9844,1.9844,1.9844,1.9844,1.993,2.0091,2.0328,2.0522,2.0673,2.0748,2.0877,2.1039,2.1125,2.1147,2.1157,2.1243,2.1276,2.1276,2.1276,2.1276,2.1276,2.1276,2.1222,2.1168,2.1254,2.1276,2.1276,2.1276,2.1276,2.1276,2.1276,2.1276,2.1276,2.1276,2.1276,2.1276,2.1276,2.1276,2.1276,2.1276,2.1276,2.1276,2.1276,2.1276,2.1276,2.1276,2.1276,2.1276,2.1276,2.1276,2.1276,2.1276,2.1599,2.1695,2.153,2.1508,2.1667,2.1667,2.1667,2.1541,2.1468,2.1468,2.1512,2.1276,2.1276,2.1276,2.1276,2.1276,2.1276,2.1276,2.1276,2.1276,2.1276,2.1276,2.1276,2.1276,2.1276,2.1276,2.3614,2.3286,2.3046,2.2471,2.2172,2.2112,2.2828,2.2691,2.2472,2.2626,2.1378,2.0074,1.9447,1.8336,1.7712,1.8336,1.7916,1.8067,1.9628,1.8789,1.8347,1.9241,1.8261,1.7863,0.0,0.0,0.0,1.7561,1.8649,1.9338,1.9338,1.9338,1.9499,1.9833,1.9844,1.9844,1.9844,1.993,2.0134,2.0457,2.0608,2.0813,2.1039,2.1039,2.0942,2.0791,2.1125,2.1082,2.0791,2.1136,2.1276,2.1276,2.1276,2.1276,2.1276,2.1276,2.1276,2.1276,2.1276,2.1276,2.1276,2.1276,2.1276,2.1276,2.1276,2.1276,2.1276,2.1276,2.1276,2.1276,2.1276,2.1276,2.1276,2.1276,2.1276,2.1276,2.1276,2.1276,2.1276,2.1276,2.1276,2.1276,2.1276,2.1276,2.1276,2.1276,2.1599,2.1922,2.1761,2.1761,2.1922,2.1922,2.1922,2.1761,2.1599,2.1599,2.1599,2.1276,2.1276,2.1276,2.1276,2.1276,2.1276,2.1276,2.1276,2.1276,2.1276,2.1276,2.1276,2.1276,2.1276,2.1276,2.5124,2.4684,2.3995,2.3983,2.3256,2.2664,2.3247,2.3554,2.3834,2.4062,2.2974,2.1764,0.0,0.0,1.825,1.8347,1.8326,1.8638,1.9639,1.9736,1.9391,0.0,0.0,0.0,0.0,0.0,0.0,1.8433,0.0,1.8509,1.8509,1.8509,1.8918,1.9822,1.9844,1.9854,1.9865,2.0124,2.0468,2.0899,2.092,2.105,2.1276,2.1276,2.078,1.9973,2.0888,2.0759,1.9994,2.0899,2.1276,2.1276,2.1276,2.1276,2.1276,2.1276,2.1276,2.1276,2.1276,2.1276,2.1276,2.1276,2.1276,2.1276,2.1276,2.1276,2.1276,2.1276,2.1276,2.1276,2.1276,2.1276,2.1276,2.1276,2.1276,2.1276,2.1276,2.1276,2.1276,2.1276,2.1276,2.1276,2.1276,2.1276,2.1276,2.1276,2.1599,2.1761,2.1438,2.1599,2.1922,2.1922,2.1922,2.1922,2.1922,2.1599,2.1276,2.1276,2.1276,2.1276,2.1276,2.1276,2.1276,2.1276,2.1276,2.1276,2.1276,2.1276,2.1276,2.1276,2.1276,2.1276,2.4386,2.4859,2.5616,2.5874,2.5143,2.4417,2.473,2.4371,2.3453,2.2164,2.1327,2.0079,0.0,0.0,0.0,1.7141,1.6775,0.0,1.8562,1.8175,0.0,1.8379,0.0,1.8616,1.9079,1.9348,0.0,0.0,1.909,1.9488,1.9488,1.9488,1.9596,1.9844,1.9844,1.993,2.0113,2.0522,2.078,2.091,2.1093,2.1211,2.1276,2.1276,2.1147,2.0931,2.1168,2.1136,2.0931,2.1179,2.1276,2.1276,2.1276,2.1276,2.1276,2.1276,2.1276,2.1276,2.1276,2.1276,2.1276,2.1276,2.1276,2.1276,2.1276,2.1276,2.1276,2.1276,2.1276,2.1276,2.1276,2.1276,2.1276,2.1276,2.1276,2.1276,2.1276,2.1276,2.1276,2.1276,2.1276,2.1276,2.1276,2.1276,2.1276,2.1276,2.1438,2.1599,2.1761,2.1922,2.1922,2.1922,2.1599,2.1438,2.1438,2.1438,2.1276,2.1276,2.1276,2.1276,2.1276,2.1276,2.1276,2.1276,2.1276,2.1276,2.1276,2.1276,2.1276,2.1276,2.1276,2.1276,2.6427,2.6742,2.7137,2.7419,2.6737,2.5859,2.5351,2.4535,2.3333,2.1746,2.055,0.0,0.0,0.0,0.0,0.0,0.0,0.0,1.8229,1.797,1.783,0.0,1.8433,0.0,1.9758,2.0447,2.0363,0.0,1.9165,1.923,1.923,1.923,1.9413,1.9833,1.9951,2.0167,2.0511,2.077,2.0963,2.1071,2.1211,2.1276,2.1276,2.1276,2.105,2.0673,0.0,2.1039,2.0684,2.1103,2.1276,2.1276,2.1276,2.1276,2.1276,2.1276,2.1276,2.1276,2.1276,2.1276,2.1276,2.1276,2.1276,2.1276,2.1276,2.1276,2.1276,2.1276,2.1276,2.1276,2.1276,2.1276,2.1276,2.1276,2.1276,2.1276,2.1276,2.1276,2.1276,2.1276,2.1276,2.1276,2.1276,2.1276,2.1276,2.1276,2.1276,2.1438,2.1599,2.1599,2.1599,2.1599,2.1438,2.1276,2.1276,2.1276,2.1276,2.1276,2.1276,2.1276,2.1276,2.1276,2.1276,2.1276,2.1276,2.1276,2.1276,2.1276,2.1276,2.1276,2.1276,2.1276,2.9171,2.8997,2.8608,2.8888,2.8196,2.7146,2.5993,2.4792,2.3532,2.2257,0.0,1.8957,1.7966,0.0,1.7265,1.7497,0.0,1.8012,1.8096,1.8272,1.839,1.8261,1.8358,1.881,1.9758,2.1061,2.1186,1.9984,1.909,1.8627,1.8627,1.8627,1.9015,1.9865,2.0167,2.05,2.0899,2.0931,2.106,2.1276,2.1276,2.1276,2.1276,2.1276,2.0823,2.0081,2.092,2.0802,2.0102,2.0931,2.1276,2.1276,2.1276,2.1276,2.1276,2.1276,2.1276,2.1276,2.1276,2.1276,2.1276,2.1276,2.1276,2.1276,2.1276,2.1276,2.1276,2.1276,2.1276,2.1276,2.1276,2.1276,2.1276,2.1276,2.1276,2.1276,2.1276,2.1276,2.1276,2.1276,2.1276,2.1276,2.1276,2.1276,2.1276,2.1276,2.1276,2.1276,2.1276,2.1276,2.1276,2.1276,2.1276,2.1276,2.1276,2.1276,2.1276,2.1276,2.1276,2.1276,2.1276,2.1276,2.1276,2.1276,2.1276,2.1276,2.1276,2.1276,2.1276,2.1276,2.1276,2.1276,2.8218,2.9242,3.0473,3.0473,2.9674,2.8821,2.8618,2.6712,0.0,0.0,0.0,2.0553,1.9126,1.8809,0.0,1.8456,0.0,0.0,0.0,0.0,1.8142,0.0,0.0,0.0,0.0,0.0,0.0,0.0,0.0,1.9607,1.9607,1.9607,1.9768,2.0134,2.0565,2.0823,2.0899,2.1103,2.1233,2.1276,2.1276,2.1276,2.1276,2.1276,2.119,2.1039,2.1211,0.0,2.1039,2.1211,2.1276,2.1276,2.1276,2.1276,2.1276,2.1276,2.1276,2.1276,2.1276,2.1276,2.1276,2.1276,2.1276,2.1276,2.1276,2.1276,2.1276,2.1276,2.1276,2.1276,2.1276,2.1276,2.1276,2.1276,2.1276,2.1276,2.1276,2.1276,2.1276,2.1276,2.1276,2.1276,2.1276,2.1276,2.1276,2.1276,2.1276,2.1276,2.1276,2.1276,2.1276,2.1276,2.1276,2.1276,2.1276,2.1276,2.1276,2.1276,2.1276,2.1276,2.1276,2.1276,2.1276,2.1276,2.1276,2.1276,2.1276,2.1276,2.1276,2.1276,2.1276,2.1276,2.8201,2.9297,3.1009,3.112,3.0732,2.9899,2.8286,0.0,0.0,0.0,0.0,1.9775,1.9089,0.0,0.0,0.0,0.0,0.0,0.0,0.0,0.0,0.0,0.0,0.0,0.0,0.0,0.0,0.0,0.0,2.2066,2.1153,2.2055,2.2688,2.2967,2.3356,2.3151,2.235,2.2487,2.2545,2.2545,2.2545,2.2545,2.2545,2.2545,2.2073,2.1276,2.2234,0.0,2.0559,2.1964,2.1693,2.0414,2.1039,2.1276,2.1276,2.1276,2.1276,2.1276,2.1276,2.1276,2.1276,2.1276,2.1276,2.1276,2.1276,2.1276,2.1276,2.1276,2.1276,2.1276,2.1276,2.1276,2.1276,2.1276,2.1276,2.1276,2.1276,2.1276,2.1276,2.1276,2.1276,2.1276,2.1276,2.1276,2.1276,2.1276,2.1276,2.1276,2.1276,2.1276,2.1276,2.1276,2.1276,2.1276,2.1276,2.1276,2.1276,2.1276,2.1276,2.1276,2.1276,2.1276,2.1276,2.1276,2.1276,2.1276,2.1276,2.1276,2.1276,2.1276,2.1276,2.1276,2.8782,2.9798,3.1009,3.1249,3.1377,3.0626,2.7746,2.626,0.0,0.0,0.0,1.9428,0.0,0.0,0.0,0.0,0.0,0.0,0.0,0.0,0.0,0.0,0.0,0.0,0.0,0.0,0.0,0.0,0.0,0.0,2.2769,2.4318,2.5211,2.5438,2.5798,2.5466,2.4283,2.4283,2.4283,2.4283,2.4283,2.4283,2.4283,2.4283,2.3644,2.2384,2.3804,0.0,0.0,2.2804,2.2113,1.9618,2.1276,2.1911,2.1911,2.2223,2.2384,2.2384,2.1911,2.1911,2.175,2.1438,2.1276,2.1276,2.1276,2.1276,2.1276,2.1276,2.1276,2.1276,2.1276,2.1276,2.1276,2.1276,2.1276,2.1276,2.1276,2.1276,2.1276,2.1276,2.1276,2.1276,2.1276,2.1276,2.1276,2.1276,2.1276,2.1276,2.1276,2.1276,2.1276,2.1276,2.1276,2.1276,2.1276,2.1276,2.1276,2.1276,2.1276,2.1276,2.1276,2.1276,2.1276,2.1276,2.1276,2.1276,2.1276,2.1276,2.1276,2.1276,2.1276,2.1276,2.9811,3.0771,3.1249,3.1009,3.112,3.0919,2.9159,0.0,0.0,0.0,2.2571,2.1532,2.166,0.0,0.0,0.0,0.0,2.182,0.0,0.0,0.0,0.0,0.0,0.0,0.0,0.0,0.0,0.0,0.0,0.0,2.4422,2.5104,2.5424,2.5451,2.5985,2.6293,2.6004,2.6004,2.6004,2.6004,2.6004,2.6004,2.6004,2.6004,2.6004,2.5846,2.6004,0.0,0.0,2.3261,2.2113,1.9767,2.2513,2.3496,2.3816,2.5212,2.5846,2.5687,2.4123,2.3496,2.3336,2.175,2.1276,2.1276,2.1276,2.1276,2.1276,2.1276,2.1276,2.1276,2.1276,2.1276,2.1276,2.1276,2.1276,2.1276,2.1276,2.1276,2.1276,2.1276,2.1276,2.1276,2.1276,2.1276,2.1276,2.1276,2.1276,2.1276,2.1276,2.1276,2.1276,2.1276,2.1276,2.1276,2.1276,2.1276,2.1276,2.1276,2.1276,2.1276,2.1276,2.1276,2.1276,2.1276,2.1276,2.1276,2.1276,2.1276,2.1276,2.1276,2.1276,2.1276,2.7529,2.9277,3.1377,3.1009,3.112,3.0699,2.8132,0.0,0.0,2.3235,2.219,2.1753,2.1813,2.1825,0.0,0.0,2.3995,0.0,0.0,0.0,0.0,0.0,0.0,0.0,0.0,0.0,0.0,0.0,0.0,0.0,2.7475,2.7985,2.8342,2.8342,2.8981,2.8856,2.7905,2.7905,2.7905,2.7905,2.7905,2.7905,2.7905,2.7905,2.7264,2.6319,2.7421,0.0,0.0,2.5509,2.4494,2.1254,2.4189,2.5384,2.5225,2.4907,2.4748,2.4589,2.2866,2.2234,2.2234,2.1599,2.1276,2.1276,2.1276,2.1276,2.1276,2.1276,2.1276,2.1276,2.1276,2.1276,2.1276,2.1276,2.1276,2.1276,2.1276,2.1276,2.1276,2.1276,2.1276,2.1276,2.1276,2.1276,2.1276,2.1276,2.1276,2.1276,2.1276,2.1276,2.1276,2.1276,2.1276,2.1276,2.1276,2.1276,2.1276,2.1276,2.1276,2.1276,2.1276,2.1276,2.1276,2.1276,2.1276,2.1276,2.1276,2.1276,2.1276,2.1276,2.1276,2.1276,2.6434,2.8805,3.1377,3.0732,3.0646,2.9947,0.0,0.0,0.0,2.23,2.1731,2.1731,2.1731,2.1731,2.2355,2.428,2.5032,2.6226,0.0,0.0,0.0,0.0,0.0,0.0,0.0,0.0,0.0,0.0,0.0,0.0,2.9504,3.0242,3.0611,3.0315,3.1014,3.0763,2.9649,2.9649,2.9649,2.9649,2.9649,2.9393,2.8927,2.9423,2.8747,2.7072,2.8961,0.0,0.0,2.7415,2.6495,2.2983,2.5951,2.7107,2.6949,2.6333,2.6017,2.5872,2.4123,2.3496,2.3496,2.3015,2.2384,2.2073,2.2073,2.1761,2.1276,2.1276,2.1276,2.1276,2.1276,2.1276,2.1276,2.1276,2.1276,2.1276,2.1276,2.1276,2.1276,2.1276,2.1276,2.1276,2.1276,2.1276,2.1276,2.1276,2.1276,2.1276,2.1276,2.1276,2.1276,2.1276,2.1276,2.1276,2.1276,2.1276,2.1276,2.1276,2.1276,2.1276,2.1276,2.1276,2.1276,2.1276,2.1276,2.1276,2.1276,2.1276,2.1276,2.1276,2.1276,2.1319,2.803,3.0025,3.1525,3.0213,2.9422,2.8454,0.0,0.0,0.0,2.208,2.1731,2.1731,2.1731,2.1731,2.2263,2.3895,2.4849,2.5931,2.7563,0.0,0.0,0.0,0.0,0.0,0.0,0.0,0.0,0.0,0.0,0.0,3.0409,3.1119,3.1072,3.0315,3.1014,3.1395,3.1395,3.1395,3.1395,3.1395,3.1395,3.0473,2.8853,3.0601,3.0442,2.8885,0.0,0.0,0.0,2.8335,2.7136,2.4856,2.7755,2.8856,2.9012,3.0763,3.1395,3.1071,2.9323,2.8856,2.8544,2.6792,2.5066,2.3816,2.3816,2.2545,2.1276,2.1276,2.1276,2.1276,2.1276,2.1276,2.1276,2.1276,2.1276,2.1276,2.1276,2.1276,2.1276,2.1276,2.1276,2.1276,2.1276,2.1276,2.1276,2.1276,2.1276,2.1276,2.1276,2.1276,2.1276,2.1276,2.1276,2.1276,2.1276,2.1276,2.1276,2.1276,2.1276,2.1276,2.1276,2.1276,2.1276,2.1276,2.1276,2.1276,2.1276,2.1276,2.1276,2.1276,2.1276,2.1405,2.5108,2.6645,2.7998,2.6918,2.6893,2.6664,2.4855,0.0,0.0,0.0,0.0,0.0,2.1482,2.166,2.2263,2.3895,2.4831,2.6316,2.9048,0.0,0.0,0.0,0.0,0.0,0.0,0.0,0.0,0.0,0.0,0.0,3.1209,3.1989,3.1645,3.0315,3.1014,3.1395,3.1395,3.1395,3.1395,3.1395,3.1395,3.0473,2.8821,3.0585,3.0426,0.0,0.0,0.0,0.0,2.9895,2.9436,2.7636,2.9775,3.0593,3.0593,2.9959,2.9649,2.9479,2.7748,2.7107,2.7107,2.6477,2.6004,2.5529,2.5529,2.3484,2.1276,2.1276,2.1276,2.1276,2.1276,2.1276,2.1276,2.1276,2.1276,2.1276,2.1276,2.1276,2.1276,2.1276,2.1276,2.1276,2.1276,2.1276,2.1276,2.1276,2.1276,2.1276,2.1276,2.1276,2.1276,2.1276,2.1276,2.1276,2.1276,2.1276,2.1276,2.1276,2.1276,2.1276,2.1276,2.1276,2.1276,2.1276,2.1276,2.1276,2.1276,2.1276,2.1276,2.1276,2.1437,2.1631,0.0,2.5533,2.6791,2.5679,2.5343,0.0,0.0,0.0,0.0,0.0,0.0,0.0,0.0,2.2062,2.2685,2.2777,2.4739,2.6664,2.7765,0.0,0.0,0.0,0.0,0.0,0.0,0.0,0.0,0.0,0.0,0.0,3.1913,3.2711,3.2543,3.1203,3.162,3.184,3.184,3.1533,3.1395,3.1395,3.1395,3.0473,2.8821,3.0585,3.0426,0.0,0.0,0.0,0.0,3.0934,3.0743,2.987,3.0966,3.1395,3.1241,3.0284,2.9804,2.9649,2.853,2.8218,2.8218,2.8218,2.7734,2.7107,2.6477,2.443,2.2234,2.2234,2.175,2.1276,2.1276,2.1276,2.1276,2.1276,2.1276,2.1276,2.1276,2.1276,2.1276,2.1276,2.1276,2.1276,2.1276,2.1276,2.1276,2.1276,2.1276,2.1276,2.1276,2.1276,2.1276,2.1276,2.1276,2.1276,2.1276,2.1276,2.1276,2.1276,2.1276,2.1276,2.1276,2.1276,2.1276,2.1276,2.1276,2.1276,2.1276,2.1276,2.1319,2.1405,2.1556,2.1793,0.0,0.0,0.0,0.0,0.0,0.0,0.0,0.0,0.0,0.0,0.0,0.0,0.0,0.0,2.3547,2.1163,2.4684,2.694,2.4684,0.0,0.0,0.0,0.0,0.0,0.0,0.0,0.0,0.0,0.0,0.0,3.2806,3.3429,3.3564,3.2836,3.281,3.274,3.2757,3.1993,3.1485,3.1357,3.1485,3.0559,2.8646,3.0537,3.0426,0.0,0.0,0.0,0.0,3.1395,3.1395,3.1395,3.1395,3.1395,3.1395,3.1395,3.1395,3.1395,3.1395,3.1395,3.1395,3.1395,3.0284,2.87,2.6949,2.5225,2.3816,2.3816,2.2545,2.1276,2.1276,2.1276,2.1276,2.1276,2.1276,2.1276,2.1276,2.1276,2.1276,2.1276,2.1276,2.1276,2.1276,2.1276,2.1276,2.1276,2.1276,2.1276,2.1276,2.1276,2.1276,2.1276,2.1276,2.1276,2.1276,2.1276,2.1276,2.1276,2.1276,2.1276,2.1276,2.1276,2.1276,2.1276,2.1276,2.1276,2.1276,2.1276,2.1394,2.162,2.1631,2.1889,2.3722,0.0,2.3522,2.2774,0.0,0.0,0.0,0.0,0.0,0.0,0.0,0.0,0.0,0.0,2.4981,2.3293,2.5459,2.7123,2.6536,0.0,0.0,0.0,0.0,0.0,0.0,0.0,0.0,0.0,0.0,3.3678,3.3521,3.4303,3.4595,3.4451,3.4451,3.4105,3.35,3.3348,3.2193,3.0381,3.1628,3.0341,2.6867,2.9981,3.0426,0.0,0.0,0.0,3.1395,3.1395,3.1395,3.1395,3.1395,3.1395,3.1395,3.1395,3.1395,3.1395,3.1395,3.1395,3.1395,3.1395,3.1071,3.0438,2.8856,2.6175,2.3816,2.3816,2.2545,2.1276,2.1276,2.1276,2.1276,2.1276,2.1276,2.1276,2.1276,2.1276,2.1276,2.1276,2.1276,2.1276,2.1276,2.1276,2.1276,2.1276,2.1276,2.1276,2.1276,2.1276,2.1276,2.1276,2.1276,2.1276,2.1276,2.1276,2.1276,2.1276,2.1276,2.1276,2.1276,2.1276,2.1276,2.1276,2.1276,2.1276,2.1276,2.1276,2.1394,2.162,2.1814,2.2062,2.3614,2.3349,2.3038,2.3149,2.2704,0.0,0.0,0.0,0.0,0.0,0.0,0.0,0.0,0.0,0.0,2.3881,2.513,2.6463,0.0,0.0,0.0,0.0,0.0,0.0,0.0,0.0,0.0,0.0,0.0,3.3817,3.3817,3.4587,3.5027,3.5027,3.5356,3.5157,3.4406,3.3954,3.2697,3.0455,3.1861,3.0827,2.7842,3.0303,3.0871,0.0,0.0,0.0,3.1331,3.0521,3.0569,3.1172,3.1331,3.1284,3.1172,3.1331,3.1395,3.1395,3.1395,3.1395,3.1395,3.1395,3.1395,3.1225,3.0284,2.8232,2.5859,2.4295,2.2545,2.1276,2.1276,2.1276,2.1276,2.1276,2.1276,2.1276,2.1276,2.1276,2.1276,2.1276,2.1276,2.1276,2.1276,2.1276,2.1276,2.1276,2.1276,2.1276,2.1276,2.1276,2.1276,2.1276,2.1276,2.1276,2.1276,2.1276,2.1276,2.1276,2.1276,2.1276,2.1276,2.1276,2.1276,2.1276,2.1276,2.1276,2.1276,2.1383,2.1556,2.1782,2.2029,2.2277,2.3867,2.3887,2.4088,2.4909,2.4089,0.0,0.0,0.0,0.0,0.0,0.0,0.0,0.0,0.0,0.0,0.0,0.0,0.0,0.0,0.0,0.0,0.0,0.0,0.0,0.0,0.0,0.0,0.0,0.0,3.3817,3.3817,3.4587,3.5027,3.5027,3.5797,3.5903,3.5157,3.4556,3.3137,3.1011,3.2305,3.1926,2.993,3.1183,3.184,3.1606,0.0,0.0,3.1574,3.0211,3.0308,3.142,3.1727,3.151,3.1118,3.1437,3.1549,3.1395,3.1395,3.1395,3.1395,3.1395,3.1395,3.1395,3.1071,2.9959,2.8218,2.5079,2.3027,2.1599,2.1438,2.1276,2.1276,2.1276,2.1276,2.1276,2.1276,2.1276,2.1276,2.1276,2.1276,2.1276,2.1276,2.1276,2.1276,2.1276,2.1276,2.1276,2.1276,2.1276,2.1276,2.1276,2.1276,2.1276,2.1276,2.1276,2.1276,2.1276,2.1276,2.1276,2.1276,2.1276,2.1276,2.1276,2.1276,2.1297,2.133,2.1523,2.176,2.2029,2.2234,2.246,2.4219,2.4316,2.4551,2.5392,2.4371,0.0,0.0,0.0,0.0,0.0,0.0,0.0,0.0,0.0,0.0,0.0,0.0,0.0,0.0,0.0,0.0,0.0,0.0,0.0,0.0,0.0,0.0,0.0,0.0,3.3817,3.3817,3.4587,3.5027,3.5027,3.5797,3.6201,3.6052,3.5903,3.4613,3.2134,3.3792,3.3395,3.1046,3.2634,3.35,3.3483,0.0,3.3228,3.3483,3.3194,3.3211,3.3415,3.3483,3.3011,3.2369,3.2419,3.1993,3.1395,3.1395,3.1395,3.1395,3.1395,3.1395,3.1071,2.9649,2.9168,2.853,2.6477,2.4748,2.3027,2.1599,2.1276,2.1276,2.1276,2.1276,2.1276,2.1276,2.1276,2.1276,2.1276,2.1276,2.1276,2.1276,2.1276,2.1276,2.1276,2.1276,2.1276,2.1276,2.1276,2.1276,2.1276,2.1276,2.1276,2.1276,2.1276,2.1276,2.1276,2.1276,2.1276,2.1276,2.1276,2.1276,2.1276,2.1276,2.1373,2.1566,2.1599,2.1846,2.2277,2.232,2.246,2.4648,2.459,2.4902,2.6953,2.5761,0.0,0.0,0.0,0.0,0.0,0.0,0.0,0.0,0.0,0.0,0.0,0.0,0.0,0.0,0.0,0.0,0.0,0.0,0.0,0.0,0.0,0.0,0.0,0.0,0.0,3.326,3.3961,3.4521,3.4721,3.5431,3.5999,3.6201,3.6201,3.5066,3.2838,3.4376,3.3833,3.1738,3.3076,3.3802,3.3751,0.0,3.3008,3.3717,3.2836,3.2904,3.3511,3.3717,3.3532,3.3078,3.3129,3.3044,3.274,3.274,3.2452,3.1993,3.1993,3.1686,3.1225,3.0438,3.0284,2.9959,2.8218,2.5859,2.3656,2.2866,2.1911,2.1276,2.1276,2.1276,2.1276,2.1276,2.1276,2.1276,2.1276,2.1276,2.1276,2.1276,2.1276,2.1276,2.1276,2.1276,2.1276,2.1276,2.1276,2.1276,2.1276,2.1276,2.1276,2.1276,2.1276,2.1276,2.1276,2.1276,2.1276,2.1276,2.1276,2.1276,2.1276,2.1405,2.1513,2.162,2.1879,2.2116,2.2342,2.246,2.2579,2.498,2.4824,2.5176,0.0,0.0,0.0,0.0,0.0,0.0,0.0,0.0,0.0,0.0,0.0,0.0,0.0,0.0,0.0,0.0,0.0,0.0,0.0,0.0,0.0,0.0,0.0,0.0,0.0,0.0,0.0,3.2701,3.3498,3.4036,3.4415,3.5267,3.5797,3.6201,3.6201,3.5449,3.3945,3.4884,3.4519,3.2948,3.3874,3.4406,3.4319,3.2981,3.3191,3.4284,3.2946,3.3033,3.3988,3.4284,3.4064,3.3707,3.385,3.3802,3.3802,3.3802,3.3348,3.2892,3.2892,3.2452,3.1993,3.1686,3.1686,3.1379,2.9959,2.7278,2.492,2.4442,2.3496,2.2545,2.2545,2.2223,2.1911,2.1911,2.1599,2.1276,2.1276,2.1276,2.1276,2.1276,2.1276,2.1276,2.1276,2.1276,2.1276,2.1276,2.1276,2.1276,2.1276,2.1276,2.1276,2.1276,2.1276,2.1276,2.1276,2.1276,2.1276,2.1276,2.1276,2.1308,2.1362,2.1534,2.1674,2.1793,2.2159,2.2363,2.2417,2.26,2.2686,2.5059,2.5039,0.0,0.0,0.0,0.0,0.0,0.0,0.0,0.0,0.0,0.0,0.0,0.0,0.0,0.0,0.0,0.0,0.0,0.0,0.0,0.0,0.0,0.0,0.0,0.0,0.0,0.0,0.0,0.0,3.2701,3.3498,3.4036,3.4415,3.5267,3.5797,3.6201,3.6201,3.6127,3.5999,3.6146,3.5979,3.5851,3.5997,3.6052,3.6052,3.5906,3.5924,3.6052,3.5906,3.5906,3.6015,3.6052,3.5587,3.4822,3.4087,3.3802,3.3802,3.3802,3.3802,3.3651,3.3651,3.3651,3.35,3.274,3.2435,3.2299,3.1533,2.9959,2.8218,2.6477,2.6004,2.6004,2.6004,2.4748,2.3656,2.3656,2.2384,2.1276,2.1276,2.1276,2.1276,2.1276,2.1276,2.1276,2.1276,2.1276,2.1276,2.1276,2.1276,2.1276,2.1276,2.1276,2.1276,2.1276,2.1276,2.1276,2.1276,2.1276,2.1276,2.1276,2.1276,2.1373,2.1588,2.1609,2.1836,2.2288,2.232,2.2449,2.2665,2.2675,2.2686,2.5,2.4863,0.0,0.0,0.0,0.0,0.0,0.0,0.0,0.0,0.0,0.0,0.0,0.0,0.0,0.0,0.0,0.0,0.0,0.0,0.0,0.0,0.0,0.0,0.0,0.0,0.0,0.0,0.0,0.0,3.1999,3.2703,3.35,3.4126,3.4885,3.5559,3.6201,3.6201,3.6201,3.6201,3.6201,3.6201,3.6201,3.6201,3.6201,3.6201,3.6201,3.6201,3.6201,3.6201,3.6201,3.6201,3.6201,3.6052,3.5754,3.5456,3.5306,3.5306,3.5306,3.5007,3.4556,3.4556,3.3802,3.3044,3.274,3.2299,3.184,3.1549,3.0917,3.0114,2.8374,2.7107,2.6319,2.6319,2.5846,2.5066,2.3976,2.3336,2.2545,2.1438,2.1276,2.1276,2.1276,2.1276,2.1276,2.1276,2.1276,2.1276,2.1276,2.1276,2.1276,2.1276,2.1276,2.1276,2.1276,2.1276,2.1276,2.1276,2.1276,2.134,2.148,2.1491,2.1599,2.1836,2.1986,2.2159,2.2331,2.2482,2.26,2.2686,2.2686,2.2686,2.4863,2.4746,0.0,0.0,0.0,0.0,0.0,0.0,0.0,0.0,0.0,0.0,0.0,0.0,0.0,0.0,0.0,0.0,0.0,0.0,0.0,0.0,0.0,0.0,0.0,0.0,0.0,0.0,0.0,0.0,0.0,3.2123,3.2914,3.3819,3.4433,3.5267,3.6201,3.6201,3.6201,3.6201,3.6201,3.6201,3.6201,3.6201,3.6201,3.6201,3.6201,3.6201,3.6201,3.6201,3.6201,3.6201,3.6201,3.6201,3.6201,3.6201,3.6201,3.6201,3.6201,3.5903,3.5456,3.5456,3.4707,3.3651,3.35,3.274,3.2146,3.184,3.1533,3.1071,2.9959,2.8842,2.7891,2.7891,2.7577,2.6792,2.57,2.4602,2.3496,2.2234,2.1599,2.1276,2.1276,2.1276,2.1276,2.1276,2.1276,2.1276,2.1276,2.1276,2.1276,2.1276,2.1276,2.1276,2.1276,2.1276,2.1308,2.1383,2.1383,2.1459,2.1609,2.1685,2.1846,2.2072,2.2245,2.2374,2.2449,2.26,2.2686,2.2686,2.2686,2.2686,2.4668,0.0,0.0,0.0,0.0,0.0,0.0,0.0,0.0,0.0,0.0,0.0,0.0,0.0,0.0,0.0,0.0,0.0,0.0,0.0,0.0,0.0,0.0,0.0,0.0,0.0,0.0,0.0,0.0,0.0,0.0,3.1982,3.2596,3.3819,3.4288,3.5103,3.6201,3.6201,3.6201,3.6201,3.6201,3.6201,3.6201,3.6201,3.6201,3.6201,3.6201,3.6201,3.6201,3.6201,3.6201,3.6201,3.6201,3.6201,3.6201,3.6201,3.6201,3.6201,3.6201,3.6201,3.6201,3.6201,3.6201,3.6052,3.5306,3.4406,3.3651,3.2892,3.1993,3.1395,3.1395,3.1395,3.1395,3.1395,3.0129,2.8856,2.8856,2.6175,2.3816,2.3816,2.2545,2.1276,2.1276,2.1276,2.1276,2.1276,2.1276,2.1276,2.1276,2.1276,2.1276,2.1276,2.1276,2.1276,2.1276,2.1276,2.1373,2.1609,2.162,2.162,2.162,2.1846,2.2083,2.2331,2.2342,2.2449,2.2686,2.2686,2.2686,2.2686,2.2686,2.2686,2.5625,0.0,0.0,0.0,0.0,0.0,0.0,0.0,0.0,0.0,0.0,0.0,0.0,0.0,0.0,0.0,0.0,0.0,0.0,0.0,0.0,0.0,0.0,0.0,0.0,0.0,0.0,0.0,0.0,0.0,0.0,3.1982,3.2596,3.3819,3.4288,3.5103,3.6201,3.6201,3.6201,3.6201,3.6201,3.6201,3.6201,3.6201,3.6201,3.6201,3.6201,3.6201,3.6201,3.6201,3.6201,3.6201,3.6201,3.6201,3.6201,3.6201,3.6201,3.6201,3.6201,3.6201,3.6201,3.6201,3.5754,3.5306,3.5007,3.4406,3.3802,3.35,3.3196,3.3044,3.3044,3.3044,3.274,3.1702,3.1071,3.0284,2.9168,2.8061,2.6963,2.5846,2.4283,2.3027,2.3027,2.2073,2.1276,2.1276,2.1276,2.1276,2.1276,2.1276,2.1276,2.1276,2.1276,2.134,2.1502,2.1513,2.162,2.1846,2.2029,2.2126,2.2126,2.2191,2.2342,2.2579,2.2579,2.2611,2.2686,2.2686,2.2686,2.2686,2.2686,2.2686,0.0,0.0,0.0,0.0,0.0,0.0,0.0,0.0,0.0,0.0,0.0,0.0,0.0,0.0,0.0,0.0,0.0,0.0,0.0,0.0,0.0,0.0,0.0,0.0,0.0,0.0,0.0,0.0,0.0,0.0,0.0,3.1841,3.2471,3.3819,3.4144,3.4957,3.6201,3.6201,3.6201,3.6201,3.6201,3.6201,3.6201,3.6201,3.6201,3.6201,3.6201,3.6201,3.6201,3.6201,3.6201,3.6201,3.6201,3.6201,3.6201,3.6201,3.6201,3.6201,3.6201,3.6201,3.6201,3.6201,3.5903,3.5456,3.5456,3.4857,3.4255,3.4255,3.4105,3.3802,3.3802,3.3802,3.35,3.2588,3.2299,3.1977,3.0732,2.9774,2.8827,2.6621,2.4907,2.3656,2.2866,2.1911,2.1276,2.1276,2.1276,2.1276,2.1276,2.1362,2.1416,2.1416,2.1491,2.1609,2.1749,2.176,2.1857,2.2094,2.2256,2.2374,2.2471,2.2471,2.2535,2.2675,2.2686,2.2686,2.2686,2.2686,2.2686,2.2686,2.2686,2.2686,0.0,0.0,0.0,0.0,0.0,0.0,0.0,0.0,0.0,0.0,0.0,0.0,0.0,0.0,0.0,0.0,0.0,0.0,0.0,0.0,0.0,0.0,0.0,0.0,0.0,0.0,0.0,0.0,0.0,0.0,0.0,3.1559,3.2312,3.3765,3.3836,3.4648,3.6146,3.6182,3.6201,3.6201,3.6201,3.6201,3.6201,3.6201,3.6201,3.6201,3.6201,3.6201,3.6201,3.6201,3.6201,3.6201,3.6201,3.6201,3.6201,3.6201,3.6201,3.6201,3.6201,3.6201,3.6201,3.6201,3.6201,3.6201,3.6201,3.5754,3.5157,3.5157,3.4556,3.3954,3.3954,3.3954,3.3954,3.3954,3.3954,3.3651,3.2892,3.1485,2.9743,2.725,2.5371,2.3656,2.1945,2.147,2.1319,2.134,2.134,2.134,2.134,2.1523,2.1653,2.1653,2.1836,2.1976,2.1997,2.1997,2.2105,2.2352,2.2363,2.246,2.2675,2.2686,2.2686,2.2686,2.2686,2.2686,2.2686,2.2686,2.2686,2.2686,2.2686,2.2686,0.0,0.0,0.0,0.0,0.0,0.0,0.0,0.0,0.0,0.0,0.0,0.0,0.0,0.0,0.0,0.0,0.0,0.0,0.0,0.0,0.0,0.0,0.0,0.0,0.0,0.0,0.0,0.0,0.0,0.0,3.1559,3.1559,3.2208,3.3393,3.3406,3.4231,3.5742,3.5758,3.5903,0.0,3.6201,3.6201,3.6201,3.6201,3.6201,3.6201,3.6201,3.6201,3.6201,3.6201,3.6201,3.6201,3.6201,3.6201,3.6201,3.6201,3.6201,3.6201,3.6201,3.6201,3.6201,3.6201,3.6201,3.6201,3.6201,3.6052,3.5903,3.5903,3.5754,3.5605,3.5605,3.5605,3.5605,3.5605,3.4707,3.3802,3.3651,3.3331,3.2402,3.0546,2.8331,2.6215,2.4727,2.2841,2.1609,2.1793,2.1814,2.1814,2.1814,2.1857,2.1889,2.1889,2.1943,2.2051,2.2234,2.2256,2.2352,2.2589,2.2611,2.2632,2.2675,2.2686,2.2686,2.2686,2.2686,2.2686,2.2686,2.2686,2.2686,2.2686,2.2686,2.2686,0.0,0.0,0.0,0.0,0.0,0.0,0.0,0.0,0.0,0.0,0.0,0.0,0.0,0.0,0.0,0.0,0.0,0.0,0.0,0.0,0.0,0.0,0.0,0.0,0.0,0.0,0.0,0.0,0.0,3.1559,3.1559,3.1559,3.2014,3.2984,3.3208,3.3886,3.5321,3.5258,3.5456,3.5903,3.5903,3.6052,3.6201,3.6201,3.6201,3.6201,3.6201,3.6201,3.6201,3.6201,3.6201,3.6201,3.6201,3.6201,3.6201,3.6201,3.6201,3.6201,3.6201,3.6201,3.6201,3.6201,3.6201,3.6201,3.6201,3.6201,3.6201,3.6201,3.6201,3.6201,3.6201,3.6201,3.6256,3.6457,3.5749,3.491,3.465,3.4685,3.3788,3.0511,2.8935,2.7067,2.4196,2.2609,2.2002,2.261,2.2299,2.2299,2.3132,2.2576,2.2305,2.281,2.2572,2.2533,2.3176,2.3187,2.3243,2.3365,2.3709,2.3537,2.2686,2.3537,2.3537,2.2686,2.2686,2.2686,2.2686,2.2686,2.2686,2.2686,2.2686,2.2686,0.0,0.0,0.0,0.0,0.0,0.0,0.0,0.0,0.0,0.0,0.0,0.0,0.0,0.0,0.0,0.0,0.0,0.0,0.0,0.0,0.0,0.0,0.0,0.0,0.0,0.0,0.0,0.0,0.0,3.17,3.1841,3.17,3.1997,3.2736,3.3029,3.3868,3.5084,3.4943,3.5157,3.5605,3.5605,3.5754,3.6201,3.6201,3.6201,3.6201,3.6201,3.6201,3.6201,3.6201,3.6201,3.6201,3.6201,3.6201,3.6201,3.6201,3.6201,3.6201,3.6201,3.6201,3.6201,3.6201,3.6201,3.6201,3.6201,3.6201,3.6201,3.6201,3.6201,3.6201,3.6201,3.6201,3.6311,3.6732,3.6567,3.6271,3.5932,3.5869,3.4676,3.049,2.8987,2.7405,2.3665,2.2732,2.2777,2.3591,2.3089,2.3089,2.4603,2.3618,2.3065,2.3902,2.3585,2.3537,2.4235,2.4407,2.4407,2.4407,2.5068,2.4726,2.3193,2.4555,2.4555,2.3031,2.2859,2.2859,2.2686,2.2686,2.2686,2.2686,2.2686,2.2686,0.0,0.0,0.0,0.0,0.0,0.0,0.0,0.0,0.0,0.0,0.0,0.0,0.0,0.0,0.0,0.0,0.0,0.0,0.0,0.0,0.0,0.0,0.0,0.0,0.0,0.0,0.0,0.0,3.2403,3.1841,3.2526,3.1982,3.1876,3.265,3.2763,3.3436,3.4974,3.467,3.4875,3.5605,3.5605,3.5754,3.6201,3.6201,3.6201,3.6201,3.6201,3.6201,3.6201,3.6201,3.6201,3.6201,3.6201,3.6201,3.6201,3.6201,3.6201,3.6201,3.6201,3.6201,3.6201,3.6201,3.6201,3.6201,3.6201,3.6201,3.6201,3.6201,3.6201,3.6201,3.6201,3.6201,3.6311,3.6732,3.6787,3.6861,3.7111,3.7184,3.6569,3.4552,3.1289,2.8551,2.7218,2.5793,2.4961,2.5131,2.4961,2.4961,2.5301,2.5167,2.502,2.5191,2.5044,2.5068,2.5239,2.5239,2.5239,2.5239,2.5409,2.5239,2.5068,2.5239,2.4897,2.3892,2.3892,2.3548,2.2686,2.2686,2.2686,2.2686,2.2686,2.2686,0.0,0.0,0.0,0.0,0.0,0.0,0.0,0.0,0.0,0.0,0.0,0.0,0.0,0.0,0.0,0.0,0.0,0.0,0.0,0.0,0.0,0.0,0.0,0.0,0.0,0.0,0.0,0.0,3.3103,3.2403,3.2666,3.1982,3.17,3.214,3.2234,3.2902,3.3999,3.3831,3.4214,3.5306,3.5306,3.5605,3.6201,3.6201,3.6201,3.6201,3.6201,3.6201,3.6201,3.6201,3.6201,3.6201,3.6201,3.6201,3.6201,3.6201,3.6201,3.6201,3.6201,3.6201,3.6201,3.6201,3.6201,3.6201,3.6201,3.6201,3.6201,3.6201,3.6201,3.6201,3.6201,3.6384,3.6659,3.7062,3.7338,3.7613,3.8016,3.7924,3.7174,3.5129,3.139,2.837,2.7856,2.6487,2.558,2.6103,2.575,2.575,2.677,2.6091,2.558,2.6103,2.575,2.558,2.6103,2.6103,2.6103,2.6103,2.6613,2.6431,2.5409,2.6431,2.6261,2.4909,2.4407,2.372,2.2686,2.2686,2.2686,2.2686,2.2686,2.2686,0.0,0.0,0.0,0.0,0.0,0.0,0.0,0.0,0.0,0.0,0.0,0.0,0.0,0.0,0.0,0.0,0.0,0.0,0.0,0.0,0.0,0.0,0.0,0.0,0.0,0.0,0.0,0.0,3.3798,3.3085,3.3224,3.2544,3.2123,3.1982,3.2221,3.2746,3.3419,3.3465,3.3995,3.4857,3.5007,3.5306,3.6052,3.6201,3.6201,3.6201,3.6201,3.6201,3.6201,3.6201,3.6201,3.6201,3.6201,3.6201,3.6201,3.6201,3.6201,3.6201,3.6201,3.6201,3.6201,3.6201,3.6201,3.6201,3.6201,3.6201,3.6201,3.6201,3.6201,3.6201,3.6201,3.6531,3.6934,3.7338,3.7723,3.8126,3.8548,3.8401,3.7607,3.6086,3.2679,3.0036,3.0036,2.8238,2.6927,2.7786,2.677,2.6601,2.7968,2.694,2.6431,2.7122,2.6613,2.6431,2.7122,2.7122,2.7122,2.7122,2.7799,2.763,2.6091,2.7461,2.7461,2.575,2.508,2.4395,2.3365,2.3365,2.3365,2.3365,2.3365,2.3365,0.0,0.0,0.0,0.0,0.0,0.0,0.0,0.0,0.0,0.0,0.0,0.0,0.0,0.0,0.0,0.0,0.0,0.0,0.0,0.0,0.0,0.0,0.0,0.0,0.0,0.0,0.0,0.0,3.4646,3.4094,3.4784,3.4094,3.3539,3.3121,3.3056,3.3321,3.3872,3.4189,3.4423,3.4441,3.4857,3.5157,3.5605,3.6052,3.6201,3.6201,3.6201,3.6201,3.6201,3.6201,3.6201,3.6201,3.6201,3.6201,3.6201,3.6201,3.6201,3.6201,3.6201,3.6201,3.6201,3.6201,3.6201,3.6201,3.6201,3.6201,3.6201,3.6201,3.6201,3.6201,3.6201,3.6531,3.6934,3.7338,3.7723,3.8126,3.8548,3.8621,3.8463,3.8463,3.6815,3.5655,3.5655,3.2741,3.0622,3.0622,2.9132,2.8136,2.8136,2.8136,2.8136,2.8136,2.8136,2.8136,2.8136,2.815,2.815,2.815,2.8136,2.8136,2.8136,2.8136,2.7799,2.6783,2.6626,2.6273,2.5239,2.5239,2.5239,2.5239,2.5239,2.5239,0.0,0.0,0.0,0.0,0.0,0.0,0.0,0.0,0.0,0.0,0.0,0.0,0.0,0.0,0.0,0.0,0.0,0.0,0.0,0.0,0.0,0.0,0.0,0.0,0.0,0.0,0.0,0.0,0.0,3.3237,3.4846,3.2855,3.2326,3.3484,3.3088,3.2913,3.3127,3.35,3.3897,3.4441,3.4875,3.5157,3.5605,3.6052,3.6201,3.6201,3.6201,3.6201,3.6201,3.6201,3.6201,3.6201,3.6201,3.6201,3.6201,3.6201,3.6201,3.6201,3.6201,3.6201,3.6201,3.6201,3.6201,3.6201,3.6201,3.6201,3.6201,3.6201,3.6201,3.6201,3.6201,3.6531,3.7007,3.7649,3.8108,3.8456,3.8603,3.864,3.864,3.864,3.7152,3.5994,3.5994,3.3069,3.0788,3.0788,2.93,2.8136,2.8136,2.8136,2.8136,2.8136,2.8136,2.8136,2.8136,2.8136,2.8136,2.8136,2.8136,2.8136,2.8136,2.8136,2.7968,2.7643,2.763,2.6953,2.5409,2.5409,2.5409,2.5409,2.5409,2.5409,2.5488,0.0,0.0,0.0,0.0,0.0,0.0,0.0,0.0,0.0,0.0,0.0,0.0,0.0,0.0,0.0,0.0,0.0,0.0,0.0,0.0,0.0,0.0,0.0,0.0,0.0,0.0,0.0,0.0,0.0,3.5256,3.3463,3.2954,3.4176,3.3368,3.2896,3.3127,3.3214,3.361,3.4139,3.4707,3.5157,3.5456,3.5903,3.6201,3.6201,3.6201,3.6201,3.6201,3.6201,3.6201,3.6201,3.6201,3.6201,3.6201,3.6201,3.6201,3.6201,3.6201,3.6201,3.6201,3.6201,3.6201,3.6201,3.6201,3.6201,3.6201,3.6201,3.6201,3.6201,3.6201,3.6622,3.7209,3.7851,3.8328,3.864,3.864,3.864,3.864,3.864,3.7649,3.6815,3.6815,3.4538,3.2428,3.1768,3.0122,2.881,2.8305,2.8136,2.8136,2.8136,2.8136,2.8136,2.8136,2.8136,2.8136,2.8136,2.8136,2.8136,2.8136,2.8136,2.8136,2.8136,2.8136,2.763,2.6261,2.6261,2.6261,2.6261,2.6261,2.6261,0.0,0.0,0.0,0.0,0.0,0.0,0.0,0.0,0.0,0.0,0.0,0.0,0.0,0.0,0.0,0.0,0.0,0.0,0.0,0.0,0.0,0.0,0.0,0.0,0.0,0.0,0.0,0.0,3.5957,3.5957,3.6016,3.6016,3.5606,3.4921,3.3744,3.3429,3.3854,3.3509,3.3443,3.382,3.4556,3.5007,3.5007,3.5754,3.6201,3.6201,3.6201,3.6201,3.6201,3.6201,3.6201,3.6201,3.6201,3.6201,3.6201,3.6201,3.6201,3.6201,3.6201,3.6201,3.6201,3.6201,3.6201,3.6201,3.6201,3.6201,3.6201,3.6201,3.6201,3.6201,3.6201,3.6806,3.7503,3.7906,3.831,3.8621,3.864,3.864,3.864,3.864,3.864,3.864,3.864,3.7152,3.5349,3.3724,3.1933,3.0122,2.8473,2.8136,2.8136,2.8136,2.8136,2.8136,2.8136,2.8136,2.8136,2.8136,2.8136,2.8136,2.8136,2.8136,2.8136,2.8136,2.8136,2.8136,2.8136,2.8136,2.8136,2.8136,2.8136,2.8136,2.3874,0.0,0.0,0.0,0.0,0.0,0.0,0.0,0.0,0.0,0.0,0.0,0.0,0.0,0.0,0.0,0.0,0.0,0.0,0.0,0.0,0.0,0.0,0.0,0.0,0.0,0.0,0.0,3.457,3.4375,3.5937,3.6016,3.5606,3.4921,3.4047,3.3603,3.3429,3.3093,3.3049,3.3426,3.4151,3.4574,3.4574,3.5456,3.5754,3.5754,3.6052,3.6201,3.6201,3.6201,3.6201,3.6201,3.6201,3.6201,3.6201,3.6201,3.6201,3.6201,3.6201,3.6201,3.6201,3.6201,3.6201,3.6201,3.6201,3.6201,3.6201,3.6201,3.6201,3.6201,3.6201,3.6604,3.7099,3.7503,3.7888,3.8273,3.8585,3.864,3.864,3.864,3.864,3.864,3.864,3.7152,3.5349,3.3724,3.1933,3.0122,2.8473,2.8136,2.8136,2.8136,2.8136,2.8136,2.8136,2.8136,2.8136,2.8136,2.8136,2.8136,2.8136,2.8136,2.8136,2.8136,2.8136,2.8136,2.8136,2.8136,2.8136,2.8136,2.8136,2.8136,0.0,0.0,0.0,0.0,0.0,0.0,2.3379,2.5176,0.0,0.0,0.0,0.0,0.0,0.0,0.0,0.0,0.0,0.0,0.0,0.0,0.0,0.0,0.0,0.0,0.0,3.6016,3.6016,3.6016,3.4844,3.4687,3.5957,3.6016,3.5743,3.5333,3.437,3.3721,3.3678,3.3195,3.3162,3.3866,3.439,3.4716,3.4875,3.5456,3.5605,3.5605,3.6052,3.6201,3.6201,3.6201,3.6201,3.6201,3.6201,3.6201,3.6201,3.6201,3.6201,3.6201,3.6201,3.6201,3.6201,3.6201,3.6201,3.6201,3.6201,3.6201,3.6201,3.6201,3.6201,3.6201,3.6201,3.6531,3.6934,3.7338,3.7723,3.8126,3.8548,3.864,3.864,3.864,3.864,3.864,3.864,3.7809,3.6494,3.4701,3.3069,3.1271,2.9467,2.8642,2.8136,2.8136,2.8136,2.8136,2.8136,2.8136,2.8136,2.8136,2.8136,2.8136,2.8136,2.8136,2.8136,2.8136,2.8136,2.8136,2.8136,2.8136,2.8136,2.8136,2.8136,2.8136,0.0,0.0,0.0,0.0,0.0,0.0,2.3543,2.5801,2.7773,0.0,0.0,0.0,0.0,0.0,0.0,0.0,0.0,0.0,0.0,0.0,0.0,0.0,0.0,0.0,3.6287,3.6287,3.6152,3.6016,3.6016,3.6016,3.6016,3.6016,3.6016,3.6016,3.4646,3.4121,3.4471,3.366,3.3785,3.4533,3.4863,3.5226,3.5605,3.5605,3.5605,3.5605,3.5903,3.6052,3.6052,3.6052,3.6052,3.6201,3.6201,3.6201,3.6201,3.6201,3.6201,3.6201,3.6201,3.6201,3.6201,3.6201,3.6201,3.6201,3.6201,3.6201,3.6201,3.6201,3.6201,3.6201,3.6201,3.6494,3.6861,3.7264,3.7668,3.8071,3.8475,3.8603,3.864,3.864,3.864,3.864,3.864,3.864,3.7986,3.6316,3.4538,3.2741,3.0954,2.93,2.8136,2.8136,2.8136,2.8136,2.8136,2.8136,2.8136,2.8136,2.8136,2.8136,2.8136,2.8136,2.8136,2.8136,2.8136,2.8136,2.8136,2.8136,2.8136,2.8136,2.8136,2.8136,0.0,0.0,0.0,0.0,0.0,0.0,2.2625,2.3461,2.4551,0.0,0.0,0.0,0.0,0.0,0.0,0.0,0.0,0.0,0.0,0.0,0.0,0.0,0.0,0.0,3.7729,3.7729,3.7193,3.6152,3.6016,3.6016,3.6016,3.6016,3.6016,3.6016,3.5196,3.4684,3.4759,3.4379,3.4357,3.4974,3.5303,3.5668,3.6052,3.5754,3.5605,3.5605,3.5306,3.5306,3.5306,3.5306,3.5605,3.6201,3.6201,3.6201,3.6201,3.6201,3.6201,3.6201,3.6201,3.6201,3.6201,3.6201,3.6201,3.6201,3.6201,3.6201,3.6201,3.6201,3.6201,3.6201,3.6201,3.6274,3.6439,3.6861,3.7246,3.7649,3.8053,3.8401,3.864,3.864,3.864,3.864,3.864,3.864,3.7986,3.6316,3.4538,3.2741,3.0954,2.93,2.8136,2.8136,2.8136,2.8136,2.8136,2.8136,2.8136,2.8136,2.8136,2.8136,2.8136,2.8136,2.8136,2.8136,2.8136,2.8136,2.8136,2.8136,2.8136,2.8136,2.8136,2.8136,0.0,0.0,0.0,2.1266,0.0,0.0,0.0,2.3085,2.4294,2.514,2.6206,2.7012,2.7012,0.0,0.0,0.0,0.0,0.0,0.0,0.0,0.0,0.0,0.0,0.0,3.7059,3.7729,3.7461,3.6152,3.6016,3.6016,3.6016,3.6016,3.6016,3.6016,3.5333,3.4921,3.4921,3.4695,3.4874,3.5265,3.5675,3.6104,3.6495,3.5812,3.5605,3.5605,3.5605,3.5306,3.5007,3.5456,3.5605,3.5605,3.5605,3.5903,3.6201,3.5754,3.5903,3.6201,3.5903,3.6052,3.6201,3.6201,3.6201,3.6201,3.6201,3.6201,3.6201,3.6201,3.6201,3.6201,3.6201,3.6201,3.6311,3.6732,3.7136,3.7539,3.7924,3.8346,3.864,3.864,3.864,3.864,3.864,3.864,3.8322,3.749,3.5833,3.405,3.2247,3.0622,2.9132,2.8305,2.8136,2.8136,2.8136,2.8136,2.8136,2.8136,2.8136,2.8136,2.8136,2.8136,2.8136,2.8136,2.8136,2.8136,2.8136,2.8136,2.8136,2.8136,2.8136,2.8136,0.0,0.0,0.0,0.0,0.0,2.1087,0.0,0.0,0.0,0.0,0.0,0.0,0.0,0.0,0.0,0.0,0.0,0.0,0.0,0.0,0.0,0.0,0.0,0.0,3.5551,3.6546,3.6994,3.6112,3.6016,3.6016,3.6016,3.6016,3.6016,3.6016,3.547,3.5059,3.5059,3.5059,3.5268,3.5667,3.6085,3.6504,3.6922,3.6312,3.5903,3.5903,3.6052,3.5903,3.5306,3.5754,3.5605,3.5157,3.5007,3.5456,3.5903,3.5306,3.5456,3.5903,3.5605,3.5754,3.6052,3.6052,3.6201,3.6201,3.6201,3.6201,3.6201,3.6201,3.6201,3.6201,3.6201,3.6201,3.6292,3.6641,3.7081,3.7503,3.7833,3.8291,3.864,3.864,3.864,3.864,3.864,3.864,3.864,3.864,3.7152,3.5511,3.405,3.2098,3.0289,2.8796,2.8473,2.8136,2.8136,2.8136,2.8136,2.8136,2.8136,2.8136,2.8136,2.8136,2.8136,2.8136,2.8136,2.8136,2.8136,2.8136,2.8136,2.8136,2.8136,2.8136,0.0,0.0,0.0,0.0,2.0727,0.0,0.0,0.0,2.2187,2.2636,0.0,0.0,0.0,0.0,0.0,0.0,0.0,0.0,2.5779,2.6663,2.7819,2.9621,3.2469,0.0,0.0,3.4122,3.4946,3.5879,3.6016,3.6016,3.6016,3.6016,3.6016,3.6016,3.5879,3.5879,3.5879,3.5879,3.6093,3.6541,3.695,3.7378,3.7786,3.7359,3.7255,3.7107,3.6516,3.6201,3.6052,3.5456,3.5306,3.5456,3.5157,3.5007,3.5157,3.5007,3.5007,3.5157,3.5157,3.5306,3.5605,3.5605,3.5903,3.6201,3.6201,3.6201,3.6201,3.6201,3.6201,3.6201,3.6201,3.6201,3.6219,3.6274,3.6861,3.7429,3.7484,3.8089,3.864,3.864,3.864,3.864,3.864,3.864,3.864,3.864,3.7152,3.5994,3.5672,3.2905,3.0788,3.0455,2.9132,2.8136,2.8136,2.8136,2.8136,2.8136,2.8136,2.8136,2.8136,2.8136,2.8136,2.8136,2.8136,2.8136,2.8136,2.8136,2.8136,2.8136,2.8136,2.8136,0.0,0.0,0.0,0.0,0.0,0.0,2.1979,0.0,2.1356,0.0,0.0,0.0,0.0,0.0,0.0,0.0,2.2969,0.0,0.0,0.0,2.5582,0.0,0.0,0.0,0.0,0.0,0.0,3.524,3.4635,3.4141,3.4141,3.5332,3.6016,3.6016,3.6016,3.6016,3.6016,3.6016,3.6113,3.6289,3.6738,3.7148,3.7578,3.7143,3.7175,3.7402,3.7107,3.6664,3.6201,3.6349,3.6201,3.5903,3.5306,3.5007,3.5007,3.4423,3.4556,3.5007,3.4724,3.4857,3.5306,3.5456,3.5903,3.6201,3.6201,3.6201,3.6201,3.6201,3.6201,3.6201,3.6201,3.6201,3.6274,3.6512,3.7007,3.7484,3.7723,3.8236,3.864,3.864,3.864,3.864,3.864,3.864,3.864,3.864,3.7986,3.7152,3.6155,3.3887,3.1933,3.0954,2.93,2.8136,2.8136,2.8136,2.8136,2.8136,2.8136,2.8136,2.8136,2.8136,2.8136,2.8136,2.8136,2.8136,2.8136,2.8136,2.8136,2.8136,2.8136,2.8136,2.2792,0.0,0.0,0.0,0.0,0.0,0.0,0.0,0.0,0.0,0.0,0.0,0.0,0.0,2.2176,2.2176,0.0,2.2882,0.0,2.3057,0.0,0.0,0.0,0.0,0.0,0.0,3.2616,3.3776,3.376,3.3514,3.2793,3.5218,3.6403,3.6016,3.6016,3.6016,3.6016,3.6016,3.6016,3.6035,3.6465,3.6836,3.7148,3.7105,3.7219,3.7544,3.7658,3.7402,3.6941,3.7255,3.7107,3.6516,3.5605,3.5306,3.5157,3.4139,3.4122,3.4574,3.429,3.4423,3.4857,3.5456,3.5754,3.6052,3.6201,3.6201,3.6201,3.6201,3.6201,3.6201,3.6201,3.6201,3.6311,3.6732,3.7136,3.7539,3.7924,3.8346,3.864,3.864,3.864,3.864,3.864,3.864,3.864,3.864,3.864,3.8145,3.6832,3.5187,3.356,3.2412,3.0289,2.8978,2.8978,2.8473,2.8136,2.8136,2.8136,2.8136,2.8136,2.8136,2.8136,2.8136,2.8136,2.8136,2.8136,2.8136,2.8136,2.8136,2.8136,2.8136,0.0,0.0,0.0,2.2912,0.0,0.0,0.0,0.0,2.0473,0.0,0.0,0.0,0.0,2.1731,2.1731,2.1731,2.2087,0.0,0.0,0.0,0.0,0.0,0.0,0.0,0.0,3.2151,3.2735,3.1141,3.4128,3.5176,3.2917,3.6111,3.7461,3.6016,3.6016,3.6016,3.6016,3.6016,3.6016,3.6035,3.6465,3.668,3.6719,3.7539,3.793,3.7969,3.8398,3.8574,3.8428,3.7696,3.7402,3.7255,3.6516,3.6201,3.5903,3.4423,3.3837,3.3837,3.3837,3.4139,3.4591,3.5306,3.5605,3.5754,3.6052,3.6201,3.6201,3.6201,3.6201,3.6201,3.6201,3.6201,3.6311,3.6732,3.7136,3.7539,3.7924,3.8346,3.864,3.864,3.864,3.864,3.864,3.864,3.864,3.864,3.864,3.864,3.8481,3.6992,3.5833,3.5833,3.2741,3.0788,3.0788,2.9132,2.8136,2.8136,2.8136,2.8136,2.8136,2.8136,2.8136,2.8136,2.8136,2.8136,2.8136,2.8136,2.8136,2.8136,2.8136,2.8136,0.0,0.0,2.6182,2.5669,0.0,0.0,0.0,0.0,0.0,0.0,0.0,0.0,0.0,2.1015,2.1266,2.1266,2.1642,2.1909,0.0,0.0,0.0,0.0,0.0,0.0,0.0,0.0,0.0,3.0909,3.1287,3.1123,3.0307,3.3546,3.5602,3.6081,3.603,3.6403,3.7327,3.6403,3.6016,3.6016,3.6172,3.6387,3.668,3.7246,3.7656,3.7949,3.8379,3.8574,3.8574,3.8282,3.8136,3.8136,3.7255,3.696,3.6812,3.5157,3.4574,3.4574,3.3988,3.3988,3.4441,3.5007,3.5456,3.5605,3.6052,3.6201,3.6201,3.6201,3.6201,3.6201,3.6201,3.6201,3.6384,3.7062,3.7338,3.7613,3.8291,3.8548,3.864,3.864,3.864,3.864,3.864,3.864,3.864,3.864,3.864,3.864,3.864,3.7152,3.5994,3.5994,3.2905,3.0788,3.0788,2.9132,2.8136,2.8136,2.8136,2.8136,2.8136,2.8136,2.8136,2.8136,2.8136,2.8136,2.8136,2.8136,2.8136,2.8136,2.8136,2.8136,2.7535,2.7878,0.0,2.721,2.6336,0.0,2.4949,0.0,2.1901,0.0,0.0,0.0,0.0,2.1362,2.1375,2.0814,2.1177,2.1498,0.0,2.1994,0.0,0.0,0.0,0.0,0.0,2.7899,2.8253,2.9194,2.9872,2.9897,0.0,3.3215,3.5755,3.6232,3.7037,3.7729,3.8109,3.7193,3.6539,3.6016,3.6539,3.6697,3.6445,3.7411,3.7707,3.7734,3.8164,3.8437,3.8574,3.8574,3.8574,3.8574,3.799,3.7843,3.7549,3.5754,3.5007,3.4857,3.4139,3.429,3.4875,3.5007,3.5306,3.5605,3.6052,3.6201,3.6274,3.6549,3.6439,3.6274,3.6567,3.6421,3.6421,3.7228,3.7429,3.7649,3.8475,3.864,3.864,3.864,3.864,3.864,3.864,3.864,3.864,3.864,3.864,3.864,3.864,3.7649,3.6654,3.5994,3.3397,3.1271,2.9955,2.881,2.8136,2.8136,2.8136,2.8136,2.8136,2.8136,2.8136,2.8136,2.8136,2.8136,2.8136,2.8136,2.8136,2.8136,2.8136,2.815]},{"header":{"parameterUnit":"m.s-1","parameterCategory":1,"la1":30.6,"la2":29.2853,"lo1":-89.7004,"lo2":-87.6739,"dy":0.0162,"dx":0.0183,"nx":112,"ny":82,"refTime":"2023-04-25T00:00:00:Z","depth":0,"parameterNumber":3,"parameterNumberName":"V-component_of_WINDS"},"data":[0.0,0.0,0.0,0.0,0.0,0.0,0.0,0.0,0.0,0.0,0.0,0.0,0.0,0.0,0.0,0.0,0.0,0.0,0.0,0.0,0.0,0.0,0.0,0.0,0.0,0.0,0.0,0.0,0.0,0.0,0.0,0.0,0.0,0.0,0.0,0.0,0.0,0.0,0.0,0.0,0.0,0.0,0.0,0.0,0.0,0.0,0.0,0.0,0.0,0.0,0.0,0.0,0.0,0.0,0.0,0.0,0.0,0.0,0.0,0.0,0.0,0.0,0.0,0.0,0.0,0.0,0.0,0.0,0.0,0.0,0.0,0.0,0.0,0.0,0.0,0.0,0.0,0.0,0.0,0.0,0.0,0.0,0.0,0.0,0.0,0.0,0.0,0.0,0.0,0.0,-5.1997,-5.6631,-5.8913,-6.0325,-6.0962,-6.1081,-5.9456,-5.5578,0.0,0.0,0.0,0.0,0.0,0.0,0.0,0.0,0.0,0.0,0.0,0.0,0.0,0.0,0.0,0.0,0.0,0.0,0.0,0.0,0.0,0.0,0.0,0.0,0.0,0.0,0.0,0.0,0.0,0.0,0.0,0.0,0.0,0.0,0.0,0.0,0.0,0.0,0.0,0.0,0.0,0.0,0.0,0.0,0.0,0.0,0.0,0.0,0.0,0.0,0.0,0.0,0.0,0.0,0.0,0.0,0.0,0.0,0.0,0.0,0.0,0.0,0.0,0.0,0.0,0.0,0.0,0.0,0.0,0.0,0.0,0.0,0.0,0.0,0.0,0.0,0.0,0.0,0.0,0.0,0.0,0.0,0.0,0.0,0.0,0.0,0.0,0.0,0.0,0.0,0.0,0.0,0.0,0.0,0.0,0.0,0.0,0.0,0.0,0.0,0.0,0.0,0.0,0.0,-5.4303,-5.9053,-5.9896,-6.0325,-6.0962,-6.1451,-5.9885,-5.5524,0.0,0.0,0.0,0.0,0.0,0.0,0.0,0.0,0.0,0.0,0.0,0.0,0.0,0.0,0.0,0.0,0.0,0.0,0.0,0.0,0.0,0.0,0.0,0.0,0.0,0.0,0.0,0.0,0.0,0.0,0.0,0.0,0.0,0.0,0.0,0.0,0.0,0.0,0.0,0.0,0.0,0.0,0.0,0.0,0.0,0.0,0.0,0.0,0.0,0.0,0.0,0.0,0.0,0.0,0.0,0.0,0.0,0.0,0.0,0.0,0.0,0.0,0.0,0.0,0.0,0.0,0.0,0.0,0.0,0.0,0.0,0.0,0.0,0.0,0.0,0.0,0.0,0.0,0.0,0.0,0.0,0.0,0.0,0.0,0.0,0.0,0.0,0.0,0.0,0.0,0.0,0.0,0.0,0.0,0.0,0.0,0.0,0.0,0.0,0.0,0.0,0.0,0.0,-5.3765,-5.7693,-5.9861,-6.0107,-6.0199,-6.0512,-6.0782,-5.9179,-5.5064,-5.5184,0.0,0.0,0.0,0.0,0.0,0.0,0.0,0.0,0.0,0.0,0.0,0.0,0.0,0.0,0.0,0.0,0.0,0.0,0.0,0.0,0.0,0.0,0.0,0.0,0.0,0.0,0.0,0.0,0.0,0.0,0.0,0.0,0.0,0.0,0.0,0.0,0.0,0.0,0.0,0.0,0.0,0.0,0.0,0.0,0.0,0.0,0.0,0.0,0.0,0.0,0.0,0.0,0.0,0.0,0.0,0.0,0.0,0.0,0.0,0.0,0.0,0.0,0.0,0.0,0.0,0.0,0.0,0.0,0.0,0.0,0.0,0.0,0.0,0.0,0.0,0.0,0.0,0.0,0.0,0.0,0.0,0.0,0.0,0.0,0.0,0.0,0.0,0.0,0.0,0.0,0.0,0.0,0.0,0.0,0.0,0.0,0.0,0.0,0.0,0.0,0.0,0.0,-5.6596,-5.9299,-6.0001,-6.0107,-6.0171,-6.0325,-6.0325,-5.8698,-5.4918,-5.458,0.0,0.0,0.0,0.0,0.0,0.0,0.0,0.0,0.0,0.0,0.0,0.0,0.0,0.0,0.0,0.0,0.0,0.0,0.0,0.0,0.0,0.0,0.0,0.0,0.0,0.0,0.0,0.0,0.0,0.0,0.0,0.0,0.0,0.0,0.0,0.0,0.0,0.0,0.0,0.0,0.0,0.0,0.0,0.0,0.0,0.0,0.0,0.0,0.0,0.0,0.0,0.0,0.0,0.0,0.0,0.0,0.0,0.0,0.0,0.0,0.0,0.0,0.0,0.0,0.0,0.0,0.0,0.0,0.0,0.0,0.0,0.0,0.0,0.0,0.0,0.0,0.0,0.0,0.0,0.0,0.0,0.0,0.0,0.0,0.0,0.0,0.0,0.0,0.0,0.0,0.0,0.0,0.0,0.0,0.0,0.0,0.0,0.0,0.0,0.0,0.0,0.0,-5.4735,-5.6912,-5.9791,-6.0107,-6.0325,-6.0903,-6.0962,-5.9291,-5.5395,-5.5093,0.0,0.0,0.0,0.0,0.0,0.0,0.0,0.0,0.0,0.0,0.0,0.0,0.0,0.0,0.0,0.0,0.0,0.0,0.0,0.0,0.0,0.0,0.0,0.0,0.0,0.0,0.0,0.0,0.0,0.0,0.0,0.0,0.0,0.0,0.0,0.0,0.0,0.0,0.0,0.0,0.0,0.0,0.0,0.0,0.0,0.0,0.0,0.0,0.0,0.0,0.0,0.0,0.0,0.0,0.0,0.0,0.0,0.0,0.0,0.0,0.0,0.0,0.0,0.0,0.0,0.0,0.0,0.0,0.0,0.0,0.0,0.0,0.0,0.0,0.0,0.0,0.0,0.0,0.0,0.0,0.0,0.0,0.0,0.0,0.0,0.0,0.0,0.0,0.0,0.0,0.0,0.0,0.0,0.0,0.0,0.0,0.0,0.0,0.0,0.0,0.0,0.0,-5.615,-5.8994,0.0,-6.0661,-6.0903,-6.1508,-6.1564,-5.9779,-5.5615,0.0,0.0,0.0,0.0,0.0,0.0,0.0,0.0,0.0,0.0,0.0,0.0,0.0,0.0,0.0,0.0,0.0,0.0,0.0,0.0,0.0,0.0,0.0,0.0,0.0,0.0,0.0,0.0,0.0,0.0,0.0,0.0,0.0,0.0,0.0,0.0,0.0,0.0,0.0,0.0,0.0,0.0,0.0,0.0,0.0,0.0,0.0,0.0,0.0,0.0,0.0,0.0,0.0,0.0,0.0,0.0,0.0,0.0,0.0,0.0,0.0,0.0,0.0,0.0,0.0,0.0,0.0,0.0,0.0,0.0,0.0,0.0,0.0,0.0,0.0,0.0,0.0,0.0,0.0,0.0,0.0,0.0,0.0,0.0,0.0,0.0,0.0,0.0,0.0,0.0,0.0,0.0,0.0,0.0,0.0,0.0,0.0,0.0,0.0,0.0,0.0,0.0,-5.3077,-5.7314,-6.0538,0.0,-6.1163,-6.1451,-6.1842,-6.1897,-5.9989,-5.5578,0.0,0.0,0.0,0.0,0.0,0.0,0.0,0.0,0.0,0.0,0.0,0.0,0.0,0.0,0.0,0.0,0.0,0.0,0.0,0.0,0.0,0.0,0.0,0.0,0.0,0.0,0.0,0.0,0.0,0.0,0.0,0.0,0.0,0.0,0.0,0.0,0.0,0.0,0.0,0.0,0.0,0.0,0.0,0.0,0.0,0.0,0.0,0.0,0.0,0.0,0.0,0.0,0.0,0.0,0.0,0.0,0.0,0.0,0.0,0.0,0.0,0.0,0.0,0.0,0.0,0.0,0.0,0.0,0.0,0.0,0.0,0.0,0.0,0.0,0.0,0.0,0.0,0.0,0.0,0.0,0.0,0.0,0.0,0.0,0.0,0.0,0.0,0.0,0.0,0.0,0.0,0.0,0.0,0.0,0.0,0.0,0.0,0.0,0.0,0.0,0.0,0.0,-5.3303,-5.7788,-6.1022,-6.1022,-6.1564,-6.1897,-6.1897,-6.1897,-5.9989,0.0,0.0,0.0,0.0,0.0,0.0,0.0,0.0,0.0,0.0,0.0,0.0,0.0,0.0,0.0,0.0,0.0,0.0,0.0,0.0,0.0,0.0,0.0,0.0,0.0,0.0,0.0,0.0,0.0,0.0,0.0,0.0,0.0,0.0,0.0,0.0,0.0,0.0,0.0,0.0,0.0,0.0,0.0,0.0,0.0,0.0,0.0,0.0,0.0,0.0,0.0,0.0,0.0,0.0,0.0,0.0,0.0,0.0,0.0,0.0,0.0,0.0,0.0,0.0,0.0,0.0,0.0,0.0,0.0,0.0,0.0,0.0,0.0,0.0,0.0,0.0,0.0,0.0,0.0,0.0,0.0,0.0,0.0,0.0,0.0,0.0,0.0,0.0,0.0,0.0,0.0,0.0,0.0,0.0,0.0,0.0,0.0,0.0,0.0,0.0,0.0,0.0,0.0,-5.406,-5.8502,-6.1787,-6.2182,-6.2339,-6.2631,-6.3062,-6.3062,-6.1043,-5.6256,0.0,0.0,0.0,0.0,0.0,0.0,0.0,0.0,0.0,0.0,0.0,0.0,0.0,0.0,0.0,0.0,0.0,0.0,0.0,0.0,0.0,0.0,0.0,0.0,0.0,0.0,0.0,0.0,0.0,0.0,0.0,0.0,0.0,0.0,0.0,0.0,0.0,0.0,0.0,0.0,0.0,0.0,0.0,0.0,0.0,0.0,0.0,0.0,0.0,0.0,0.0,0.0,0.0,0.0,0.0,0.0,0.0,0.0,0.0,0.0,0.0,0.0,0.0,0.0,0.0,0.0,0.0,0.0,0.0,0.0,0.0,0.0,0.0,0.0,0.0,0.0,0.0,0.0,0.0,0.0,0.0,0.0,0.0,0.0,0.0,0.0,0.0,0.0,0.0,0.0,0.0,0.0,0.0,0.0,0.0,0.0,0.0,0.0,0.0,0.0,0.0,0.0,-5.4097,-5.8812,-6.2339,-6.2645,-6.2929,-6.3205,-6.3557,-6.3557,-6.1842,-5.7867,0.0,0.0,0.0,0.0,0.0,0.0,0.0,0.0,0.0,0.0,0.0,0.0,0.0,0.0,0.0,0.0,0.0,0.0,0.0,0.0,0.0,0.0,0.0,0.0,0.0,0.0,0.0,0.0,0.0,0.0,0.0,0.0,0.0,0.0,0.0,0.0,0.0,0.0,0.0,0.0,0.0,0.0,0.0,0.0,0.0,0.0,0.0,0.0,0.0,0.0,0.0,0.0,0.0,0.0,0.0,0.0,0.0,0.0,0.0,0.0,0.0,0.0,0.0,0.0,0.0,0.0,0.0,0.0,0.0,0.0,0.0,0.0,0.0,0.0,0.0,0.0,0.0,0.0,0.0,0.0,0.0,0.0,0.0,0.0,0.0,0.0,0.0,0.0,0.0,0.0,0.0,0.0,0.0,0.0,0.0,0.0,0.0,0.0,0.0,0.0,0.0,0.0,-5.3889,-5.9054,-6.2794,-6.2794,-6.3252,-6.3602,-6.3602,-6.3511,-6.2299,-5.9767,0.0,0.0,0.0,0.0,0.0,0.0,0.0,0.0,0.0,0.0,0.0,0.0,0.0,0.0,0.0,0.0,0.0,0.0,0.0,0.0,0.0,0.0,0.0,0.0,0.0,0.0,0.0,0.0,0.0,0.0,0.0,0.0,0.0,0.0,0.0,0.0,0.0,0.0,0.0,0.0,0.0,0.0,0.0,0.0,0.0,0.0,0.0,0.0,0.0,0.0,0.0,0.0,0.0,0.0,0.0,0.0,0.0,0.0,0.0,0.0,-5.6895,0.0,0.0,0.0,0.0,0.0,0.0,0.0,0.0,0.0,0.0,0.0,0.0,0.0,0.0,0.0,0.0,0.0,0.0,0.0,0.0,0.0,0.0,0.0,0.0,0.0,0.0,0.0,0.0,0.0,0.0,0.0,0.0,0.0,0.0,0.0,0.0,0.0,0.0,0.0,0.0,0.0,-5.5581,-6.0145,-6.3382,-6.3382,-6.3511,-6.3602,-6.3602,-6.3557,-6.2472,-5.9819,-5.8954,0.0,0.0,0.0,0.0,0.0,0.0,0.0,0.0,0.0,0.0,0.0,0.0,0.0,0.0,0.0,0.0,0.0,0.0,0.0,0.0,0.0,0.0,0.0,0.0,0.0,0.0,0.0,0.0,0.0,0.0,0.0,0.0,0.0,0.0,0.0,0.0,0.0,0.0,0.0,0.0,0.0,0.0,0.0,0.0,0.0,0.0,0.0,0.0,0.0,0.0,0.0,0.0,0.0,0.0,0.0,0.0,0.0,0.0,0.0,0.0,-5.8107,0.0,0.0,0.0,0.0,0.0,0.0,0.0,0.0,0.0,0.0,0.0,0.0,0.0,0.0,0.0,0.0,0.0,0.0,0.0,0.0,0.0,0.0,0.0,0.0,0.0,0.0,0.0,0.0,0.0,0.0,0.0,0.0,0.0,0.0,0.0,0.0,0.0,0.0,0.0,0.0,-5.5053,-5.9987,-6.3511,-6.3602,-6.3602,-6.3602,-6.3602,-6.3557,-6.3057,-6.2031,-6.0424,0.0,0.0,0.0,0.0,0.0,0.0,0.0,0.0,0.0,0.0,0.0,0.0,0.0,0.0,0.0,0.0,0.0,0.0,0.0,0.0,0.0,0.0,0.0,0.0,0.0,0.0,0.0,0.0,0.0,0.0,0.0,0.0,0.0,0.0,0.0,0.0,0.0,0.0,0.0,0.0,0.0,0.0,0.0,0.0,0.0,0.0,0.0,0.0,0.0,0.0,0.0,0.0,0.0,-6.001,-6.0332,-6.0772,-6.0713,-6.0811,-6.1185,-6.2709,-6.3239,-6.3039,-6.1579,0.0,0.0,0.0,0.0,0.0,0.0,0.0,0.0,0.0,0.0,0.0,0.0,0.0,0.0,0.0,0.0,0.0,0.0,0.0,0.0,0.0,0.0,0.0,0.0,-6.1879,-6.1431,0.0,0.0,0.0,0.0,0.0,0.0,0.0,0.0,0.0,0.0,0.0,0.0,-5.4538,-5.9993,-6.3919,-6.401,-6.4002,-6.3965,-6.3919,-6.3873,-6.3992,-6.4549,-6.1982,-6.0525,0.0,0.0,0.0,0.0,0.0,0.0,0.0,0.0,0.0,0.0,0.0,0.0,0.0,0.0,0.0,0.0,0.0,0.0,0.0,0.0,0.0,0.0,0.0,0.0,0.0,0.0,0.0,0.0,0.0,0.0,0.0,0.0,-5.5006,-5.6344,0.0,0.0,0.0,0.0,0.0,0.0,0.0,0.0,0.0,0.0,0.0,0.0,0.0,-5.6318,-5.7588,-5.9849,-6.1335,-6.209,-6.4099,-6.5094,-6.5202,-6.5953,-6.6366,-6.6329,-6.5127,0.0,-6.3057,-6.3225,0.0,0.0,0.0,0.0,0.0,0.0,0.0,0.0,0.0,0.0,0.0,0.0,0.0,0.0,0.0,0.0,0.0,0.0,0.0,0.0,0.0,0.0,-6.7535,-6.8028,-6.6282,-6.5179,0.0,-6.1645,-5.6718,-5.8842,-5.6837,0.0,0.0,0.0,0.0,0.0,0.0,0.0,-5.7229,-6.2295,-6.5775,-6.5682,-6.5541,-6.5445,-6.5349,-6.5349,-6.5287,-6.5372,-6.4917,-6.3726,-6.152,-6.4273,0.0,0.0,0.0,0.0,0.0,0.0,0.0,0.0,0.0,0.0,0.0,0.0,0.0,0.0,0.0,0.0,0.0,0.0,0.0,0.0,0.0,0.0,0.0,0.0,0.0,0.0,0.0,0.0,0.0,-5.3908,-5.5219,-5.5524,-5.5623,-5.4413,0.0,0.0,0.0,0.0,0.0,0.0,0.0,0.0,0.0,-5.6405,-5.8492,-6.0,-6.1019,-6.3215,-6.4793,-6.5624,-6.6701,-6.7305,-6.7553,-6.8037,-6.8271,-6.8379,-6.7606,-6.6992,-6.6394,-6.4916,-6.4446,-6.4401,0.0,0.0,0.0,0.0,-5.8913,-5.8876,-5.9773,-6.0858,0.0,-6.2994,0.0,0.0,0.0,0.0,0.0,0.0,0.0,0.0,0.0,0.0,-6.6913,-6.879,-6.8291,-6.776,-6.8765,-6.4678,-6.1039,0.0,-5.9495,-5.663,-5.4392,0.0,0.0,0.0,0.0,-5.9433,-5.9846,-6.3568,-6.6201,-6.6201,-6.6156,-6.6063,-6.5875,-6.579,-6.5964,-6.6347,-6.6347,-6.6088,-6.5508,-6.6827,-6.5718,0.0,0.0,0.0,0.0,0.0,0.0,0.0,0.0,0.0,0.0,0.0,0.0,0.0,0.0,0.0,0.0,0.0,0.0,0.0,0.0,0.0,0.0,0.0,0.0,0.0,0.0,0.0,0.0,-5.4011,-5.5288,-5.5115,-5.549,-5.4626,0.0,0.0,0.0,0.0,0.0,0.0,-5.505,-5.6659,-5.7886,-5.8721,-6.1379,-6.3227,-6.4148,-6.5908,-6.7249,-6.8171,-6.8272,-6.848,-6.8772,-6.89,-6.899,-6.9203,-6.9203,-6.9203,-6.901,-6.6829,-6.6038,-6.617,-6.617,-6.4758,-6.2745,-6.2745,-6.2369,-6.2031,-6.3233,-6.4472,-6.5749,-6.6988,-6.5974,-6.4172,-6.3533,0.0,0.0,0.0,0.0,-6.1205,-6.3909,-6.5073,-6.6162,-6.864,-6.9203,-6.9203,-6.9203,-6.6612,-6.4466,0.0,-6.2533,-5.9625,-5.708,0.0,0.0,0.0,0.0,-6.1902,-6.2208,-6.4961,-6.6934,-6.7016,-6.6971,-6.688,-6.6648,-6.6648,-6.6861,-6.7321,-6.7358,-6.7703,-6.8468,-6.8468,-6.7364,-6.4911,0.0,0.0,0.0,0.0,0.0,0.0,0.0,0.0,0.0,0.0,0.0,0.0,0.0,0.0,0.0,0.0,0.0,0.0,0.0,0.0,0.0,0.0,0.0,0.0,0.0,0.0,0.0,0.0,0.0,-5.6495,-5.8077,0.0,0.0,0.0,0.0,-5.3498,-5.3532,-5.5133,-5.853,-5.9044,-6.0734,-6.4109,-6.4388,-6.5219,-6.6809,-6.6955,-6.7504,-6.8468,-6.867,-6.8809,-6.8809,-6.9072,-6.916,-6.9203,-6.9203,-6.9203,-6.9203,-6.9047,-6.8972,-6.8747,-6.642,-6.5448,-6.5035,-6.2707,-6.3308,-6.5261,-6.5373,-6.695,-6.8978,-6.9053,-6.6913,-6.3834,-6.1506,-6.0079,0.0,0.0,-6.2219,-6.4247,-6.5185,-6.7213,-6.9015,-6.9166,-6.9203,-6.9203,-6.9203,-6.6612,-6.5223,0.0,-6.627,-6.3984,-6.3834,0.0,-6.2033,-5.9365,-6.1318,-6.3387,-6.4059,-6.6898,-6.8788,-6.866,-6.8605,-6.8501,-6.8405,-6.8357,-6.8394,-6.8431,-6.8431,-6.8431,-6.8468,-6.8468,-6.8394,-6.8246,-6.5426,0.0,0.0,0.0,0.0,0.0,0.0,0.0,0.0,0.0,0.0,0.0,0.0,0.0,0.0,0.0,0.0,0.0,0.0,0.0,0.0,0.0,0.0,0.0,0.0,0.0,0.0,0.0,0.0,-5.6633,-5.7354,0.0,-5.5835,-5.6725,-5.6928,-5.5888,-5.8106,-6.0182,-6.1943,-6.2868,-6.4166,-6.5878,-6.6546,-6.712,-6.7684,-6.7893,-6.8198,-6.867,-6.8763,-6.89,-6.9072,-6.916,-6.9203,-6.9203,-6.9203,-6.9203,-6.9203,-6.9203,-6.9203,-6.9128,-6.8227,-6.7889,-6.7776,-6.6913,-6.7138,-6.7889,-6.7889,-6.849,-6.9203,-6.9203,-6.8415,-6.7288,-6.6425,-6.5936,-6.5749,-6.6049,-6.6762,-6.7513,-6.7814,-6.8565,-6.9203,-6.9203,-6.9203,-6.9203,-6.9203,-6.8302,-6.7814,-6.8978,-6.6537,-6.4284,-6.4284,-6.5865,-6.6053,-6.297,-6.5113,-6.7138,-6.7438,-6.8447,-6.9116,-6.9072,-6.9027,-6.8937,-6.8717,-6.867,-6.867,-6.867,-6.867,-6.8763,-6.8937,-6.8937,-6.8937,-6.8937,-6.7866,-6.5361,0.0,0.0,0.0,0.0,0.0,0.0,0.0,0.0,0.0,0.0,0.0,0.0,0.0,0.0,0.0,0.0,0.0,0.0,0.0,0.0,0.0,0.0,0.0,0.0,0.0,0.0,-5.5667,-5.6667,-5.7253,-5.746,-5.7251,-5.8215,-5.8905,-5.8938,-6.1398,-6.3136,-6.3658,-6.4888,-6.5815,-6.6344,-6.7213,-6.7878,-6.8222,-6.8468,-6.8717,-6.8945,-6.8945,-6.9027,-6.9203,-6.9203,-6.8753,-6.8002,-6.8865,-6.8753,-6.8039,-6.8865,-6.9203,-6.9203,-6.9203,-6.9203,-6.9203,-6.9203,-6.9203,-6.9203,-6.9203,-6.9203,-6.9203,-6.9203,-6.9203,-6.9203,-6.9203,-6.9203,-6.9203,-6.9203,-6.9203,-6.9203,-6.9203,-6.9203,-6.9203,-6.9203,-6.9203,-6.9203,-6.9203,-6.834,-6.7889,-6.8978,-6.7438,-6.5674,-6.4847,-6.65,-6.6838,-6.3533,-6.4923,-6.6199,-6.5899,-6.6875,-6.7551,-6.7551,-6.8565,-6.9116,-6.8945,-6.7935,-6.7747,-6.887,-6.7897,-6.7866,-6.9166,-6.8152,-6.7551,-6.7551,-6.6462,-6.4397,-6.1393,0.0,0.0,0.0,0.0,0.0,0.0,0.0,0.0,0.0,0.0,0.0,0.0,0.0,0.0,0.0,0.0,0.0,0.0,0.0,0.0,0.0,0.0,0.0,-5.1287,-5.446,-5.684,-5.6909,-5.8185,-5.9426,-6.0462,-6.0393,-6.0945,-6.2539,-6.324,-6.3589,-6.3677,-6.4835,-6.5546,-6.551,-6.6482,-6.7357,-6.832,-6.8679,-6.8945,-6.9203,-6.9203,-6.9203,-6.9203,-6.9203,-6.7889,-6.5749,-6.8189,-6.7851,-6.5824,-6.8227,-6.9203,-6.9203,-6.9203,-6.9203,-6.9203,-6.9203,-6.9203,-6.9203,-6.9128,-6.9166,-6.9203,-6.9203,-6.9203,-6.9203,-6.9203,-6.9203,-6.9203,-6.9203,-6.9203,-6.9203,-6.9203,-6.9203,-6.9203,-6.9203,-6.9203,-6.9203,-6.9203,-6.6687,-6.5373,-6.8602,-6.9203,-6.8452,-6.6049,-6.5636,-6.4547,-6.1355,-6.0867,0.0,-5.9703,-6.2444,-6.4434,-6.4434,-6.7213,-6.9091,-6.9203,-6.6199,-6.5711,-6.9015,-6.6199,-6.5861,-6.9091,-6.6124,-6.4434,-6.4434,-6.1168,-6.143,-6.5448,0.0,0.0,0.0,0.0,0.0,0.0,0.0,0.0,0.0,0.0,0.0,0.0,0.0,0.0,0.0,0.0,0.0,0.0,0.0,0.0,0.0,0.0,-5.5088,-5.5213,-5.615,-5.7391,-5.9081,-5.9633,-6.0185,-6.1014,-6.1601,-6.2013,-6.2499,-6.3659,-6.4491,-6.5039,-6.4169,-6.3744,-6.3795,-6.4856,-6.5366,-6.5165,-6.7785,-6.9116,-6.9203,-6.9203,-6.9203,-6.9203,-6.9203,-6.8828,-6.8227,-6.8903,-6.8828,-6.8264,-6.894,-6.9203,-6.9203,-6.9203,-6.9203,-6.9203,-6.9203,-6.9203,-6.894,-6.7138,-6.7701,-6.9203,-6.9203,-6.9203,-6.9203,-6.9203,-6.9203,-6.9203,-6.9203,-6.9203,-6.9203,-6.9203,-6.9203,-6.9203,-6.9203,-6.9203,-6.9203,-6.9203,-6.849,-6.8114,-6.9053,-6.9203,-6.8978,-6.8302,-6.8189,-6.7889,-6.6988,-6.6838,0.0,-6.6537,-6.7288,-6.7851,-6.7851,-6.6537,-6.6612,-6.9015,-6.6199,-6.5711,-6.9015,-6.8377,-6.8264,-6.9166,-6.834,-6.7851,-6.7851,-6.4622,-6.3496,0.0,0.0,0.0,0.0,0.0,0.0,0.0,0.0,0.0,0.0,0.0,0.0,0.0,0.0,0.0,0.0,0.0,0.0,0.0,0.0,0.0,0.0,-5.4196,-5.7363,-5.8502,-5.8386,-5.8838,-6.0458,-6.0636,-6.1085,-6.2092,-6.2401,-6.2744,-6.3379,-6.4423,-6.5202,-6.5743,-6.5243,-6.4327,-6.2867,-6.5123,-6.556,-6.3953,-6.7423,-6.9203,-6.9203,-6.9203,-6.9203,-6.9203,-6.9203,-6.864,-6.7739,-6.8753,-6.864,-6.7739,-6.879,-6.9203,0.0,0.0,0.0,0.0,0.0,-6.9203,-6.9015,-6.7551,-6.8002,-6.9203,-6.9203,-6.9203,-6.9203,-6.9203,-6.8264,-6.7138,-6.7138,-6.6162,-6.5373,-6.68,-6.7138,-6.7513,-6.8865,-6.9203,-6.9203,-6.9203,-6.8114,-6.7551,-6.894,-6.8114,0.0,-6.8978,-6.834,-6.7176,-6.5824,-6.5598,-6.5486,-6.511,-6.6274,-6.7138,-6.7138,-6.6687,-6.7138,-6.9053,-6.6199,0.0,0.0,0.0,-6.7138,-6.7138,-6.7138,0.0,0.0,0.0,-6.3045,-6.481,0.0,0.0,0.0,-6.3834,-6.2595,0.0,0.0,0.0,0.0,0.0,0.0,0.0,0.0,0.0,0.0,0.0,0.0,0.0,0.0,0.0,0.0,-5.6273,-5.903,-6.1192,-6.1072,-6.0976,-6.1536,-6.1636,-6.23,-6.3647,-6.3275,-6.3485,-6.47,-6.5462,-6.593,-6.6163,0.0,0.0,0.0,0.0,-6.6797,-6.3995,-6.7423,-6.9203,-6.9203,-6.9203,-6.9203,-6.9203,-6.9203,-6.8002,-6.6049,-6.8264,-6.7964,-6.6087,-6.8302,-6.9203,-6.9203,-6.9203,-6.9203,-6.9203,-6.8903,-6.8978,-6.9166,-6.8903,0.0,0.0,-6.9203,-6.9203,-6.9203,-6.9203,-6.7176,-6.4847,-6.4847,-6.2707,-6.1093,-6.4059,-6.4847,-6.5598,-6.8527,-6.9203,-6.9203,-6.9203,-6.6913,-6.5711,-6.864,-6.6838,-6.5786,-6.8715,-6.7363,-6.4923,-6.2031,-6.1581,-6.128,-6.0529,-6.3008,-6.4847,-6.4847,0.0,0.0,-6.9203,-6.6199,-6.5711,-6.9015,-6.6462,-6.4847,-6.4847,-6.4847,-6.3871,-6.1768,-6.0942,-6.2407,-6.6199,-6.6199,-6.7739,-7.0517,-6.5336,-6.4096,0.0,0.0,0.0,0.0,0.0,0.0,0.0,0.0,0.0,0.0,0.0,0.0,0.0,0.0,0.0,-5.8187,-6.0711,-6.2907,-6.3465,-6.3955,-6.4183,-6.3921,-6.4091,-6.4572,-6.5421,-6.5607,-6.5766,-6.6031,-6.6692,-6.703,-6.7122,-6.6026,-6.4819,-6.3654,-6.5061,-6.5309,-6.4244,-6.7509,-6.9203,-6.9203,0.0,0.0,-6.9203,-6.9203,-6.894,-6.8527,-6.9015,-6.894,-6.8527,-6.9015,-6.9203,-6.9203,-6.9203,-6.9203,-6.8978,-6.695,-6.7476,-6.894,-6.6913,-6.7551,-6.9203,-6.9203,-6.9203,-6.9203,-6.9203,-6.8753,0.0,-6.8264,-6.7814,-6.7438,-6.8077,-6.8264,-6.8415,-6.9053,-6.9203,-6.9203,-6.9203,-6.8715,-6.8452,-6.9091,-6.8715,-6.8452,-6.9091,-6.8828,-6.8302,-6.7626,-6.7551,-6.7476,-6.7326,-6.7851,-6.8264,-6.8264,-6.6462,-6.6312,-6.8978,-6.6199,-6.5711,-6.9015,-6.8602,-6.8264,-6.8264,-6.8264,-6.8377,-6.8565,-6.8415,-6.9053,-7.0517,-7.0517,-7.0855,-7.1456,-7.033,-7.0067,0.0,0.0,0.0,0.0,0.0,0.0,0.0,0.0,0.0,0.0,0.0,-5.608,0.0,0.0,-5.8718,-5.9713,-6.1654,-6.3603,-6.5001,-6.582,-6.606,-6.5452,-6.5511,-6.5967,-6.6656,-6.654,-6.6504,-6.6882,-6.7195,-6.7642,-6.8087,-6.7195,-6.5866,-6.4158,-6.5983,-6.6138,-6.4322,-6.7551,-6.9203,-6.9203,-6.9203,-6.9203,-6.9203,-6.9203,-6.9203,-6.9203,-6.9203,-6.9203,-6.9203,-6.9203,-6.9203,-6.9203,-6.9203,-6.9203,-6.9053,-6.7814,-6.8152,-6.9053,-6.7776,-6.8189,-6.9203,-6.9203,-6.9203,-6.9203,-6.9203,-6.8077,-6.6762,-6.6762,-6.5561,-6.4622,-6.6312,-6.6762,-6.7176,-6.8828,-6.9203,-6.9203,-6.9203,-6.9203,-6.9203,-6.9203,-6.9203,-6.9203,-6.9203,-6.9203,-6.9203,-6.9203,-6.9203,-6.9203,-6.9203,-6.9203,-6.9203,-6.9203,-6.7739,-6.7438,-6.9091,-6.7701,-6.7476,-6.9128,-6.9203,-6.9428,-6.9842,-6.9842,-7.0255,-7.1081,-7.1118,-7.1306,-7.1719,-7.2094,-7.232,-7.232,-7.277,-7.2733,0.0,0.0,0.0,0.0,0.0,0.0,0.0,0.0,-5.8424,-5.7857,-5.8285,-5.8598,-5.8114,-5.8601,-5.9632,-6.1431,-6.2658,-6.4196,-6.6519,-6.7258,-6.7391,-6.6888,-6.6846,-6.7049,-6.7605,-6.7249,-6.7158,-6.7709,-6.7746,-6.8087,-6.8855,-6.8754,-6.7606,-6.5336,-6.7604,-6.7716,-6.5261,-6.7889,-6.9203,-6.9203,-6.9203,-6.9203,-6.9203,-6.9203,-6.9203,-6.9241,-6.9391,-6.9466,-6.9466,-6.9616,-6.9691,-6.9691,-6.9691,-6.9691,-6.9691,-6.9541,-6.9466,-6.9466,-6.9654,-6.9691,-6.9691,-6.9691,-6.9691,-6.9691,-6.9691,-6.7851,-6.5749,-6.5749,-6.3796,-6.2332,-6.5035,-6.5749,-6.6425,-6.9053,-6.9691,-6.9691,-6.9691,-6.9691,-6.9691,-6.9691,-6.9691,-6.9691,-6.9691,-6.9691,-6.9579,-6.9278,-6.9203,-6.9203,-6.9203,-6.9203,-6.9203,-6.9203,-6.9203,-6.9278,-6.9466,-6.9466,-6.9541,-6.9691,-6.9691,-6.9992,-7.0705,-7.0743,-7.1118,-7.1944,-7.1944,-7.2019,-7.2207,-7.2845,-7.3146,-7.3183,-7.3859,-7.3822,-5.4099,-5.2218,0.0,-5.3326,-5.5318,-5.6756,0.0,0.0,-6.2131,-6.0078,-6.1549,-6.3392,-6.4102,-6.4416,-6.5141,-6.6861,-6.7278,-6.7728,-6.869,-6.8922,-6.8966,-6.8878,-6.8651,-6.8548,-6.8633,-6.8772,-6.8908,-6.899,-6.899,-6.9034,-6.916,-6.9116,-6.8966,-6.8677,-6.8972,-6.8972,-6.8677,-6.9015,-6.9203,-6.9203,-6.9203,-6.9203,-6.9203,-6.9203,-6.9203,-6.9241,-7.0029,-7.0367,-7.0405,-7.1118,-7.1419,-7.1419,-7.1419,-7.1419,-7.1343,-7.063,-7.0367,-7.0442,-7.1193,-7.1419,-7.1419,-7.1419,-7.1419,-7.1419,-7.1419,-7.1156,-7.0893,-7.0893,-7.0592,-7.0405,-7.078,-7.0893,-7.0968,-7.1343,-7.1419,-7.1419,-7.1419,-7.1419,-7.1419,-7.1419,-7.1419,-7.1419,-7.1419,-7.1419,-7.093,-6.9428,-6.9203,-6.9203,-6.9203,-6.9203,-6.9203,-6.9203,-6.9203,-6.9504,-7.0292,-7.0367,-7.0668,-7.1381,-7.1419,-7.1456,-7.1569,-7.1569,-7.1944,-7.2733,-7.277,-7.3146,-7.3934,-7.4009,-7.4047,-7.4085,-7.416,-7.416,-5.513,0.0,0.0,0.0,-5.925,-6.0618,-6.0411,-6.2072,-6.355,-6.2947,-6.3878,-6.5099,-6.5961,-6.5407,-6.5486,0.0,-6.7176,-6.7176,-6.8978,-6.9203,-6.9203,-6.9203,-6.7428,-6.6186,-6.6186,-6.8034,-6.8415,-6.65,-6.8114,-6.9203,-6.9203,-6.9203,-6.9203,-6.9203,-6.9203,-6.9203,-6.9203,-6.9203,-6.9203,-6.9203,-6.9203,-6.9203,-6.9241,-6.9729,-7.0217,-7.0705,-7.1043,-7.1193,-7.1231,-7.1569,-7.1719,-7.1719,-7.1719,-7.1719,-7.1681,-7.1343,-7.1193,-7.1268,-7.1606,-7.1719,-7.1719,-7.1719,-7.1719,-7.1719,-7.1719,-7.1719,-7.1719,-7.1719,-7.1719,-7.1719,-7.1719,-7.1719,-7.1719,-7.1719,-7.1719,-7.1719,-7.1719,-7.1719,-7.1719,-7.1719,-7.1719,-7.1719,-7.1719,-7.1719,-7.1456,-7.078,-7.0668,-7.0668,-7.0668,-7.0668,-7.0668,-7.0668,-7.0579,-7.0729,-7.1156,-7.1104,-7.1254,-7.1681,-7.1719,-7.1907,-7.2395,-7.2395,-7.2808,-7.3634,-7.3672,-7.3859,-7.4197,-7.4197,-7.4197,-7.4197,-7.4197,-7.4197,-5.5895,0.0,0.0,-6.0361,-6.1772,-6.2734,-6.3121,-6.3613,-6.4093,-6.455,-6.5165,-6.5919,-6.6743,-6.6041,-6.5974,-6.8002,-6.7326,-6.7176,-6.8978,-6.9203,-6.8865,-6.7964,-6.5749,-6.3571,-6.1731,-6.5373,-6.7251,-6.5749,-6.7851,-6.9203,-6.9203,-6.9203,-6.9203,-6.9203,-6.9203,-6.9203,-6.9203,-6.9203,-6.9203,-6.9203,-6.9466,-6.9579,-6.9616,-7.0442,-7.1156,-7.1719,-7.1944,-7.2019,-7.2057,-7.2282,-7.2395,-7.2395,-7.2395,-7.2395,-7.2395,-7.2395,-7.2245,-7.2094,-7.232,-7.2395,-7.2395,-7.2395,-7.2395,-7.2395,-7.2395,-7.2395,-7.2395,-7.2395,-7.2395,-7.2395,-7.2395,-7.2395,-7.2395,-7.2395,-7.2395,-7.2395,-7.2395,-7.2395,-7.2395,-7.2395,-7.2395,-7.2395,-7.2395,-7.2395,-7.2395,-7.2395,-7.2395,-7.2245,-7.1757,-7.1674,-7.1674,-7.1674,-7.1545,-7.1658,-7.1929,-7.1929,-7.2041,-7.2395,-7.2395,-7.2658,-7.3221,-7.3258,-7.3559,-7.4197,-7.4197,-7.4197,-7.4197,-7.4197,-7.4197,-7.4197,-7.4197,-7.4197,0.0,0.0,-5.5285,-5.9706,-6.0831,-6.1274,-6.2862,-6.3726,-6.418,-6.4217,-6.5186,-6.6249,-6.7067,-6.7584,-6.8189,-6.9015,-6.9128,-6.9128,-6.9203,-6.9203,-6.8039,-6.481,-6.4359,-6.1768,0.0,-6.0604,-6.5711,-6.8828,-6.9166,-6.9203,-6.9203,-6.9203,-6.9203,-6.9203,-6.9203,-6.9203,-6.9203,-6.9203,-6.9203,-6.9241,-7.0067,-7.0442,-7.048,-7.1306,-7.1681,-7.1757,-7.2507,-7.2845,-7.2921,-7.3784,-7.4122,-7.4122,-7.4122,-7.4122,-7.4122,-7.4122,-7.3596,-7.2996,-7.3822,-7.4122,-7.4122,-7.4122,-7.4122,-7.4122,-7.4122,-7.4122,-7.4122,-7.4122,-7.4122,-7.4122,-7.4122,-7.4122,-7.4122,-7.4122,-7.4122,-7.4122,-7.4122,-7.4122,-7.4122,-7.4122,-7.4122,-7.4122,-7.4122,-7.4122,-7.4122,-7.4122,-7.4122,-7.3559,-7.1907,-7.1591,-7.1499,-7.1499,-7.1499,-7.1836,-7.2623,-7.2791,-7.3221,-7.4085,-7.4122,-7.416,-7.416,-7.416,-7.416,-7.4197,-7.4197,-7.4197,-7.4197,-7.4197,-7.4197,-7.4197,-7.4197,-7.4197,0.0,0.0,-5.8432,-6.0241,-6.156,-6.263,-6.3603,-6.418,-6.4757,-6.5975,-6.4948,-6.4128,-6.5085,-6.3641,-6.3045,-6.5523,-6.4096,-6.4172,-6.8602,-6.5411,-6.3871,-6.7176,-6.3646,0.0,0.0,0.0,0.0,-6.2707,-6.6725,-6.9203,-6.9203,-6.9203,-6.9203,-6.9203,-6.9203,-6.9203,-6.9203,-6.9203,-6.9504,-7.0067,-7.0893,-7.1569,-7.2094,-7.2357,-7.2808,-7.3371,-7.3672,-7.3747,-7.3784,-7.4085,-7.4197,-7.4197,-7.4197,-7.4197,-7.4197,-7.4197,-7.4009,-7.3822,-7.4122,-7.4197,-7.4197,-7.4197,-7.4197,-7.4197,-7.4197,-7.4197,-7.4197,-7.4197,-7.4197,-7.4197,-7.4197,-7.4197,-7.4197,-7.4197,-7.4197,-7.4197,-7.4197,-7.4197,-7.4197,-7.4197,-7.4197,-7.4197,-7.4197,-7.4197,-7.4197,-7.4197,-7.4104,-7.3832,-7.3269,-7.3194,-7.3147,-7.3147,-7.3147,-7.3307,-7.3654,-7.3654,-7.3804,-7.4197,-7.4197,-7.4197,-7.4197,-7.4197,-7.4197,-7.4197,-7.4197,-7.4197,-7.4197,-7.4197,-7.4197,-7.4197,-7.4197,-7.4197,-5.3667,-5.6566,-5.9648,-6.0909,-6.2181,-6.332,-6.402,-6.4525,-6.5263,-6.6655,-6.5794,-6.465,-6.4107,-6.2401,-6.1768,-6.3946,-6.2482,-6.3008,-6.8452,-6.5523,-6.3984,-6.71,-6.3683,-6.2294,0.0,0.0,0.0,-6.1243,-6.5035,-6.7438,-6.7438,-6.7438,-6.8002,-6.9166,-6.9203,-6.9203,-6.9203,-6.9504,-7.0217,-7.1343,-7.1869,-7.2583,-7.3371,-7.3371,-7.3033,-7.2507,-7.3672,-7.3521,-7.2507,-7.3709,-7.4197,-7.4197,-7.4197,-7.4197,-7.4197,-7.4197,-7.4197,-7.4197,-7.4197,-7.4197,-7.4197,-7.4197,-7.4197,-7.4197,-7.4197,-7.4197,-7.4197,-7.4197,-7.4197,-7.4197,-7.4197,-7.4197,-7.4197,-7.4197,-7.4197,-7.4197,-7.4197,-7.4197,-7.4197,-7.4197,-7.4197,-7.4197,-7.4197,-7.4197,-7.4197,-7.4197,-7.4104,-7.4009,-7.4056,-7.4056,-7.4009,-7.4009,-7.4009,-7.4056,-7.4104,-7.4104,-7.4104,-7.4197,-7.4197,-7.4197,-7.4197,-7.4197,-7.4197,-7.4197,-7.4197,-7.4197,-7.4197,-7.4197,-7.4197,-7.4197,-7.4197,-7.4197,-5.5774,-5.7801,-5.9019,-6.1673,-6.2618,-6.3125,-6.387,-6.4714,-6.5485,-6.6109,-6.7197,-6.6982,0.0,0.0,-6.3646,-6.3984,-6.3909,-6.4998,-6.849,-6.8828,-6.7626,0.0,0.0,0.0,0.0,0.0,0.0,-6.4284,0.0,-6.4547,-6.4547,-6.4547,-6.5974,-6.9128,-6.9203,-6.9241,-6.9278,-7.0179,-7.1381,-7.2883,-7.2958,-7.3409,-7.4197,-7.4197,-7.247,-6.9654,-7.2845,-7.2395,-6.9729,-7.2883,-7.4197,-7.4197,-7.4197,-7.4197,-7.4197,-7.4197,-7.4197,-7.4197,-7.4197,-7.4197,-7.4197,-7.4197,-7.4197,-7.4197,-7.4197,-7.4197,-7.4197,-7.4197,-7.4197,-7.4197,-7.4197,-7.4197,-7.4197,-7.4197,-7.4197,-7.4197,-7.4197,-7.4197,-7.4197,-7.4197,-7.4197,-7.4197,-7.4197,-7.4197,-7.4197,-7.4197,-7.4104,-7.4056,-7.4151,-7.4104,-7.4009,-7.4009,-7.4009,-7.4009,-7.4009,-7.4104,-7.4197,-7.4197,-7.4197,-7.4197,-7.4197,-7.4197,-7.4197,-7.4197,-7.4197,-7.4197,-7.4197,-7.4197,-7.4197,-7.4197,-7.4197,-7.4197,-5.4136,-5.7173,-6.0716,-6.1328,-6.1842,-6.2384,-6.3184,-6.4327,-6.4875,-6.3468,-6.1939,-6.0011,0.0,0.0,0.0,-5.9778,-5.8502,0.0,-6.4735,-6.3383,0.0,-6.4096,0.0,-6.4923,-6.6537,-6.7476,0.0,0.0,-6.6575,-6.7964,-6.7964,-6.7964,-6.834,-6.9203,-6.9203,-6.9504,-7.0142,-7.1569,-7.247,-7.2921,-7.3559,-7.3972,-7.4197,-7.4197,-7.3747,-7.2996,-7.3822,-7.3709,-7.2996,-7.3859,-7.4197,-7.4197,-7.4197,-7.4197,-7.4197,-7.4197,-7.4197,-7.4197,-7.4197,-7.4197,-7.4197,-7.4197,-7.4197,-7.4197,-7.4197,-7.4197,-7.4197,-7.4197,-7.4197,-7.4197,-7.4197,-7.4197,-7.4197,-7.4197,-7.4197,-7.4197,-7.4197,-7.4197,-7.4197,-7.4197,-7.4197,-7.4197,-7.4197,-7.4197,-7.4197,-7.4197,-7.4151,-7.4104,-7.4056,-7.4009,-7.4009,-7.4009,-7.4104,-7.4151,-7.4151,-7.4151,-7.4197,-7.4197,-7.4197,-7.4197,-7.4197,-7.4197,-7.4197,-7.4197,-7.4197,-7.4197,-7.4197,-7.4197,-7.4197,-7.4197,-7.4197,-7.4197,-5.6034,-5.8343,-6.095,-6.0867,-6.1127,-6.1292,-6.0827,-6.1497,-6.1587,-5.9344,-5.8031,0.0,0.0,0.0,0.0,0.0,0.0,0.0,-6.3571,-6.267,-6.2181,0.0,-6.4284,0.0,-6.8903,-6.9027,-6.8197,0.0,-6.6838,-6.7063,-6.7063,-6.7063,-6.7701,-6.9166,-6.9579,-7.033,-7.1531,-7.2432,-7.3108,-7.3484,-7.3972,-7.4197,-7.4197,-7.4197,-7.3409,-7.2094,0.0,-7.3371,-7.2132,-7.3596,-7.4197,-7.4197,-7.4197,-7.4197,-7.4197,-7.4197,-7.4197,-7.4197,-7.4197,-7.4197,-7.4197,-7.4197,-7.4197,-7.4197,-7.4197,-7.4197,-7.4197,-7.4197,-7.4197,-7.4197,-7.4197,-7.4197,-7.4197,-7.4197,-7.4197,-7.4197,-7.4197,-7.4197,-7.4197,-7.4197,-7.4197,-7.4197,-7.4197,-7.4197,-7.4197,-7.4197,-7.4197,-7.4151,-7.4104,-7.4104,-7.4104,-7.4104,-7.4151,-7.4197,-7.4197,-7.4197,-7.4197,-7.4197,-7.4197,-7.4197,-7.4197,-7.4197,-7.4197,-7.4197,-7.4197,-7.4197,-7.4197,-7.4197,-7.4197,-7.4197,-7.4197,-7.4197,-5.8829,-5.9784,-6.0317,-6.0227,-6.0468,-6.0262,-5.8381,-5.8053,-5.7521,-5.5088,0.0,-5.4285,-5.1445,0.0,-5.3535,-5.7229,0.0,-5.9848,-6.2593,-6.3721,-6.4134,-6.3683,-6.4021,-6.5598,-6.8903,-6.8352,-6.8232,-6.9122,-6.6575,-6.496,-6.496,-6.496,-6.6312,-6.9278,-7.033,-7.1494,-7.2883,-7.2996,-7.3446,-7.4197,-7.4197,-7.4197,-7.4197,-7.4197,-7.262,-7.0029,-7.2958,-7.2545,-7.0104,-7.2996,-7.4197,-7.4197,-7.4197,-7.4197,-7.4197,-7.4197,-7.4197,-7.4197,-7.4197,-7.4197,-7.4197,-7.4197,-7.4197,-7.4197,-7.4197,-7.4197,-7.4197,-7.4197,-7.4197,-7.4197,-7.4197,-7.4197,-7.4197,-7.4197,-7.4197,-7.4197,-7.4197,-7.4197,-7.4197,-7.4197,-7.4197,-7.4197,-7.4197,-7.4197,-7.4197,-7.4197,-7.4197,-7.4197,-7.4197,-7.4197,-7.4197,-7.4197,-7.4197,-7.4197,-7.4197,-7.4197,-7.4197,-7.4197,-7.4197,-7.4197,-7.4197,-7.4197,-7.4197,-7.4197,-7.4197,-7.4197,-7.4197,-7.4197,-7.4197,-7.4197,-7.4197,-7.4197,-5.6597,-5.7701,-5.9485,-5.9485,-5.9844,-6.0086,-5.9663,-5.8614,0.0,0.0,0.0,-5.0552,-5.0483,-5.0643,0.0,-5.6803,0.0,0.0,0.0,0.0,-6.327,0.0,0.0,0.0,0.0,0.0,0.0,0.0,0.0,-6.8377,-6.8377,-6.8377,-6.894,-7.0217,-7.1719,-7.262,-7.2883,-7.3596,-7.4047,-7.4197,-7.4197,-7.4197,-7.4197,-7.4197,-7.3897,-7.3371,-7.3972,0.0,-7.3371,-7.3972,-7.4197,-7.4197,-7.4197,-7.4197,-7.4197,-7.4197,-7.4197,-7.4197,-7.4197,-7.4197,-7.4197,-7.4197,-7.4197,-7.4197,-7.4197,-7.4197,-7.4197,-7.4197,-7.4197,-7.4197,-7.4197,-7.4197,-7.4197,-7.4197,-7.4197,-7.4197,-7.4197,-7.4197,-7.4197,-7.4197,-7.4197,-7.4197,-7.4197,-7.4197,-7.4197,-7.4197,-7.4197,-7.4197,-7.4197,-7.4197,-7.4197,-7.4197,-7.4197,-7.4197,-7.4197,-7.4197,-7.4197,-7.4197,-7.4197,-7.4197,-7.4197,-7.4197,-7.4197,-7.4197,-7.4197,-7.4197,-7.4197,-7.4197,-7.4197,-7.4197,-7.4197,-7.4197,-5.5951,-5.719,-5.9251,-5.9149,-5.9351,-5.8681,-5.5514,0.0,0.0,0.0,0.0,-4.5753,-4.6086,0.0,0.0,0.0,0.0,0.0,0.0,0.0,0.0,0.0,0.0,0.0,0.0,0.0,0.0,0.0,0.0,-6.6431,-6.8651,-6.89,-6.9311,-7.0165,-7.1353,-7.2322,-7.3105,-7.3553,-7.374,-7.374,-7.374,-7.374,-7.374,-7.374,-7.3923,-7.4197,-7.3875,0.0,-7.1111,-7.2977,-7.2651,-7.1193,-7.3371,-7.4197,-7.4197,-7.4197,-7.4197,-7.4197,-7.4197,-7.4197,-7.4197,-7.4197,-7.4197,-7.4197,-7.4197,-7.4197,-7.4197,-7.4197,-7.4197,-7.4197,-7.4197,-7.4197,-7.4197,-7.4197,-7.4197,-7.4197,-7.4197,-7.4197,-7.4197,-7.4197,-7.4197,-7.4197,-7.4197,-7.4197,-7.4197,-7.4197,-7.4197,-7.4197,-7.4197,-7.4197,-7.4197,-7.4197,-7.4197,-7.4197,-7.4197,-7.4197,-7.4197,-7.4197,-7.4197,-7.4197,-7.4197,-7.4197,-7.4197,-7.4197,-7.4197,-7.4197,-7.4197,-7.4197,-7.4197,-7.4197,-7.4197,-7.4197,-5.6488,-5.7547,-5.9251,-5.9081,-5.9012,-5.7598,-5.2183,-5.0714,0.0,0.0,0.0,-4.2143,0.0,0.0,0.0,0.0,0.0,0.0,0.0,0.0,0.0,0.0,0.0,0.0,0.0,0.0,0.0,0.0,0.0,0.0,-6.8049,-6.8673,-6.9265,-6.9889,-7.0881,-7.1913,-7.3104,-7.3104,-7.3104,-7.3104,-7.3104,-7.3104,-7.3104,-7.3104,-7.3313,-7.3789,-7.3261,0.0,0.0,-7.1777,-7.1216,-6.8415,-7.2407,-7.3971,-7.3971,-7.3838,-7.3789,-7.3789,-7.3971,-7.3971,-7.4019,-7.4151,-7.4197,-7.4197,-7.4197,-7.4197,-7.4197,-7.4197,-7.4197,-7.4197,-7.4197,-7.4197,-7.4197,-7.4197,-7.4197,-7.4197,-7.4197,-7.4197,-7.4197,-7.4197,-7.4197,-7.4197,-7.4197,-7.4197,-7.4197,-7.4197,-7.4197,-7.4197,-7.4197,-7.4197,-7.4197,-7.4197,-7.4197,-7.4197,-7.4197,-7.4197,-7.4197,-7.4197,-7.4197,-7.4197,-7.4197,-7.4197,-7.4197,-7.4197,-7.4197,-7.4197,-7.4197,-7.4197,-7.4197,-7.4197,-7.4197,-7.4197,-5.8507,-5.9111,-5.9081,-5.9251,-5.9149,-5.815,-5.4839,0.0,0.0,0.0,-4.2901,-4.2032,-4.5411,0.0,0.0,0.0,0.0,-5.1718,0.0,0.0,0.0,0.0,0.0,0.0,0.0,0.0,0.0,0.0,0.0,0.0,-6.7557,-6.8972,-6.9853,-6.9926,-7.1394,-7.2239,-7.2426,-7.2426,-7.2426,-7.2426,-7.2426,-7.2426,-7.2426,-7.2426,-7.2426,-7.2483,-7.2426,0.0,0.0,-7.1589,-7.1216,-6.8372,-7.195,-7.3401,-7.3298,-7.2706,-7.2483,-7.2539,-7.3156,-7.3401,-7.3452,-7.4019,-7.4197,-7.4197,-7.4197,-7.4197,-7.4197,-7.4197,-7.4197,-7.4197,-7.4197,-7.4197,-7.4197,-7.4197,-7.4197,-7.4197,-7.4197,-7.4197,-7.4197,-7.4197,-7.4197,-7.4197,-7.4197,-7.4197,-7.4197,-7.4197,-7.4197,-7.4197,-7.4197,-7.4197,-7.4197,-7.4197,-7.4197,-7.4197,-7.4197,-7.4197,-7.4197,-7.4197,-7.4197,-7.4197,-7.4197,-7.4197,-7.4197,-7.4197,-7.4197,-7.4197,-7.4197,-7.4197,-7.4197,-7.4197,-7.4197,-7.4197,-5.4321,-5.6542,-5.9012,-5.9251,-5.9149,-5.7736,-5.2908,0.0,0.0,-4.3699,-4.1733,-4.1345,-4.281,-4.3067,0.0,0.0,-4.8925,0.0,0.0,0.0,0.0,0.0,0.0,0.0,0.0,0.0,0.0,0.0,0.0,0.0,-6.6332,-6.7981,-6.8848,-6.8848,-7.0401,-7.1422,-7.1757,-7.1757,-7.1757,-7.1757,-7.1757,-7.1757,-7.1757,-7.1757,-7.1961,-7.2312,-7.1902,0.0,0.0,-6.9614,-6.8693,-6.3984,-7.0249,-7.2687,-7.2743,-7.2852,-7.2906,-7.296,-7.3641,-7.3875,-7.3875,-7.4104,-7.4197,-7.4197,-7.4197,-7.4197,-7.4197,-7.4197,-7.4197,-7.4197,-7.4197,-7.4197,-7.4197,-7.4197,-7.4197,-7.4197,-7.4197,-7.4197,-7.4197,-7.4197,-7.4197,-7.4197,-7.4197,-7.4197,-7.4197,-7.4197,-7.4197,-7.4197,-7.4197,-7.4197,-7.4197,-7.4197,-7.4197,-7.4197,-7.4197,-7.4197,-7.4197,-7.4197,-7.4197,-7.4197,-7.4197,-7.4197,-7.4197,-7.4197,-7.4197,-7.4197,-7.4197,-7.4197,-7.4197,-7.4197,-7.4197,-7.4197,-5.2161,-5.5334,-5.9012,-5.9351,-5.8559,-5.6322,0.0,0.0,0.0,-4.194,-4.0871,-4.0871,-4.0871,-4.0871,-4.2043,-4.5665,-4.7079,-4.9585,0.0,0.0,0.0,0.0,0.0,0.0,0.0,0.0,0.0,0.0,0.0,0.0,-6.5497,-6.7135,-6.7955,-6.8088,-6.9658,-7.075,-7.1139,-7.1139,-7.1139,-7.1139,-7.1139,-7.0526,-6.9408,-7.0598,-7.0707,-7.0069,-7.0789,0.0,0.0,-6.8717,-6.7695,-6.2718,-6.9409,-7.2021,-7.208,-7.2349,-7.2463,-7.2556,-7.3156,-7.3401,-7.3401,-7.3553,-7.3789,-7.3923,-7.3923,-7.4056,-7.4197,-7.4197,-7.4197,-7.4197,-7.4197,-7.4197,-7.4197,-7.4197,-7.4197,-7.4197,-7.4197,-7.4197,-7.4197,-7.4197,-7.4197,-7.4197,-7.4197,-7.4197,-7.4197,-7.4197,-7.4197,-7.4197,-7.4197,-7.4197,-7.4197,-7.4197,-7.4197,-7.4197,-7.4197,-7.4197,-7.4197,-7.4197,-7.4197,-7.4197,-7.4197,-7.4197,-7.4197,-7.4197,-7.4197,-7.4197,-7.4197,-7.4197,-7.4197,-7.4197,-7.4197,-7.4347,-5.3844,-5.6767,-5.8978,-5.9617,-5.7126,-5.3798,0.0,0.0,0.0,-4.1526,-4.0871,-4.0871,-4.0871,-4.0871,-4.1871,-4.4941,-4.6734,-4.8769,-5.1839,0.0,0.0,0.0,0.0,0.0,0.0,0.0,0.0,0.0,0.0,0.0,-6.5212,-6.6734,-6.7788,-6.8088,-6.9658,-7.0514,-7.0514,-7.0514,-7.0514,-7.0514,-7.0514,-6.8444,-6.4804,-6.873,-6.8373,-6.4876,0.0,0.0,0.0,-6.9694,-6.9332,-6.6482,-7.0012,-7.1422,-7.1359,-7.075,-7.0514,-7.0615,-7.1232,-7.1422,-7.1547,-7.2138,-7.2797,-7.3298,-7.3298,-7.374,-7.4197,-7.4197,-7.4197,-7.4197,-7.4197,-7.4197,-7.4197,-7.4197,-7.4197,-7.4197,-7.4197,-7.4197,-7.4197,-7.4197,-7.4197,-7.4197,-7.4197,-7.4197,-7.4197,-7.4197,-7.4197,-7.4197,-7.4197,-7.4197,-7.4197,-7.4197,-7.4197,-7.4197,-7.4197,-7.4197,-7.4197,-7.4197,-7.4197,-7.4197,-7.4197,-7.4197,-7.4197,-7.4197,-7.4197,-7.4197,-7.4197,-7.4197,-7.4197,-7.4197,-7.4197,-7.4648,-4.8231,-5.0645,-5.2934,-5.3404,-5.2497,-5.0679,-4.7746,0.0,0.0,0.0,0.0,0.0,-4.1047,-4.0953,-4.1871,-4.4941,-4.67,-4.9493,-5.4632,0.0,0.0,0.0,0.0,0.0,0.0,0.0,0.0,0.0,0.0,0.0,-6.4702,-6.6321,-6.7479,-6.8088,-6.9658,-7.0514,-7.0514,-7.0514,-7.0514,-7.0514,-7.0514,-6.8444,-6.4733,-6.8694,-6.8337,0.0,0.0,0.0,0.0,-6.9167,-6.8514,-6.5502,-6.9304,-7.0781,-7.0781,-7.1009,-7.1139,-7.1167,-7.1818,-7.2021,-7.2021,-7.2255,-7.2426,-7.2595,-7.2595,-7.3364,-7.4197,-7.4197,-7.4197,-7.4197,-7.4197,-7.4197,-7.4197,-7.4197,-7.4197,-7.4197,-7.4197,-7.4197,-7.4197,-7.4197,-7.4197,-7.4197,-7.4197,-7.4197,-7.4197,-7.4197,-7.4197,-7.4197,-7.4197,-7.4197,-7.4197,-7.4197,-7.4197,-7.4197,-7.4197,-7.4197,-7.4197,-7.4197,-7.4197,-7.4197,-7.4197,-7.4197,-7.4197,-7.4197,-7.4197,-7.4197,-7.4197,-7.4197,-7.4197,-7.4197,-7.476,-7.5436,0.0,-4.752,-4.986,-5.0397,-4.9472,0.0,0.0,0.0,0.0,0.0,0.0,0.0,0.0,-4.1933,-4.2664,-4.2837,-4.6527,-5.0149,-5.2218,0.0,0.0,0.0,0.0,0.0,0.0,0.0,0.0,0.0,0.0,0.0,-6.4358,-6.5968,-6.7094,-6.7685,-6.9384,-7.0272,-7.0272,-7.041,-7.0514,-7.0514,-7.0514,-6.8444,-6.4733,-6.8694,-6.8337,0.0,0.0,0.0,0.0,-6.9479,-6.9051,-6.7088,-6.9551,-7.0514,-7.0582,-7.0913,-7.1074,-7.1139,-7.1511,-7.1635,-7.1635,-7.1635,-7.1781,-7.2021,-7.2255,-7.3013,-7.3875,-7.3875,-7.4019,-7.4197,-7.4197,-7.4197,-7.4197,-7.4197,-7.4197,-7.4197,-7.4197,-7.4197,-7.4197,-7.4197,-7.4197,-7.4197,-7.4197,-7.4197,-7.4197,-7.4197,-7.4197,-7.4197,-7.4197,-7.4197,-7.4197,-7.4197,-7.4197,-7.4197,-7.4197,-7.4197,-7.4197,-7.4197,-7.4197,-7.4197,-7.4197,-7.4197,-7.4197,-7.4197,-7.4197,-7.4197,-7.4197,-7.4197,-7.4347,-7.4648,-7.5173,-7.6,0.0,0.0,0.0,0.0,0.0,0.0,0.0,0.0,0.0,0.0,0.0,0.0,0.0,0.0,-4.4285,-3.9802,-4.6424,-5.0666,-4.6424,0.0,0.0,0.0,0.0,0.0,0.0,0.0,0.0,0.0,0.0,0.0,-6.4039,-6.5607,-6.659,-6.6952,-6.8787,-6.9813,-6.9849,-7.0202,-7.0303,-7.0018,-7.0303,-6.8235,-6.4341,-6.8587,-6.8337,0.0,0.0,0.0,0.0,-7.0514,-7.0514,-7.0514,-7.0514,-7.0514,-7.0514,-7.0514,-7.0514,-7.0514,-7.0514,-7.0514,-7.0514,-7.0514,-7.0913,-7.1485,-7.208,-7.2743,-7.3298,-7.3298,-7.374,-7.4197,-7.4197,-7.4197,-7.4197,-7.4197,-7.4197,-7.4197,-7.4197,-7.4197,-7.4197,-7.4197,-7.4197,-7.4197,-7.4197,-7.4197,-7.4197,-7.4197,-7.4197,-7.4197,-7.4197,-7.4197,-7.4197,-7.4197,-7.4197,-7.4197,-7.4197,-7.4197,-7.4197,-7.4197,-7.4197,-7.4197,-7.4197,-7.4197,-7.4197,-7.4197,-7.4197,-7.4197,-7.4197,-7.4197,-7.461,-7.5399,-7.5436,-7.6338,-4.0881,0.0,-4.2655,-4.3059,0.0,0.0,0.0,0.0,0.0,0.0,0.0,0.0,0.0,0.0,-4.7989,-4.4508,-4.8135,-5.1011,-4.9907,0.0,0.0,0.0,0.0,0.0,0.0,0.0,0.0,0.0,0.0,-6.3673,-6.3712,-6.5199,-6.6104,-6.6179,-6.798,-6.9157,-6.9452,-6.9525,-6.8258,-6.5526,-6.8607,-6.6576,-6.0344,-6.7338,-6.8337,0.0,0.0,0.0,-7.0514,-7.0514,-7.0514,-7.0514,-7.0514,-7.0514,-7.0514,-7.0514,-7.0514,-7.0514,-7.0514,-7.0514,-7.0514,-7.0514,-7.0615,-7.0847,-7.1422,-7.2406,-7.3298,-7.3298,-7.374,-7.4197,-7.4197,-7.4197,-7.4197,-7.4197,-7.4197,-7.4197,-7.4197,-7.4197,-7.4197,-7.4197,-7.4197,-7.4197,-7.4197,-7.4197,-7.4197,-7.4197,-7.4197,-7.4197,-7.4197,-7.4197,-7.4197,-7.4197,-7.4197,-7.4197,-7.4197,-7.4197,-7.4197,-7.4197,-7.4197,-7.4197,-7.4197,-7.4197,-7.4197,-7.4197,-7.4197,-7.4197,-7.4197,-7.4197,-7.461,-7.5399,-7.6075,-7.6938,-4.0492,-4.0646,-4.1137,-4.2414,-4.2034,0.0,0.0,0.0,0.0,0.0,0.0,0.0,0.0,0.0,0.0,-4.5875,-4.7513,-4.9769,0.0,0.0,0.0,0.0,0.0,0.0,0.0,0.0,0.0,0.0,0.0,-6.36,-6.36,-6.5048,-6.5876,-6.5876,-6.7557,-6.8628,-6.9008,-6.9231,-6.7411,-6.3851,-6.7939,-6.6869,-6.1448,-6.7665,-6.9337,0.0,0.0,0.0,-7.0371,-6.8551,-6.8658,-7.0015,-7.0371,-7.0264,-7.0015,-7.0371,-7.0514,-7.0514,-7.0514,-7.0514,-7.0514,-7.0514,-7.0514,-7.0547,-7.0913,-7.1671,-7.252,-7.3141,-7.374,-7.4197,-7.4197,-7.4197,-7.4197,-7.4197,-7.4197,-7.4197,-7.4197,-7.4197,-7.4197,-7.4197,-7.4197,-7.4197,-7.4197,-7.4197,-7.4197,-7.4197,-7.4197,-7.4197,-7.4197,-7.4197,-7.4197,-7.4197,-7.4197,-7.4197,-7.4197,-7.4197,-7.4197,-7.4197,-7.4197,-7.4197,-7.4197,-7.4197,-7.4197,-7.4197,-7.4197,-7.4197,-7.4197,-7.4573,-7.5173,-7.5962,-7.6826,-7.7689,-4.1339,-4.1373,-4.1933,-4.4252,-4.3234,0.0,0.0,0.0,0.0,0.0,0.0,0.0,0.0,0.0,0.0,0.0,0.0,0.0,0.0,0.0,0.0,0.0,0.0,0.0,0.0,0.0,0.0,0.0,0.0,-6.36,-6.36,-6.5048,-6.5876,-6.5876,-6.7325,-6.8241,-6.8628,-6.8932,-6.7195,-6.3583,-6.7729,-6.7693,-6.4185,-6.8425,-7.0272,-7.0163,0.0,0.0,-7.0092,-6.6678,-6.6891,-6.9346,-7.0022,-6.9949,-6.9483,-7.0196,-7.0445,-7.0514,-7.0514,-7.0514,-7.0514,-7.0514,-7.0514,-7.0514,-7.0615,-7.1009,-7.1635,-7.2834,-7.3591,-7.4104,-7.4151,-7.4197,-7.4197,-7.4197,-7.4197,-7.4197,-7.4197,-7.4197,-7.4197,-7.4197,-7.4197,-7.4197,-7.4197,-7.4197,-7.4197,-7.4197,-7.4197,-7.4197,-7.4197,-7.4197,-7.4197,-7.4197,-7.4197,-7.4197,-7.4197,-7.4197,-7.4197,-7.4197,-7.4197,-7.4197,-7.4197,-7.4197,-7.4197,-7.4197,-7.4197,-7.4272,-7.4385,-7.5061,-7.5887,-7.6826,-7.7539,-7.8328,-4.1948,-4.2117,-4.2523,-4.4202,-4.3076,0.0,0.0,0.0,0.0,0.0,0.0,0.0,0.0,0.0,0.0,0.0,0.0,0.0,0.0,0.0,0.0,0.0,0.0,0.0,0.0,0.0,0.0,0.0,0.0,-6.36,-6.36,-6.5048,-6.5876,-6.5876,-6.7325,-6.8083,-6.8162,-6.8241,-6.6491,-6.3066,-6.7043,-6.698,-6.3653,-6.7658,-6.9452,-6.9417,0.0,-6.8889,-6.9417,-6.8819,-6.8854,-6.9276,-6.9417,-6.9599,-6.9814,-6.992,-7.0202,-7.0514,-7.0514,-7.0514,-7.0514,-7.0514,-7.0514,-7.0615,-7.1139,-7.1295,-7.1511,-7.2255,-7.2906,-7.3591,-7.4104,-7.4197,-7.4197,-7.4197,-7.4197,-7.4197,-7.4197,-7.4197,-7.4197,-7.4197,-7.4197,-7.4197,-7.4197,-7.4197,-7.4197,-7.4197,-7.4197,-7.4197,-7.4197,-7.4197,-7.4197,-7.4197,-7.4197,-7.4197,-7.4197,-7.4197,-7.4197,-7.4197,-7.4197,-7.4197,-7.4197,-7.4197,-7.4197,-7.4197,-7.4197,-7.4535,-7.5211,-7.5324,-7.6187,-7.7689,-7.7839,-7.8328,-4.2692,-4.2591,-4.3132,-4.6684,-4.5072,0.0,0.0,0.0,0.0,0.0,0.0,0.0,0.0,0.0,0.0,0.0,0.0,0.0,0.0,0.0,0.0,0.0,0.0,0.0,0.0,0.0,0.0,0.0,0.0,0.0,-6.3892,-6.4893,-6.5613,-6.5994,-6.6988,-6.7704,-6.8083,-6.8083,-6.6298,-6.2747,-6.6746,-6.676,-6.331,-6.7443,-6.9305,-6.92,0.0,-6.7302,-6.913,-6.6952,-6.7092,-6.8708,-6.913,-6.9133,-6.8962,-6.9457,-6.967,-6.9813,-6.9813,-6.9991,-7.0202,-7.0202,-7.0341,-7.0547,-7.0847,-7.0913,-7.1009,-7.1635,-7.252,-7.335,-7.3641,-7.3971,-7.4197,-7.4197,-7.4197,-7.4197,-7.4197,-7.4197,-7.4197,-7.4197,-7.4197,-7.4197,-7.4197,-7.4197,-7.4197,-7.4197,-7.4197,-7.4197,-7.4197,-7.4197,-7.4197,-7.4197,-7.4197,-7.4197,-7.4197,-7.4197,-7.4197,-7.4197,-7.4197,-7.4197,-7.4197,-7.4197,-7.4197,-7.4197,-7.4648,-7.5023,-7.5399,-7.63,-7.7126,-7.7915,-7.8328,-7.8741,-4.3267,-4.2997,-4.3606,0.0,0.0,0.0,0.0,0.0,0.0,0.0,0.0,0.0,0.0,0.0,0.0,0.0,0.0,0.0,0.0,0.0,0.0,0.0,0.0,0.0,0.0,0.0,0.0,0.0,0.0,0.0,-6.418,-6.4693,-6.5382,-6.611,-6.6677,-6.7325,-6.8083,-6.8083,-6.6669,-6.3841,-6.7011,-6.7023,-6.4317,-6.7571,-6.9008,-6.8833,-6.579,-6.6209,-6.8763,-6.572,-6.5894,-6.8169,-6.8763,-6.8698,-6.8351,-6.9021,-6.9305,-6.9305,-6.9305,-6.9525,-6.9742,-6.9742,-6.9991,-7.0202,-7.0341,-7.0341,-7.0478,-7.1009,-7.1998,-7.2889,-7.305,-7.3401,-7.374,-7.374,-7.3838,-7.3971,-7.3971,-7.4104,-7.4197,-7.4197,-7.4197,-7.4197,-7.4197,-7.4197,-7.4197,-7.4197,-7.4197,-7.4197,-7.4197,-7.4197,-7.4197,-7.4197,-7.4197,-7.4197,-7.4197,-7.4197,-7.4197,-7.4197,-7.4197,-7.4197,-7.4197,-7.4197,-7.431,-7.4498,-7.5098,-7.5587,-7.6,-7.7276,-7.799,-7.8177,-7.8816,-7.9116,-4.3403,-4.3369,0.0,0.0,0.0,0.0,0.0,0.0,0.0,0.0,0.0,0.0,0.0,0.0,0.0,0.0,0.0,0.0,0.0,0.0,0.0,0.0,0.0,0.0,0.0,0.0,0.0,0.0,0.0,0.0,-6.418,-6.4693,-6.5382,-6.611,-6.6677,-6.7325,-6.8083,-6.8083,-6.7945,-6.7704,-6.798,-6.8024,-6.7782,-6.8059,-6.8162,-6.8162,-6.7886,-6.792,-6.8162,-6.7886,-6.7886,-6.8093,-6.8162,-6.8362,-6.8711,-6.9122,-6.9305,-6.9305,-6.9305,-6.9305,-6.9379,-6.9379,-6.9379,-6.9452,-6.9813,-6.9956,-7.0062,-7.041,-7.1009,-7.1635,-7.2255,-7.2426,-7.2426,-7.2426,-7.2906,-7.335,-7.335,-7.3789,-7.4197,-7.4197,-7.4197,-7.4197,-7.4197,-7.4197,-7.4197,-7.4197,-7.4197,-7.4197,-7.4197,-7.4197,-7.4197,-7.4197,-7.4197,-7.4197,-7.4197,-7.4197,-7.4197,-7.4197,-7.4197,-7.4197,-7.4197,-7.4197,-7.4535,-7.5286,-7.5361,-7.615,-7.7727,-7.7839,-7.829,-7.9041,-7.9079,-7.9116,-4.3301,-4.3064,0.0,0.0,0.0,0.0,0.0,0.0,0.0,0.0,0.0,0.0,0.0,0.0,0.0,0.0,0.0,0.0,0.0,0.0,0.0,0.0,0.0,0.0,0.0,0.0,0.0,0.0,0.0,0.0,-6.4533,-6.453,-6.5044,-6.6259,-6.6305,-6.6876,-6.8083,-6.8083,-6.8083,-6.8083,-6.8083,-6.8083,-6.8083,-6.8083,-6.8083,-6.8083,-6.8083,-6.8083,-6.8083,-6.8083,-6.8083,-6.8083,-6.8083,-6.8162,-6.8319,-6.8474,-6.8551,-6.8551,-6.8551,-6.8705,-6.8932,-6.8932,-6.9305,-6.967,-6.9813,-7.0062,-7.0272,-7.0445,-7.0682,-7.0943,-7.1573,-7.2021,-7.2312,-7.2312,-7.2483,-7.2797,-7.3246,-7.3452,-7.374,-7.4151,-7.4197,-7.4197,-7.4197,-7.4197,-7.4197,-7.4197,-7.4197,-7.4197,-7.4197,-7.4197,-7.4197,-7.4197,-7.4197,-7.4197,-7.4197,-7.4197,-7.4197,-7.4197,-7.4197,-7.4423,-7.4911,-7.4948,-7.5324,-7.615,-7.6675,-7.7276,-7.7877,-7.8403,-7.8816,-7.9116,-7.9116,-7.9116,-4.3064,-4.2861,0.0,0.0,0.0,0.0,0.0,0.0,0.0,0.0,0.0,0.0,0.0,0.0,0.0,0.0,0.0,0.0,0.0,0.0,0.0,0.0,0.0,0.0,0.0,0.0,0.0,0.0,0.0,0.0,0.0,-6.4428,-6.4948,-6.6373,-6.6145,-6.6677,-6.8083,-6.8083,-6.8083,-6.8083,-6.8083,-6.8083,-6.8083,-6.8083,-6.8083,-6.8083,-6.8083,-6.8083,-6.8083,-6.8083,-6.8083,-6.8083,-6.8083,-6.8083,-6.8083,-6.8083,-6.8083,-6.8083,-6.8083,-6.8241,-6.8474,-6.8474,-6.8857,-6.9379,-6.9452,-6.9813,-7.0132,-7.0272,-7.041,-7.0615,-7.1009,-7.1386,-7.1721,-7.1721,-7.1842,-7.2138,-7.2576,-7.2997,-7.3401,-7.3875,-7.4104,-7.4197,-7.4197,-7.4197,-7.4197,-7.4197,-7.4197,-7.4197,-7.4197,-7.4197,-7.4197,-7.4197,-7.4197,-7.4197,-7.4197,-7.4197,-7.431,-7.4573,-7.4573,-7.4836,-7.5361,-7.5624,-7.6187,-7.6976,-7.7577,-7.8027,-7.829,-7.8816,-7.9116,-7.9116,-7.9116,-7.9116,-4.2726,0.0,0.0,0.0,0.0,0.0,0.0,0.0,0.0,0.0,0.0,0.0,0.0,0.0,0.0,0.0,0.0,0.0,0.0,0.0,0.0,0.0,0.0,0.0,0.0,0.0,0.0,0.0,0.0,0.0,0.0,-6.4498,-6.5021,-6.6373,-6.6219,-6.672,-6.8083,-6.8083,-6.8083,-6.8083,-6.8083,-6.8083,-6.8083,-6.8083,-6.8083,-6.8083,-6.8083,-6.8083,-6.8083,-6.8083,-6.8083,-6.8083,-6.8083,-6.8083,-6.8083,-6.8083,-6.8083,-6.8083,-6.8083,-6.8083,-6.8083,-6.8083,-6.8083,-6.8162,-6.8551,-6.9008,-6.9379,-6.9742,-7.0202,-7.0514,-7.0514,-7.0514,-7.0514,-7.0514,-7.0979,-7.1422,-7.1422,-7.2406,-7.3298,-7.3298,-7.374,-7.4197,-7.4197,-7.4197,-7.4197,-7.4197,-7.4197,-7.4197,-7.4197,-7.4197,-7.4197,-7.4197,-7.4197,-7.4197,-7.4197,-7.4197,-7.4535,-7.5361,-7.5399,-7.5399,-7.5399,-7.6187,-7.7013,-7.7877,-7.7915,-7.829,-7.9116,-7.9116,-7.9116,-7.9116,-7.9116,-7.9116,-4.4384,0.0,0.0,0.0,0.0,0.0,0.0,0.0,0.0,0.0,0.0,0.0,0.0,0.0,0.0,0.0,0.0,0.0,0.0,0.0,0.0,0.0,0.0,0.0,0.0,0.0,0.0,0.0,0.0,0.0,0.0,-6.4498,-6.5021,-6.6373,-6.6219,-6.672,-6.8083,-6.8083,-6.8083,-6.8083,-6.8083,-6.8083,-6.8083,-6.8083,-6.8083,-6.8083,-6.8083,-6.8083,-6.8083,-6.8083,-6.8083,-6.8083,-6.8083,-6.8083,-6.8083,-6.8083,-6.8083,-6.8083,-6.8083,-6.8083,-6.8083,-6.8083,-6.8319,-6.8551,-6.8705,-6.9008,-6.9305,-6.9452,-6.9598,-6.967,-6.967,-6.967,-6.9813,-7.0376,-7.0615,-7.0913,-7.1295,-7.1696,-7.2116,-7.2483,-7.3104,-7.3591,-7.3591,-7.3923,-7.4197,-7.4197,-7.4197,-7.4197,-7.4197,-7.4197,-7.4197,-7.4197,-7.4197,-7.4423,-7.4986,-7.5023,-7.5399,-7.6187,-7.6826,-7.7164,-7.7164,-7.7389,-7.7915,-7.8741,-7.8741,-7.8853,-7.9116,-7.9116,-7.9116,-7.9116,-7.9116,-7.9116,0.0,0.0,0.0,0.0,0.0,0.0,0.0,0.0,0.0,0.0,0.0,0.0,0.0,0.0,0.0,0.0,0.0,0.0,0.0,0.0,0.0,0.0,0.0,0.0,0.0,0.0,0.0,0.0,0.0,0.0,0.0,-6.4568,-6.5127,-6.6373,-6.6294,-6.6796,-6.8083,-6.8083,-6.8083,-6.8083,-6.8083,-6.8083,-6.8083,-6.8083,-6.8083,-6.8083,-6.8083,-6.8083,-6.8083,-6.8083,-6.8083,-6.8083,-6.8083,-6.8083,-6.8083,-6.8083,-6.8083,-6.8083,-6.8083,-6.8083,-6.8083,-6.8083,-6.8241,-6.8474,-6.8474,-6.8781,-6.9083,-6.9083,-6.9157,-6.9305,-6.9305,-6.9305,-6.9452,-6.9885,-7.0062,-7.0166,-7.0678,-7.1002,-7.135,-7.216,-7.2852,-7.335,-7.3641,-7.3971,-7.4197,-7.4197,-7.4197,-7.4197,-7.4197,-7.4498,-7.4685,-7.4685,-7.4948,-7.5361,-7.5849,-7.5887,-7.6225,-7.7051,-7.7614,-7.8027,-7.8365,-7.8365,-7.859,-7.9079,-7.9116,-7.9116,-7.9116,-7.9116,-7.9116,-7.9116,-7.9116,-7.9116,0.0,0.0,0.0,0.0,0.0,0.0,0.0,0.0,0.0,0.0,0.0,0.0,0.0,0.0,0.0,0.0,0.0,0.0,0.0,0.0,0.0,0.0,0.0,0.0,0.0,0.0,0.0,0.0,0.0,0.0,0.0,-6.4706,-6.5163,-6.6268,-6.6408,-6.6913,-6.798,-6.8049,-6.8083,-6.8083,-6.8083,-6.8083,-6.8083,-6.8083,-6.8083,-6.8083,-6.8083,-6.8083,-6.8083,-6.8083,-6.8083,-6.8083,-6.8083,-6.8083,-6.8083,-6.8083,-6.8083,-6.8083,-6.8083,-6.8083,-6.8083,-6.8083,-6.8083,-6.8083,-6.8083,-6.8319,-6.8628,-6.8628,-6.8932,-6.9231,-6.9231,-6.9231,-6.9231,-6.9231,-6.9231,-6.9379,-6.9742,-7.0303,-7.093,-7.1925,-7.265,-7.335,-7.4084,-7.4263,-7.4347,-7.4423,-7.4423,-7.4423,-7.4423,-7.5061,-7.5511,-7.5511,-7.615,-7.6638,-7.6713,-7.6713,-7.7089,-7.7952,-7.799,-7.8328,-7.9079,-7.9116,-7.9116,-7.9116,-7.9116,-7.9116,-7.9116,-7.9116,-7.9116,-7.9116,-7.9116,-7.9116,0.0,0.0,0.0,0.0,0.0,0.0,0.0,0.0,0.0,0.0,0.0,0.0,0.0,0.0,0.0,0.0,0.0,0.0,0.0,0.0,0.0,0.0,0.0,0.0,0.0,0.0,0.0,0.0,0.0,0.0,-6.4706,-6.4706,-6.4953,-6.5538,-6.6276,-6.682,-6.7221,-6.7964,-6.8241,0.0,-6.8083,-6.8083,-6.8083,-6.8083,-6.8083,-6.8083,-6.8083,-6.8083,-6.8083,-6.8083,-6.8083,-6.8083,-6.8083,-6.8083,-6.8083,-6.8083,-6.8083,-6.8083,-6.8083,-6.8083,-6.8083,-6.8083,-6.8083,-6.8083,-6.8083,-6.8162,-6.8241,-6.8241,-6.8319,-6.8397,-6.8397,-6.8397,-6.8397,-6.8397,-6.8857,-6.9305,-6.9379,-6.949,-6.9885,-7.0673,-7.1464,-7.2516,-7.3902,-7.4711,-7.5361,-7.6,-7.6075,-7.6075,-7.6075,-7.6225,-7.6338,-7.6338,-7.6525,-7.6901,-7.7539,-7.7614,-7.7952,-7.8778,-7.8853,-7.8928,-7.9079,-7.9116,-7.9116,-7.9116,-7.9116,-7.9116,-7.9116,-7.9116,-7.9116,-7.9116,-7.9116,-7.9116,0.0,0.0,0.0,0.0,0.0,0.0,0.0,0.0,0.0,0.0,0.0,0.0,0.0,0.0,0.0,0.0,0.0,0.0,0.0,0.0,0.0,0.0,0.0,0.0,0.0,0.0,0.0,0.0,0.0,-6.4706,-6.4706,-6.4706,-6.4918,-6.5438,-6.6244,-6.6865,-6.7134,-6.8093,-6.8474,-6.8241,-6.8241,-6.8162,-6.8083,-6.8083,-6.8083,-6.8083,-6.8083,-6.8083,-6.8083,-6.8083,-6.8083,-6.8083,-6.8083,-6.8083,-6.8083,-6.8083,-6.8083,-6.8083,-6.8083,-6.8083,-6.8083,-6.8083,-6.8083,-6.8083,-6.8083,-6.8083,-6.8083,-6.8083,-6.8083,-6.8083,-6.8083,-6.8083,-6.8187,-6.8566,-6.8674,-6.8886,-6.9497,-6.9567,-7.005,-7.1878,-7.2527,-7.3369,-7.5023,-7.572,-7.6102,-7.6331,-7.6504,-7.6504,-7.6256,-7.683,-7.7153,-7.7005,-7.7441,-7.7941,-7.8241,-7.8278,-7.8466,-7.8878,-7.8775,-7.8827,-7.9116,-7.8827,-7.8827,-7.9116,-7.9116,-7.9116,-7.9116,-7.9116,-7.9116,-7.9116,-7.9116,-7.9116,0.0,0.0,0.0,0.0,0.0,0.0,0.0,0.0,0.0,0.0,0.0,0.0,0.0,0.0,0.0,0.0,0.0,0.0,0.0,0.0,0.0,0.0,0.0,0.0,0.0,0.0,0.0,0.0,0.0,-6.4637,-6.4568,-6.4637,-6.4883,-6.5301,-6.6246,-6.683,-6.7038,-6.8211,-6.8628,-6.8397,-6.8397,-6.8319,-6.8083,-6.8083,-6.8083,-6.8083,-6.8083,-6.8083,-6.8083,-6.8083,-6.8083,-6.8083,-6.8083,-6.8083,-6.8083,-6.8083,-6.8083,-6.8083,-6.8083,-6.8083,-6.8083,-6.8083,-6.8083,-6.8083,-6.8083,-6.8083,-6.8083,-6.8083,-6.8083,-6.8083,-6.8083,-6.8083,-6.829,-6.9084,-6.8773,-6.8577,-6.9767,-7.0019,-7.0704,-7.3158,-7.4061,-7.4785,-7.6215,-7.6743,-7.6893,-7.6565,-7.6718,-7.6718,-7.6287,-7.7251,-7.7866,-7.7573,-7.8364,-7.8827,-7.8655,-7.8602,-7.8602,-7.8602,-7.8312,-7.8421,-7.8929,-7.8474,-7.8474,-7.9016,-7.9066,-7.9066,-7.9116,-7.9116,-7.9116,-7.9116,-7.9116,-7.9116,0.0,0.0,0.0,0.0,0.0,0.0,0.0,0.0,0.0,0.0,0.0,0.0,0.0,0.0,0.0,0.0,0.0,0.0,0.0,0.0,0.0,0.0,0.0,0.0,0.0,0.0,0.0,0.0,-6.4287,-6.4568,-6.4182,-6.4498,-6.4638,-6.4426,-6.6073,-6.6698,-6.6125,-6.8044,-6.8816,-6.8397,-6.8397,-6.8319,-6.8083,-6.8083,-6.8083,-6.8083,-6.8083,-6.8083,-6.8083,-6.8083,-6.8083,-6.8083,-6.8083,-6.8083,-6.8083,-6.8083,-6.8083,-6.8083,-6.8083,-6.8083,-6.8083,-6.8083,-6.8083,-6.8083,-6.8083,-6.8083,-6.8083,-6.8083,-6.8083,-6.8083,-6.8083,-6.8083,-6.829,-6.9084,-6.9187,-6.9325,-7.0165,-7.0303,-7.0625,-7.1633,-7.3712,-7.5359,-7.5809,-7.7088,-7.7977,-7.7923,-7.7977,-7.7977,-7.7868,-7.8034,-7.8163,-7.8108,-7.8238,-7.8312,-7.8257,-7.8257,-7.8257,-7.8257,-7.8202,-7.8257,-7.8312,-7.8257,-7.8367,-7.876,-7.876,-7.8864,-7.9116,-7.9116,-7.9116,-7.9116,-7.9116,-7.9116,0.0,0.0,0.0,0.0,0.0,0.0,0.0,0.0,0.0,0.0,0.0,0.0,0.0,0.0,0.0,0.0,0.0,0.0,0.0,0.0,0.0,0.0,0.0,0.0,0.0,0.0,0.0,0.0,-6.393,-6.4287,-6.4111,-6.4498,-6.4637,-6.4463,-6.5724,-6.6353,-6.6368,-6.7854,-6.8623,-6.8551,-6.8551,-6.8397,-6.8083,-6.8083,-6.8083,-6.8083,-6.8083,-6.8083,-6.8083,-6.8083,-6.8083,-6.8083,-6.8083,-6.8083,-6.8083,-6.8083,-6.8083,-6.8083,-6.8083,-6.8083,-6.8083,-6.8083,-6.8083,-6.8083,-6.8083,-6.8083,-6.8083,-6.8083,-6.8083,-6.8083,-6.8083,-6.8428,-6.8946,-6.9704,-7.0222,-7.0739,-7.1498,-7.1325,-7.1411,-7.283,-7.4857,-7.6386,-7.6533,-7.7472,-7.8146,-7.8014,-7.809,-7.809,-7.7747,-7.7977,-7.8146,-7.8014,-7.809,-7.8146,-7.8014,-7.8014,-7.8014,-7.8014,-7.7842,-7.7863,-7.8202,-7.7863,-7.792,-7.8404,-7.8602,-7.8812,-7.9116,-7.9116,-7.9116,-7.9116,-7.9116,-7.9116,0.0,0.0,0.0,0.0,0.0,0.0,0.0,0.0,0.0,0.0,0.0,0.0,0.0,0.0,0.0,0.0,0.0,0.0,0.0,0.0,0.0,0.0,0.0,0.0,0.0,0.0,0.0,0.0,-6.3565,-6.3895,-6.3823,-6.4217,-6.4428,-6.4498,-6.5338,-6.6038,-6.6663,-6.7861,-6.8558,-6.8781,-6.8705,-6.8551,-6.8162,-6.8083,-6.8083,-6.8083,-6.8083,-6.8083,-6.8083,-6.8083,-6.8083,-6.8083,-6.8083,-6.8083,-6.8083,-6.8083,-6.8083,-6.8083,-6.8083,-6.8083,-6.8083,-6.8083,-6.8083,-6.8083,-6.8083,-6.8083,-6.8083,-6.8083,-6.8083,-6.8083,-6.8083,-6.8704,-6.9463,-7.0222,-7.0946,-7.1705,-7.2498,-7.2222,-7.2243,-7.358,-7.5156,-7.625,-7.625,-7.7059,-7.7651,-7.7389,-7.7747,-7.7805,-7.7365,-7.7688,-7.7863,-7.7666,-7.7842,-7.7863,-7.7666,-7.7666,-7.7666,-7.7666,-7.7426,-7.7487,-7.7977,-7.7547,-7.7547,-7.809,-7.8349,-7.8565,-7.8878,-7.8878,-7.8878,-7.8878,-7.8878,-7.8878,0.0,0.0,0.0,0.0,0.0,0.0,0.0,0.0,0.0,0.0,0.0,0.0,0.0,0.0,0.0,0.0,0.0,0.0,0.0,0.0,0.0,0.0,0.0,0.0,0.0,0.0,0.0,0.0,-6.3152,-6.3452,-6.3076,-6.3452,-6.3747,-6.3965,-6.4876,-6.575,-6.6477,-6.8199,-6.9043,-6.9078,-6.8781,-6.8628,-6.8397,-6.8162,-6.8083,-6.8083,-6.8083,-6.8083,-6.8083,-6.8083,-6.8083,-6.8083,-6.8083,-6.8083,-6.8083,-6.8083,-6.8083,-6.8083,-6.8083,-6.8083,-6.8083,-6.8083,-6.8083,-6.8083,-6.8083,-6.8083,-6.8083,-6.8083,-6.8083,-6.8083,-6.8083,-6.8704,-6.9463,-7.0222,-7.0946,-7.1705,-7.2498,-7.2636,-7.272,-7.272,-7.3437,-7.392,-7.392,-7.5299,-7.627,-7.627,-7.6893,-7.7304,-7.7304,-7.7304,-7.7304,-7.7304,-7.7304,-7.7304,-7.7304,-7.7341,-7.7341,-7.7341,-7.7304,-7.7304,-7.7304,-7.7304,-7.7426,-7.7783,-7.7879,-7.7957,-7.8257,-7.8257,-7.8257,-7.8257,-7.8257,-7.8257,0.0,0.0,0.0,0.0,0.0,0.0,0.0,0.0,0.0,0.0,0.0,0.0,0.0,0.0,0.0,0.0,0.0,0.0,0.0,0.0,0.0,0.0,0.0,0.0,0.0,0.0,0.0,0.0,0.0,-6.0583,-6.2863,-6.1146,-6.1118,-6.3643,-6.4245,-6.5299,-6.6808,-6.7931,-6.8737,-6.9078,-6.8816,-6.8628,-6.8397,-6.8162,-6.8083,-6.8083,-6.8083,-6.8083,-6.8083,-6.8083,-6.8083,-6.8083,-6.8083,-6.8083,-6.8083,-6.8083,-6.8083,-6.8083,-6.8083,-6.8083,-6.8083,-6.8083,-6.8083,-6.8083,-6.8083,-6.8083,-6.8083,-6.8083,-6.8083,-6.8083,-6.8083,-6.8704,-6.9601,-7.0808,-7.167,-7.2326,-7.2602,-7.2671,-7.2671,-7.2671,-7.3311,-7.3799,-7.3799,-7.5155,-7.6203,-7.6203,-7.6829,-7.7304,-7.7304,-7.7304,-7.7304,-7.7304,-7.7304,-7.7304,-7.7304,-7.7304,-7.7304,-7.7304,-7.7304,-7.7304,-7.7304,-7.7304,-7.7365,-7.7524,-7.7487,-7.7725,-7.8202,-7.8202,-7.8202,-7.8202,-7.8202,-7.8202,-4.4147,0.0,0.0,0.0,0.0,0.0,0.0,0.0,0.0,0.0,0.0,0.0,0.0,0.0,0.0,0.0,0.0,0.0,0.0,0.0,0.0,0.0,0.0,0.0,0.0,0.0,0.0,0.0,0.0,0.0,-6.2634,-6.0681,-6.0693,-6.3274,-6.41,-6.5264,-6.6808,-6.7723,-6.853,-6.9227,-6.8857,-6.8628,-6.8474,-6.8241,-6.8083,-6.8083,-6.8083,-6.8083,-6.8083,-6.8083,-6.8083,-6.8083,-6.8083,-6.8083,-6.8083,-6.8083,-6.8083,-6.8083,-6.8083,-6.8083,-6.8083,-6.8083,-6.8083,-6.8083,-6.8083,-6.8083,-6.8083,-6.8083,-6.8083,-6.8083,-6.8083,-6.8877,-6.998,-7.1187,-7.2084,-7.2671,-7.2671,-7.2671,-7.2671,-7.2671,-7.3101,-7.3437,-7.3437,-7.4492,-7.5477,-7.5757,-7.6469,-7.7056,-7.7243,-7.7304,-7.7304,-7.7304,-7.7304,-7.7304,-7.7304,-7.7304,-7.7304,-7.7304,-7.7304,-7.7304,-7.7304,-7.7304,-7.7304,-7.7304,-7.7304,-7.7487,-7.792,-7.792,-7.792,-7.792,-7.792,-7.792,0.0,0.0,0.0,0.0,0.0,0.0,0.0,0.0,0.0,0.0,0.0,0.0,0.0,0.0,0.0,0.0,0.0,0.0,0.0,0.0,0.0,0.0,0.0,0.0,0.0,0.0,0.0,0.0,-6.2279,-6.2279,-6.2381,-6.2381,-6.2615,-6.3,-6.4477,-6.5607,-6.6442,-6.7578,-6.8568,-6.934,-6.8932,-6.8705,-6.8705,-6.8319,-6.8083,-6.8083,-6.8083,-6.8083,-6.8083,-6.8083,-6.8083,-6.8083,-6.8083,-6.8083,-6.8083,-6.8083,-6.8083,-6.8083,-6.8083,-6.8083,-6.8083,-6.8083,-6.8083,-6.8083,-6.8083,-6.8083,-6.8083,-6.8083,-6.8083,-6.8083,-6.8083,-6.9222,-7.0532,-7.1291,-7.205,-7.2636,-7.2671,-7.2671,-7.2671,-7.2671,-7.2671,-7.2671,-7.2671,-7.3311,-7.4111,-7.4864,-7.5688,-7.6469,-7.7181,-7.7304,-7.7304,-7.7304,-7.7304,-7.7304,-7.7304,-7.7304,-7.7304,-7.7304,-7.7304,-7.7304,-7.7304,-7.7304,-7.7304,-7.7304,-7.7304,-7.7304,-7.7304,-7.7304,-7.7304,-7.7304,-7.7304,-7.7304,-4.156,0.0,0.0,0.0,0.0,0.0,0.0,0.0,0.0,0.0,0.0,0.0,0.0,0.0,0.0,0.0,0.0,0.0,0.0,0.0,0.0,0.0,0.0,0.0,0.0,0.0,0.0,0.0,-5.9877,-5.9539,-6.2245,-6.2381,-6.2615,-6.3,-6.3698,-6.4551,-6.5607,-6.6738,-6.776,-6.8533,-6.8873,-6.8967,-6.8967,-6.8474,-6.8319,-6.8319,-6.8162,-6.8083,-6.8083,-6.8083,-6.8083,-6.8083,-6.8083,-6.8083,-6.8083,-6.8083,-6.8083,-6.8083,-6.8083,-6.8083,-6.8083,-6.8083,-6.8083,-6.8083,-6.8083,-6.8083,-6.8083,-6.8083,-6.8083,-6.8083,-6.8083,-6.8842,-6.9773,-7.0532,-7.1256,-7.1981,-7.2567,-7.2671,-7.2671,-7.2671,-7.2671,-7.2671,-7.2671,-7.3311,-7.4111,-7.4864,-7.5688,-7.6469,-7.7181,-7.7304,-7.7304,-7.7304,-7.7304,-7.7304,-7.7304,-7.7304,-7.7304,-7.7304,-7.7304,-7.7304,-7.7304,-7.7304,-7.7304,-7.7304,-7.7304,-7.7304,-7.7304,-7.7304,-7.7304,-7.7304,-7.7304,-7.7304,0.0,0.0,0.0,0.0,0.0,0.0,-4.0493,-4.3606,0.0,0.0,0.0,0.0,0.0,0.0,0.0,0.0,0.0,0.0,0.0,0.0,0.0,0.0,0.0,0.0,0.0,-6.2381,-6.2381,-6.2381,-6.0351,-6.008,-6.2279,-6.2381,-6.2537,-6.277,-6.3302,-6.4092,-6.504,-6.5857,-6.6878,-6.7924,-6.8229,-6.8502,-6.8816,-6.8474,-6.8397,-6.8397,-6.8162,-6.8083,-6.8083,-6.8083,-6.8083,-6.8083,-6.8083,-6.8083,-6.8083,-6.8083,-6.8083,-6.8083,-6.8083,-6.8083,-6.8083,-6.8083,-6.8083,-6.8083,-6.8083,-6.8083,-6.8083,-6.8083,-6.8083,-6.8083,-6.8083,-6.8704,-6.9463,-7.0222,-7.0946,-7.1705,-7.2498,-7.2671,-7.2671,-7.2671,-7.2671,-7.2671,-7.2671,-7.3018,-7.3597,-7.4416,-7.5155,-7.5963,-7.6765,-7.7118,-7.7304,-7.7304,-7.7304,-7.7304,-7.7304,-7.7304,-7.7304,-7.7304,-7.7304,-7.7304,-7.7304,-7.7304,-7.7304,-7.7304,-7.7304,-7.7304,-7.7304,-7.7304,-7.7304,-7.7304,-7.7304,-7.7304,0.0,0.0,0.0,0.0,0.0,0.0,-4.0985,-4.4688,-4.8105,0.0,0.0,0.0,0.0,0.0,0.0,0.0,0.0,0.0,0.0,0.0,0.0,0.0,0.0,0.0,-6.2223,-6.2223,-6.2302,-6.2381,-6.2381,-6.2381,-6.2381,-6.2381,-6.2381,-6.2381,-6.3152,-6.3836,-6.449,-6.5005,-6.5951,-6.7411,-6.733,-6.7669,-6.8397,-6.8397,-6.8397,-6.8397,-6.8241,-6.8162,-6.8162,-6.8162,-6.8162,-6.8083,-6.8083,-6.8083,-6.8083,-6.8083,-6.8083,-6.8083,-6.8083,-6.8083,-6.8083,-6.8083,-6.8083,-6.8083,-6.8083,-6.8083,-6.8083,-6.8083,-6.8083,-6.8083,-6.8083,-6.8635,-6.9325,-7.0084,-7.0843,-7.1601,-7.236,-7.2602,-7.2671,-7.2671,-7.2671,-7.2671,-7.2671,-7.2671,-7.297,-7.3641,-7.4492,-7.5299,-7.6135,-7.6829,-7.7304,-7.7304,-7.7304,-7.7304,-7.7304,-7.7304,-7.7304,-7.7304,-7.7304,-7.7304,-7.7304,-7.7304,-7.7304,-7.7304,-7.7304,-7.7304,-7.7304,-7.7304,-7.7304,-7.7304,-7.7304,-7.7304,0.0,0.0,0.0,0.0,0.0,0.0,-4.0607,-4.1257,-4.2523,0.0,0.0,0.0,0.0,0.0,0.0,0.0,0.0,0.0,0.0,0.0,0.0,0.0,0.0,0.0,-6.1268,-6.1268,-6.1595,-6.2302,-6.2381,-6.2381,-6.2381,-6.2381,-6.2381,-6.2381,-6.2847,-6.322,-6.3357,-6.4318,-6.5302,-6.6125,-6.6746,-6.7437,-6.8162,-6.8319,-6.8397,-6.8397,-6.8551,-6.8551,-6.8551,-6.8551,-6.8397,-6.8083,-6.8083,-6.8083,-6.8083,-6.8083,-6.8083,-6.8083,-6.8083,-6.8083,-6.8083,-6.8083,-6.8083,-6.8083,-6.8083,-6.8083,-6.8083,-6.8083,-6.8083,-6.8083,-6.8083,-6.8221,-6.8532,-6.9325,-7.0049,-7.0808,-7.1567,-7.2222,-7.2671,-7.2671,-7.2671,-7.2671,-7.2671,-7.2671,-7.297,-7.3641,-7.4492,-7.5299,-7.6135,-7.6829,-7.7304,-7.7304,-7.7304,-7.7304,-7.7304,-7.7304,-7.7304,-7.7304,-7.7304,-7.7304,-7.7304,-7.7304,-7.7304,-7.7304,-7.7304,-7.7304,-7.7304,-7.7304,-7.7304,-7.7304,-7.7304,-7.7304,0.0,0.0,0.0,-4.1071,0.0,0.0,0.0,-4.1647,-4.294,-4.4436,-4.5852,-4.6786,-4.6786,0.0,0.0,0.0,0.0,0.0,0.0,0.0,0.0,0.0,0.0,0.0,-6.1676,-6.1268,-6.1432,-6.2302,-6.2381,-6.2381,-6.2381,-6.2381,-6.2381,-6.2381,-6.277,-6.3,-6.3,-6.357,-6.4229,-6.495,-6.5705,-6.6495,-6.7216,-6.8068,-6.8397,-6.8397,-6.8397,-6.8551,-6.8705,-6.8474,-6.8397,-6.8397,-6.8397,-6.8241,-6.8083,-6.8319,-6.8241,-6.8083,-6.8241,-6.8162,-6.8083,-6.8083,-6.8083,-6.8083,-6.8083,-6.8083,-6.8083,-6.8083,-6.8083,-6.8083,-6.8083,-6.8083,-6.829,-6.9084,-6.9842,-7.0601,-7.1325,-7.2119,-7.2671,-7.2671,-7.2671,-7.2671,-7.2671,-7.2671,-7.2838,-7.3183,-7.3878,-7.4716,-7.5512,-7.627,-7.6893,-7.7243,-7.7304,-7.7304,-7.7304,-7.7304,-7.7304,-7.7304,-7.7304,-7.7304,-7.7304,-7.7304,-7.7304,-7.7304,-7.7304,-7.7304,-7.7304,-7.7304,-7.7304,-7.7304,-7.7304,-7.7304,0.0,0.0,0.0,0.0,0.0,-4.1163,0.0,0.0,0.0,0.0,0.0,0.0,0.0,0.0,0.0,0.0,0.0,0.0,0.0,0.0,0.0,0.0,0.0,0.0,-5.9755,-5.9931,-6.0665,-6.2234,-6.2381,-6.2381,-6.2381,-6.2381,-6.2381,-6.2381,-6.2693,-6.2923,-6.2923,-6.2923,-6.3299,-6.4015,-6.4766,-6.5517,-6.6268,-6.7581,-6.8241,-6.8241,-6.8162,-6.8241,-6.8551,-6.8319,-6.8397,-6.8628,-6.8705,-6.8474,-6.8241,-6.8551,-6.8474,-6.8241,-6.8397,-6.8319,-6.8162,-6.8162,-6.8083,-6.8083,-6.8083,-6.8083,-6.8083,-6.8083,-6.8083,-6.8083,-6.8083,-6.8083,-6.8256,-6.8911,-6.9739,-7.0532,-7.1153,-7.2015,-7.2671,-7.2671,-7.2671,-7.2671,-7.2671,-7.2671,-7.2671,-7.2671,-7.3311,-7.4033,-7.4716,-7.5618,-7.6403,-7.7019,-7.7181,-7.7304,-7.7304,-7.7304,-7.7304,-7.7304,-7.7304,-7.7304,-7.7304,-7.7304,-7.7304,-7.7304,-7.7304,-7.7304,-7.7304,-7.7304,-7.7304,-7.7304,-7.7304,-7.7304,0.0,0.0,0.0,0.0,-4.1346,0.0,0.0,0.0,-4.1292,-4.1047,0.0,0.0,0.0,0.0,0.0,0.0,0.0,0.0,-4.4204,-4.5949,-4.6992,-4.7174,-4.9524,0.0,0.0,-5.408,-5.816,-6.2144,-6.2381,-6.2381,-6.2381,-6.2381,-6.2381,-6.2381,-6.2459,-6.2459,-6.2459,-6.2459,-6.2832,-6.3611,-6.4322,-6.5067,-6.5779,-6.7052,-6.7557,-6.7638,-6.7959,-6.8083,-6.8162,-6.8474,-6.8551,-6.8474,-6.8628,-6.8705,-6.8628,-6.8705,-6.8705,-6.8628,-6.8628,-6.8551,-6.8397,-6.8397,-6.8241,-6.8083,-6.8083,-6.8083,-6.8083,-6.8083,-6.8083,-6.8083,-6.8083,-6.8083,-6.8118,-6.8221,-6.9325,-7.0394,-7.0498,-7.1636,-7.2671,-7.2671,-7.2671,-7.2671,-7.2671,-7.2671,-7.2671,-7.2671,-7.3311,-7.3799,-7.3956,-7.5227,-7.6203,-7.6336,-7.6893,-7.7304,-7.7304,-7.7304,-7.7304,-7.7304,-7.7304,-7.7304,-7.7304,-7.7304,-7.7304,-7.7304,-7.7304,-7.7304,-7.7304,-7.7304,-7.7304,-7.7304,-7.7304,-7.7304,0.0,0.0,0.0,0.0,0.0,0.0,-4.4082,0.0,-4.1024,0.0,0.0,0.0,0.0,0.0,0.0,0.0,-4.0188,0.0,0.0,0.0,-4.3867,0.0,0.0,0.0,0.0,0.0,0.0,-5.8074,-5.8799,-5.9133,-5.9133,-6.1197,-6.2381,-6.2381,-6.2381,-6.2381,-6.2381,-6.2381,-6.255,-6.2854,-6.3632,-6.4343,-6.5087,-6.6323,-6.7065,-6.7475,-6.7638,-6.7879,-6.8083,-6.8004,-6.8083,-6.8241,-6.8551,-6.8705,-6.8705,-6.9043,-6.8932,-6.8705,-6.8892,-6.8781,-6.8551,-6.8474,-6.8241,-6.8083,-6.8083,-6.8083,-6.8083,-6.8083,-6.8083,-6.8083,-6.8083,-6.8083,-6.8221,-6.867,-6.9601,-7.0498,-7.0946,-7.1912,-7.2671,-7.2671,-7.2671,-7.2671,-7.2671,-7.2671,-7.2671,-7.2671,-7.297,-7.3311,-7.3721,-7.479,-7.5688,-7.6135,-7.6829,-7.7304,-7.7304,-7.7304,-7.7304,-7.7304,-7.7304,-7.7304,-7.7304,-7.7304,-7.7304,-7.7304,-7.7304,-7.7304,-7.7304,-7.7304,-7.7304,-7.7304,-7.7304,-7.7304,-4.673,0.0,0.0,0.0,0.0,0.0,0.0,0.0,0.0,0.0,0.0,0.0,0.0,0.0,-4.0631,-4.0631,0.0,-4.0238,0.0,-4.0138,0.0,0.0,0.0,0.0,0.0,0.0,-5.1196,-5.3791,-5.5362,-5.6331,-5.6799,-6.0088,-6.211,-6.2381,-6.2381,-6.2381,-6.2381,-6.2381,-6.2381,-6.2415,-6.3159,-6.3802,-6.4343,-6.5583,-6.646,-6.7039,-6.7243,-6.7475,-6.7684,-6.7557,-6.7638,-6.7959,-6.8397,-6.8551,-6.8628,-6.9227,-6.9192,-6.8967,-6.9153,-6.9043,-6.8781,-6.8474,-6.8319,-6.8162,-6.8083,-6.8083,-6.8083,-6.8083,-6.8083,-6.8083,-6.8083,-6.8083,-6.829,-6.9084,-6.9842,-7.0601,-7.1325,-7.2119,-7.2671,-7.2671,-7.2671,-7.2671,-7.2671,-7.2671,-7.2671,-7.2671,-7.2671,-7.2887,-7.3472,-7.4187,-7.4937,-7.5441,-7.6403,-7.6993,-7.6993,-7.7181,-7.7304,-7.7304,-7.7304,-7.7304,-7.7304,-7.7304,-7.7304,-7.7304,-7.7304,-7.7304,-7.7304,-7.7304,-7.7304,-7.7304,-7.7304,-7.7304,0.0,0.0,0.0,-4.6976,0.0,0.0,0.0,0.0,-4.1515,0.0,0.0,0.0,0.0,-4.0871,-4.0871,-4.0871,-4.068,0.0,0.0,0.0,0.0,0.0,0.0,0.0,0.0,-4.6346,-4.8078,-5.0323,-5.3058,-5.5216,-5.6727,-5.951,-6.1432,-6.2381,-6.2381,-6.2381,-6.2381,-6.2381,-6.2381,-6.2415,-6.3159,-6.3531,-6.3599,-6.5019,-6.5696,-6.5764,-6.6508,-6.6812,-6.6896,-6.7312,-6.7475,-6.7557,-6.7959,-6.8083,-6.8241,-6.9043,-6.9376,-6.9376,-6.9376,-6.9227,-6.9002,-6.8551,-6.8397,-6.8319,-6.8162,-6.8083,-6.8083,-6.8083,-6.8083,-6.8083,-6.8083,-6.8083,-6.829,-6.9084,-6.9842,-7.0601,-7.1325,-7.2119,-7.2671,-7.2671,-7.2671,-7.2671,-7.2671,-7.2671,-7.2671,-7.2671,-7.2671,-7.2671,-7.2755,-7.3392,-7.3878,-7.3878,-7.5299,-7.6203,-7.6203,-7.6893,-7.7304,-7.7304,-7.7304,-7.7304,-7.7304,-7.7304,-7.7304,-7.7304,-7.7304,-7.7304,-7.7304,-7.7304,-7.7304,-7.7304,-7.7304,-7.7304,0.0,0.0,-5.3682,-5.2628,0.0,0.0,0.0,0.0,0.0,0.0,0.0,0.0,0.0,-4.1244,-4.1071,-4.1071,-4.0918,-4.0776,0.0,0.0,0.0,0.0,0.0,0.0,0.0,0.0,0.0,-4.4973,-4.6604,-4.7697,-4.8266,-5.421,-5.7532,-5.7186,-6.0561,-6.211,-6.1513,-6.211,-6.2381,-6.2381,-6.2651,-6.3024,-6.3531,-6.4512,-6.5222,-6.573,-6.6474,-6.6812,-6.6812,-6.698,-6.7063,-6.7063,-6.7557,-6.7719,-6.7799,-6.8628,-6.8967,-6.8967,-6.9302,-6.9302,-6.9078,-6.8705,-6.8474,-6.8397,-6.8162,-6.8083,-6.8083,-6.8083,-6.8083,-6.8083,-6.8083,-6.8083,-6.8428,-6.9704,-7.0222,-7.0739,-7.2015,-7.2498,-7.2671,-7.2671,-7.2671,-7.2671,-7.2671,-7.2671,-7.2671,-7.2671,-7.2671,-7.2671,-7.2671,-7.3311,-7.3799,-7.3799,-7.5227,-7.6203,-7.6203,-7.6893,-7.7304,-7.7304,-7.7304,-7.7304,-7.7304,-7.7304,-7.7304,-7.7304,-7.7304,-7.7304,-7.7304,-7.7304,-7.7304,-7.7304,-7.7304,-7.7304,-5.6455,-5.7158,0.0,-5.5788,-5.3998,0.0,-5.1154,0.0,-4.4904,0.0,0.0,0.0,0.0,-4.308,-4.2638,-4.152,-4.1117,-4.0861,0.0,-4.0508,0.0,0.0,0.0,0.0,0.0,-4.0784,-4.035,-4.0928,-4.2267,-4.3298,0.0,-5.0903,-5.4796,-5.4482,-5.8984,-6.1268,-6.0986,-6.1595,-6.203,-6.2381,-6.203,-6.23,-6.3125,-6.3511,-6.4334,-6.5358,-6.6102,-6.6576,-6.6812,-6.6812,-6.6812,-6.6812,-6.7146,-6.7229,-6.7394,-6.8319,-6.8705,-6.8781,-6.9227,-6.9153,-6.8816,-6.8705,-6.8551,-6.8397,-6.8162,-6.8083,-6.8221,-6.8739,-6.8532,-6.8221,-6.8773,-6.8497,-6.8497,-7.0015,-7.0394,-7.0808,-7.236,-7.2671,-7.2671,-7.2671,-7.2671,-7.2671,-7.2671,-7.2671,-7.2671,-7.2671,-7.2671,-7.2671,-7.2671,-7.3101,-7.3517,-7.3799,-7.501,-7.5963,-7.6534,-7.7056,-7.7304,-7.7304,-7.7304,-7.7304,-7.7304,-7.7304,-7.7304,-7.7304,-7.7304,-7.7304,-7.7304,-7.7304,-7.7304,-7.7304,-7.7304,-7.7341]}]]